[[{"header":{"parameterUnit":"m.s-1","parameterCategory":1,"la1":30.6,"la2":28.766,"lo1":-90.7593,"lo2":-88.6598,"dx":0.0162,"dy":0.0183,"nx":116,"ny":114,"refTime":"2023-01-25T06:00:00:Z","depth":0,"parameterNumber":2,"parameterNumberName":"U-component_of_WINDS"},"data":[0.0,0.0,0.0,0.0,0.0,0.0,0.0,0.0,0.0,0.0,0.0,0.0,0.0,0.0,0.0,0.0,0.0,0.0,0.0,0.0,0.0,0.0,0.0,0.0,0.0,0.0,0.0,0.0,0.0,0.0,0.0,0.0,0.0,0.0,0.0,0.0,0.0,0.0,0.0,0.0,0.0,0.0,0.0,0.0,0.0,0.0,0.0,0.0,0.0,0.0,0.0,0.0,0.0,0.0,0.0,0.0,0.0,0.0,0.0,0.0,0.0,0.0,0.0,0.0,0.0,0.0,0.0,0.0,0.0,0.0,0.0,0.0,0.0,0.0,0.0,0.0,0.0,0.0,0.0,0.0,0.0,0.0,0.0,0.0,0.0,0.0,0.0,0.0,0.0,0.0,0.0,0.0,0.0,0.0,0.0,0.0,0.0,0.0,0.0,0.0,0.0,0.0,0.0,0.0,0.0,0.0,0.0,0.0,0.0,0.0,0.0,0.0,0.0,0.0,0.0,0.0,0.0,0.0,0.0,0.0,0.0,0.0,0.0,0.0,0.0,0.0,0.0,0.0,0.0,0.0,0.0,0.0,0.0,0.0,0.0,0.0,0.0,0.0,0.0,0.0,0.0,0.0,0.0,0.0,0.0,0.0,0.0,0.0,0.0,0.0,0.0,0.0,0.0,0.0,0.0,0.0,0.0,0.0,0.0,0.0,0.0,0.0,0.0,0.0,0.0,0.0,0.0,0.0,0.0,0.0,0.0,0.0,0.0,0.0,0.0,0.0,0.0,0.0,0.0,0.0,0.0,0.0,0.0,0.0,0.0,0.0,0.0,0.0,0.0,0.0,0.0,0.0,0.0,0.0,0.0,0.0,0.0,0.0,0.0,0.0,0.0,0.0,0.0,0.0,0.0,0.0,0.0,0.0,0.0,0.0,0.0,0.0,0.0,0.0,0.0,0.0,0.0,0.0,0.0,0.0,0.0,0.0,0.0,0.0,0.0,0.0,0.0,0.0,0.0,0.0,0.0,0.0,0.0,0.0,0.0,0.0,0.0,0.0,0.0,0.0,0.0,0.0,0.0,0.0,0.0,0.0,0.0,0.0,0.0,0.0,0.0,0.0,0.0,0.0,0.0,0.0,0.0,0.0,0.0,0.0,0.0,0.0,0.0,0.0,0.0,0.0,0.0,0.0,0.0,0.0,0.0,0.0,0.0,0.0,0.0,0.0,0.0,0.0,0.0,0.0,0.0,0.0,0.0,0.0,0.0,0.0,0.0,0.0,0.0,0.0,0.0,0.0,0.0,0.0,0.0,0.0,0.0,0.0,0.0,0.0,0.0,0.0,0.0,0.0,0.0,0.0,0.0,0.0,0.0,0.0,0.0,0.0,0.0,0.0,0.0,0.0,0.0,0.0,0.0,0.0,0.0,0.0,0.0,0.0,0.0,0.0,0.0,0.0,0.0,0.0,0.0,0.0,0.0,0.0,0.0,0.0,0.0,0.0,0.0,0.0,0.0,0.0,0.0,0.0,0.0,0.0,0.0,0.0,0.0,0.0,0.0,0.0,0.0,0.0,0.0,0.0,0.0,0.0,0.0,0.0,0.0,0.0,0.0,0.0,0.0,0.0,0.0,0.0,0.0,0.0,0.0,0.0,0.0,0.0,0.0,0.0,0.0,0.0,0.0,0.0,0.0,0.0,0.0,0.0,0.0,0.0,0.0,0.0,0.0,0.0,0.0,0.0,0.0,0.0,0.0,0.0,0.0,0.0,0.0,0.0,0.0,0.0,0.0,0.0,0.0,0.0,0.0,0.0,0.0,0.0,0.0,0.0,0.0,0.0,0.0,0.0,0.0,0.0,0.0,0.0,0.0,0.0,0.0,0.0,0.0,0.0,0.0,0.0,0.0,0.0,0.0,0.0,0.0,0.0,0.0,0.0,0.0,0.0,0.0,0.0,0.0,0.0,0.0,0.0,0.0,0.0,0.0,0.0,0.0,0.0,0.0,0.0,0.0,0.0,0.0,0.0,0.0,0.0,0.0,0.0,0.0,0.0,0.0,0.0,0.0,0.0,0.0,0.0,0.0,0.0,0.0,0.0,0.0,0.0,0.0,0.0,0.0,0.0,0.0,0.0,0.0,0.0,0.0,0.0,0.0,0.0,0.0,0.0,0.0,0.0,0.0,0.0,0.0,0.0,0.0,0.0,0.0,0.0,0.0,0.0,0.0,0.0,0.0,0.0,0.0,0.0,0.0,0.0,0.0,0.0,0.0,0.0,0.0,0.0,0.0,0.0,0.0,0.0,0.0,0.0,0.0,0.0,0.0,0.0,0.0,0.0,0.0,0.0,0.0,0.0,0.0,0.0,0.0,0.0,0.0,0.0,0.0,0.0,0.0,0.0,0.0,0.0,0.0,0.0,0.0,0.0,0.0,0.0,0.0,0.0,0.0,0.0,0.0,0.0,0.0,0.0,0.0,0.0,0.0,0.0,0.0,0.0,0.0,0.0,0.0,0.0,0.0,0.0,0.0,0.0,0.0,0.0,0.0,0.0,0.0,0.0,0.0,0.0,0.0,0.0,0.0,0.0,0.0,0.0,0.0,0.0,0.0,0.0,0.0,0.0,0.0,0.0,0.0,0.0,0.0,0.0,0.0,0.0,0.0,0.0,0.0,0.0,0.0,0.0,0.0,0.0,0.0,0.0,0.0,0.0,0.0,0.0,0.0,0.0,0.0,0.0,0.0,0.0,0.0,0.0,0.0,0.0,0.0,0.0,0.0,0.0,0.0,0.0,0.0,0.0,0.0,0.0,0.0,0.0,0.0,0.0,0.0,0.0,0.0,0.0,0.0,0.0,0.0,0.0,0.0,0.0,0.0,0.0,0.0,0.0,0.0,0.0,0.0,0.0,0.0,0.0,0.0,0.0,0.0,0.0,0.0,0.0,0.0,0.0,0.0,0.0,0.0,0.0,0.0,0.0,0.0,0.0,0.0,0.0,0.0,0.0,0.0,0.0,0.0,0.0,0.0,0.0,0.0,0.0,0.0,0.0,0.0,0.0,0.0,0.0,0.0,0.0,0.0,0.0,0.0,0.0,0.0,0.0,0.0,0.0,0.0,0.0,0.0,0.0,0.0,0.0,0.0,0.0,0.0,0.0,0.0,0.0,0.0,0.0,0.0,0.0,0.0,0.0,0.0,0.0,0.0,0.0,0.0,0.0,0.0,0.0,0.0,0.0,0.0,0.0,0.0,0.0,0.0,0.0,0.0,0.0,0.0,0.0,0.0,0.0,0.0,0.0,0.0,0.0,0.0,0.0,0.0,0.0,0.0,0.0,0.0,0.0,0.0,0.0,0.0,0.0,0.0,0.0,0.0,0.0,0.0,0.0,0.0,0.0,0.0,0.0,0.0,0.0,0.0,0.0,0.0,0.0,0.0,0.0,0.0,0.0,0.0,0.0,0.0,0.0,0.0,0.0,0.0,0.0,0.0,0.0,0.0,0.0,0.0,0.0,0.0,0.0,0.0,0.0,0.0,0.0,0.0,0.0,0.0,0.0,0.0,0.0,0.0,0.0,0.0,0.0,0.0,0.0,0.0,0.0,0.0,0.0,0.0,0.0,0.0,0.0,0.0,0.0,0.0,0.0,0.0,0.0,0.0,0.0,0.0,0.0,0.0,0.0,0.0,0.0,0.0,0.0,0.0,0.0,0.0,0.0,0.0,0.0,0.0,0.0,0.0,0.0,0.0,0.0,0.0,0.0,0.0,0.0,0.0,0.0,0.0,0.0,0.0,0.0,0.0,0.0,0.0,0.0,0.0,0.0,0.0,0.0,0.0,0.0,0.0,0.0,0.0,0.0,0.0,0.0,0.0,0.0,0.0,0.0,0.0,0.0,0.0,0.0,0.0,0.0,0.0,0.0,0.0,0.0,0.0,0.0,0.0,0.0,0.0,0.0,0.0,0.0,0.0,0.0,0.0,0.0,0.0,0.0,0.0,0.0,0.0,0.0,0.0,0.0,0.0,0.0,0.0,0.0,0.0,0.0,0.0,0.0,0.0,0.0,0.0,0.0,0.0,0.0,0.0,0.0,0.0,0.0,0.0,0.0,0.0,0.0,0.0,0.0,0.0,0.0,0.0,0.0,0.0,0.0,0.0,0.0,0.0,0.0,0.0,0.0,0.0,0.0,0.0,0.0,0.0,0.0,0.0,0.0,0.0,0.0,0.0,0.0,0.0,0.0,0.0,0.0,0.0,0.0,0.0,0.0,0.0,0.0,0.0,0.0,0.0,0.0,0.0,0.0,0.0,0.0,0.0,0.0,0.0,0.0,0.0,0.0,0.0,0.0,0.0,0.0,0.0,0.0,0.0,0.0,0.0,0.0,0.0,0.0,0.0,0.0,0.0,0.0,0.0,0.0,0.0,0.0,0.0,0.0,0.0,0.0,0.0,0.0,0.0,0.0,0.0,0.0,0.0,0.0,0.0,0.0,0.0,0.0,0.0,0.0,0.0,0.0,0.0,0.0,0.0,0.0,0.0,0.0,0.0,0.0,0.0,0.0,0.0,0.0,0.0,0.0,0.0,0.0,0.0,0.0,0.0,0.0,0.0,0.0,0.0,0.0,0.0,0.0,0.0,0.0,0.0,0.0,0.0,0.0,0.0,0.0,0.0,0.0,0.0,0.0,0.0,0.0,0.0,0.0,0.0,0.0,0.0,0.0,0.0,0.0,0.0,0.0,0.0,0.0,0.0,0.0,0.0,0.0,0.0,0.0,0.0,0.0,0.0,0.0,0.0,0.0,0.0,0.0,0.0,0.0,0.0,0.0,0.0,0.0,0.0,0.0,0.0,0.0,0.0,0.0,0.0,0.0,0.0,0.0,0.0,0.0,0.0,0.0,0.0,0.0,0.0,0.0,0.0,0.0,0.0,0.0,0.0,0.0,0.0,0.0,0.0,0.0,0.0,0.0,0.0,0.0,0.0,0.0,0.0,0.0,0.0,0.0,0.0,0.0,0.0,0.0,0.0,0.0,0.0,0.0,0.0,0.0,0.0,0.0,0.0,0.0,0.0,0.0,0.0,0.0,0.0,0.0,0.0,0.0,0.0,0.0,0.0,0.0,0.0,0.0,0.0,0.0,0.0,0.0,0.0,0.0,0.0,0.0,0.0,0.0,0.0,0.0,0.0,0.0,0.0,0.0,0.0,0.0,0.0,0.0,0.0,0.0,0.0,0.0,0.0,0.0,0.0,0.0,0.0,0.0,0.0,0.0,0.0,0.0,0.0,0.0,0.0,0.0,0.0,0.0,0.0,0.0,0.0,0.0,0.0,0.0,0.0,0.0,0.0,0.0,0.0,0.0,0.0,0.0,0.0,0.0,0.0,0.0,0.0,0.0,0.0,0.0,0.0,0.0,0.0,0.0,0.0,0.0,0.0,0.0,0.0,0.0,0.0,0.0,0.0,0.0,0.0,0.0,0.0,0.0,0.0,0.0,0.0,0.0,0.0,0.0,0.0,0.0,0.0,0.0,0.0,0.0,0.0,0.0,0.0,0.0,0.0,0.0,0.0,0.0,0.0,0.0,0.0,0.0,0.0,0.0,0.0,0.0,0.0,0.0,0.0,0.0,0.0,0.0,0.0,0.0,0.0,0.0,0.0,0.0,0.0,0.0,0.0,0.0,0.0,0.0,0.0,0.0,0.0,0.0,0.0,0.0,0.0,0.0,0.0,0.0,0.0,0.0,0.0,0.0,0.0,0.0,0.0,0.0,0.0,0.0,0.0,0.0,0.0,0.0,0.0,0.0,0.0,0.0,0.0,0.0,0.0,0.0,0.0,0.0,0.0,0.0,0.0,0.0,0.0,0.0,0.0,0.0,0.0,0.0,0.0,0.0,0.0,0.0,0.0,0.0,0.0,0.0,0.0,0.0,0.0,0.0,0.0,0.0,0.0,0.0,0.0,0.0,0.0,0.0,0.0,0.0,0.0,0.0,0.0,0.0,0.0,0.0,0.0,0.0,0.0,0.0,0.0,0.0,0.0,0.0,0.0,0.0,0.0,0.0,0.0,0.0,0.0,0.0,0.0,0.0,0.0,0.0,0.0,0.0,0.0,0.0,0.0,0.0,0.0,0.0,-2.7207,0.0,0.0,0.0,0.0,0.0,0.0,0.0,0.0,0.0,0.0,0.0,0.0,0.0,0.0,0.0,0.0,0.0,0.0,0.0,0.0,0.0,0.0,0.0,0.0,0.0,0.0,0.0,0.0,0.0,0.0,0.0,0.0,0.0,0.0,0.0,0.0,0.0,0.0,0.0,0.0,0.0,0.0,0.0,0.0,0.0,0.0,0.0,0.0,0.0,0.0,0.0,0.0,0.0,0.0,0.0,0.0,0.0,0.0,0.0,0.0,0.0,0.0,0.0,0.0,0.0,0.0,0.0,0.0,0.0,0.0,0.0,0.0,0.0,0.0,0.0,0.0,0.0,0.0,0.0,0.0,0.0,0.0,0.0,0.0,0.0,0.0,0.0,0.0,0.0,0.0,0.0,0.0,0.0,0.0,0.0,0.0,0.0,0.0,0.0,0.0,0.0,0.0,0.0,0.0,0.0,0.0,0.0,0.0,0.0,0.0,0.0,0.0,0.0,0.0,0.0,0.0,-2.8299,0.0,0.0,0.0,0.0,0.0,0.0,0.0,0.0,0.0,0.0,0.0,0.0,0.0,0.0,0.0,0.0,0.0,0.0,0.0,0.0,0.0,0.0,0.0,0.0,0.0,0.0,0.0,0.0,0.0,0.0,0.0,0.0,0.0,0.0,0.0,0.0,0.0,0.0,0.0,0.0,0.0,0.0,0.0,0.0,0.0,0.0,0.0,0.0,0.0,0.0,0.0,0.0,0.0,0.0,0.0,0.0,0.0,0.0,0.0,0.0,0.0,0.0,0.0,0.0,0.0,0.0,0.0,0.0,0.0,0.0,0.0,0.0,0.0,0.0,0.0,0.0,0.0,0.0,0.0,0.0,0.0,0.0,0.0,0.0,0.0,0.0,0.0,0.0,0.0,0.0,0.0,0.0,0.0,0.0,0.0,0.0,0.0,0.0,0.0,0.0,0.0,0.0,0.0,0.0,0.0,0.0,0.0,0.0,-2.7612,-2.7496,-2.7509,-2.7132,-2.7147,-2.7487,-2.8183,-2.8237,-2.7869,0.0,0.0,0.0,0.0,0.0,0.0,0.0,0.0,0.0,0.0,0.0,0.0,0.0,0.0,0.0,0.0,0.0,0.0,0.0,0.0,0.0,0.0,0.0,0.0,0.0,0.0,0.0,0.0,0.0,0.0,0.0,0.0,0.0,0.0,0.0,0.0,0.0,0.0,0.0,0.0,0.0,0.0,0.0,0.0,0.0,0.0,0.0,0.0,0.0,0.0,0.0,0.0,0.0,0.0,0.0,0.0,0.0,0.0,0.0,0.0,0.0,0.0,0.0,0.0,0.0,0.0,0.0,0.0,0.0,0.0,0.0,0.0,0.0,0.0,0.0,0.0,0.0,0.0,0.0,0.0,0.0,0.0,0.0,0.0,0.0,0.0,0.0,-2.8364,-3.0497,0.0,0.0,0.0,0.0,0.0,0.0,0.0,0.0,0.0,0.0,0.0,0.0,0.0,0.0,-2.763,-2.743,-2.7321,-2.7321,-2.7276,-2.74,-2.7672,-2.7612,-2.7742,-2.8073,-2.7961,0.0,-2.7789,-2.743,0.0,0.0,0.0,0.0,0.0,0.0,0.0,0.0,0.0,0.0,0.0,0.0,0.0,0.0,0.0,0.0,0.0,0.0,0.0,0.0,0.0,0.0,0.0,0.0,0.0,0.0,0.0,0.0,0.0,0.0,0.0,0.0,0.0,0.0,0.0,0.0,0.0,0.0,0.0,0.0,0.0,0.0,0.0,0.0,0.0,0.0,0.0,0.0,0.0,0.0,0.0,0.0,0.0,0.0,0.0,0.0,0.0,0.0,0.0,0.0,0.0,0.0,0.0,0.0,0.0,0.0,0.0,0.0,0.0,0.0,0.0,0.0,0.0,0.0,0.0,0.0,0.0,0.0,0.0,0.0,0.0,0.0,0.0,0.0,0.0,-2.8625,-3.0309,-2.932,-3.0283,-3.1184,0.0,0.0,0.0,0.0,0.0,0.0,0.0,0.0,0.0,-2.8119,-2.7924,-2.8147,-2.8827,-2.8328,-2.8265,-2.86,-2.8265,-2.8167,-2.8242,-2.7762,-2.76,-2.7748,-2.7461,-2.7338,-2.7369,-2.7382,-2.7369,-2.7345,0.0,0.0,0.0,0.0,0.0,-2.7943,0.0,0.0,0.0,0.0,0.0,0.0,0.0,0.0,0.0,0.0,0.0,0.0,0.0,0.0,0.0,0.0,0.0,0.0,0.0,0.0,0.0,0.0,0.0,0.0,0.0,0.0,0.0,0.0,0.0,0.0,0.0,0.0,0.0,0.0,0.0,0.0,0.0,0.0,0.0,0.0,0.0,0.0,0.0,0.0,0.0,0.0,0.0,0.0,0.0,0.0,0.0,0.0,0.0,0.0,0.0,0.0,0.0,0.0,0.0,0.0,0.0,0.0,0.0,0.0,0.0,0.0,0.0,0.0,0.0,0.0,0.0,0.0,0.0,0.0,0.0,0.0,0.0,-2.9688,-3.0743,-2.8427,-3.0031,-3.122,0.0,0.0,0.0,0.0,0.0,0.0,-3.0176,-2.9586,-2.9237,-2.9185,-2.8829,-2.9006,-2.9685,-2.9334,-2.9222,-2.936,-2.8998,-2.8736,-2.8606,-2.7826,-2.7496,-2.7448,-2.7198,-2.7103,-2.7152,-2.7546,-2.7664,-2.7609,-2.8234,-2.8425,-2.8425,-2.8829,-2.8924,-2.8851,0.0,0.0,0.0,0.0,0.0,0.0,0.0,0.0,0.0,0.0,0.0,0.0,0.0,0.0,0.0,0.0,0.0,0.0,0.0,0.0,0.0,0.0,0.0,0.0,0.0,0.0,0.0,0.0,0.0,0.0,0.0,0.0,0.0,0.0,0.0,0.0,0.0,0.0,0.0,0.0,0.0,0.0,0.0,0.0,0.0,0.0,0.0,0.0,0.0,0.0,0.0,0.0,0.0,0.0,0.0,0.0,0.0,0.0,0.0,0.0,0.0,0.0,0.0,0.0,0.0,0.0,0.0,0.0,0.0,0.0,0.0,0.0,0.0,0.0,0.0,0.0,0.0,0.0,0.0,-2.982,-3.1238,0.0,0.0,0.0,0.0,-3.1011,-3.0704,-3.054,-3.0475,-2.9615,-2.9455,-3.0198,-3.0216,-2.9832,-2.9142,-2.973,-2.9522,-2.8466,-2.8771,-2.8722,-2.8397,-2.7914,-2.7672,-2.7672,-2.7478,-2.7373,-2.7425,-2.7892,-2.8015,-2.7998,-2.8297,-2.8355,-2.8334,-2.8557,-2.8611,-2.8649,0.0,0.0,0.0,0.0,0.0,0.0,0.0,0.0,0.0,0.0,0.0,0.0,0.0,0.0,0.0,0.0,0.0,0.0,0.0,0.0,0.0,0.0,0.0,0.0,0.0,0.0,0.0,0.0,0.0,0.0,0.0,0.0,0.0,0.0,0.0,0.0,0.0,0.0,0.0,0.0,0.0,0.0,0.0,0.0,0.0,0.0,0.0,0.0,0.0,0.0,0.0,0.0,0.0,0.0,0.0,0.0,0.0,0.0,0.0,0.0,0.0,0.0,0.0,0.0,0.0,0.0,0.0,0.0,0.0,0.0,0.0,0.0,0.0,0.0,0.0,0.0,0.0,0.0,0.0,-3.1465,-3.1891,0.0,-3.1799,-3.1546,-3.1482,-3.1585,-3.0984,-3.0854,-3.1374,-3.0499,-3.0325,-3.0995,-3.0409,-3.0337,-3.0837,-3.0074,-2.9972,-3.0453,-2.9779,-2.9259,-2.8905,-2.8621,-2.8102,-2.7509,-2.7569,-2.7509,-2.7425,-2.7992,-2.781,-2.7267,-2.8325,-2.876,-2.8915,-2.9952,-3.017,-2.9926,0.0,0.0,0.0,0.0,0.0,0.0,0.0,0.0,0.0,0.0,0.0,0.0,0.0,0.0,0.0,0.0,0.0,0.0,0.0,0.0,0.0,0.0,0.0,0.0,0.0,0.0,0.0,0.0,0.0,0.0,0.0,0.0,0.0,0.0,0.0,0.0,0.0,0.0,0.0,0.0,0.0,0.0,-2.9741,0.0,0.0,0.0,0.0,0.0,0.0,0.0,0.0,0.0,0.0,0.0,0.0,0.0,0.0,0.0,0.0,0.0,0.0,0.0,0.0,0.0,0.0,0.0,0.0,0.0,0.0,0.0,0.0,0.0,0.0,0.0,0.0,0.0,0.0,0.0,-3.3143,-3.1928,-3.227,-3.227,-3.1473,-3.1401,-3.1327,-3.1139,-3.0859,-3.1027,-3.1787,-3.1176,-3.1,-3.142,-3.1029,-3.0954,-3.1219,-3.0716,-3.0768,-3.1332,-3.0352,-2.9693,-2.9317,-2.876,-2.8119,-2.7509,-2.7642,-2.7612,-2.7513,-2.7797,-2.7466,-2.6911,-2.8367,-2.8904,-2.8986,-3.0162,-3.0408,-3.0035,0.0,0.0,0.0,0.0,0.0,0.0,0.0,0.0,0.0,0.0,0.0,0.0,0.0,0.0,0.0,0.0,0.0,0.0,0.0,0.0,0.0,0.0,0.0,0.0,0.0,0.0,0.0,0.0,0.0,0.0,0.0,0.0,0.0,0.0,0.0,0.0,0.0,0.0,0.0,0.0,0.0,0.0,-2.7989,0.0,0.0,0.0,0.0,0.0,0.0,0.0,0.0,0.0,0.0,0.0,0.0,0.0,0.0,0.0,0.0,0.0,0.0,0.0,0.0,0.0,0.0,0.0,0.0,0.0,0.0,0.0,0.0,0.0,0.0,0.0,0.0,0.0,-3.3189,-3.2932,-3.2408,-3.1229,-3.2444,-3.2451,-3.016,-3.1274,-3.1472,-2.9818,-3.0348,-3.1034,-3.1689,-3.1537,-3.1473,-3.1523,-3.2103,-3.1668,-3.0159,-3.1598,-3.1812,-3.082,-3.0326,-2.9927,-2.9556,-2.8334,-2.7754,-2.7736,-2.7701,-2.7701,-2.7707,-2.7338,-2.71,-2.7011,-2.8395,-2.8664,-2.8357,-2.9029,-2.9154,-2.8876,0.0,0.0,0.0,0.0,0.0,0.0,0.0,0.0,0.0,0.0,0.0,0.0,0.0,0.0,0.0,0.0,0.0,0.0,0.0,0.0,0.0,0.0,0.0,0.0,0.0,0.0,0.0,0.0,0.0,0.0,0.0,0.0,0.0,0.0,0.0,0.0,0.0,0.0,0.0,0.0,0.0,0.0,-2.7865,0.0,0.0,0.0,0.0,0.0,0.0,0.0,0.0,0.0,0.0,0.0,0.0,0.0,0.0,0.0,0.0,0.0,0.0,0.0,0.0,0.0,0.0,0.0,0.0,0.0,0.0,0.0,0.0,0.0,0.0,0.0,0.0,-3.4442,-3.4018,-3.391,-3.3716,-3.3224,-3.292,-3.2721,-3.263,-3.1838,-3.1562,-3.2092,-3.1703,-3.1755,-3.2541,-3.229,-3.219,-3.2287,-3.2368,-3.1914,-3.0914,-3.0791,-3.0845,-3.1077,-3.0425,-2.9959,-2.9693,-2.9505,-2.9029,-2.8262,-2.7887,-2.7987,-2.8434,-2.7722,-2.7181,-2.6876,-2.7325,-2.7677,-2.8051,-2.9021,-2.9345,-2.9179,0.0,0.0,0.0,0.0,0.0,0.0,0.0,0.0,0.0,0.0,0.0,0.0,0.0,0.0,0.0,0.0,0.0,0.0,0.0,0.0,0.0,0.0,0.0,0.0,0.0,0.0,0.0,0.0,0.0,0.0,0.0,0.0,0.0,0.0,0.0,0.0,0.0,0.0,0.0,0.0,0.0,0.0,-2.7837,-2.7025,-2.7527,-2.8666,-2.8384,-2.8987,-2.9966,-3.0147,0.0,0.0,0.0,0.0,0.0,0.0,0.0,0.0,0.0,0.0,0.0,0.0,0.0,0.0,0.0,0.0,0.0,0.0,0.0,0.0,0.0,0.0,0.0,0.0,-3.4602,-3.4561,-3.445,-3.434,-3.4221,-3.4023,-3.3471,-3.3146,-3.3195,-3.2238,-3.1783,-3.2121,-3.193,-3.1934,-3.2303,-3.2413,-3.2348,-3.2029,-3.2263,-3.1861,-3.0756,-3.0615,-3.0615,-3.0738,-2.9966,-2.9534,-2.9356,-2.9534,-2.9239,0.0,-2.8693,-2.8741,-2.8767,-2.8237,-2.7636,0.0,0.0,0.0,0.0,0.0,-2.8437,-2.822,0.0,0.0,0.0,0.0,0.0,0.0,0.0,0.0,0.0,0.0,0.0,0.0,0.0,0.0,0.0,0.0,0.0,0.0,0.0,0.0,0.0,0.0,0.0,0.0,0.0,0.0,0.0,0.0,0.0,0.0,0.0,0.0,0.0,0.0,0.0,0.0,0.0,0.0,0.0,0.0,0.0,0.0,-2.8038,-2.7179,-2.7363,-2.7942,-2.7155,-2.8383,-3.0308,-2.9528,0.0,0.0,0.0,0.0,0.0,0.0,0.0,0.0,0.0,0.0,0.0,0.0,0.0,0.0,0.0,0.0,0.0,0.0,0.0,0.0,0.0,0.0,0.0,0.0,-3.4602,-3.4602,-3.4602,-3.445,-3.4269,-3.4099,-3.3975,-3.3585,-3.2779,-3.2606,-3.2137,-3.1199,-3.1719,-3.1966,-3.1693,0.0,0.0,0.0,0.0,-3.1668,-3.0124,-3.0756,-3.0703,-2.9966,-2.9246,-2.8895,-2.8895,-2.9,-2.9035,-2.907,-2.979,-2.9674,-2.9015,-2.8781,-2.8132,-2.7302,-2.7226,-2.7054,-2.6877,-2.7171,-2.7124,0.0,0.0,0.0,0.0,0.0,0.0,0.0,0.0,0.0,0.0,0.0,0.0,0.0,0.0,0.0,0.0,0.0,0.0,0.0,0.0,0.0,0.0,0.0,0.0,0.0,0.0,0.0,0.0,0.0,0.0,0.0,0.0,0.0,0.0,0.0,0.0,0.0,0.0,0.0,0.0,0.0,0.0,0.0,-2.8868,-2.8117,-2.833,-2.8912,-2.8119,-2.8198,-2.8652,-2.8493,-2.8235,-2.8202,-2.9453,0.0,0.0,0.0,0.0,0.0,0.0,0.0,0.0,0.0,0.0,0.0,0.0,0.0,0.0,0.0,0.0,0.0,0.0,0.0,0.0,-3.4649,-3.4602,-3.4602,-3.4602,-3.458,-3.4517,-3.4495,-3.3784,-3.3445,-3.3918,-3.3216,-3.2856,-3.3104,-3.3128,-3.3027,-3.2791,-3.2681,0.0,-3.2343,-3.2369,-3.1668,-3.0124,-3.0246,-2.993,-2.9141,0.0,0.0,-2.893,-2.9579,-2.9878,-2.9878,-2.9937,-3.0136,-3.0384,-2.9084,-2.7872,-2.6859,-2.7161,-2.7419,-2.7572,-2.736,-2.7629,-2.7977,0.0,0.0,0.0,0.0,0.0,0.0,0.0,0.0,0.0,0.0,0.0,0.0,0.0,0.0,0.0,0.0,0.0,0.0,0.0,0.0,0.0,0.0,0.0,0.0,0.0,0.0,0.0,0.0,0.0,0.0,0.0,0.0,0.0,0.0,0.0,0.0,0.0,0.0,0.0,0.0,0.0,0.0,-3.0367,-2.9593,-2.9295,-2.9135,-2.7887,-2.7775,-2.8122,-2.7696,-2.7579,-2.7769,-2.8652,-2.9258,-2.9687,0.0,0.0,0.0,0.0,0.0,0.0,0.0,0.0,0.0,0.0,0.0,0.0,0.0,0.0,-3.5608,0.0,0.0,-3.5013,-3.4792,-3.4668,-3.4602,-3.4602,-3.4602,-3.4602,-3.4602,-3.4161,-3.396,-3.4279,-3.3849,-3.363,-3.385,-3.3734,-3.3578,-3.3415,-3.3068,-3.2798,-3.2702,-3.2102,-3.1247,-3.0124,-2.9702,-2.9299,-2.8895,-2.8491,-2.8509,-2.893,-2.9737,-3.0106,-3.0141,-3.0863,-3.106,-3.0767,-2.914,-2.8096,-2.7536,-2.7373,-2.7295,-2.7267,-2.7274,-2.7523,-2.7799,0.0,0.0,0.0,0.0,0.0,0.0,0.0,0.0,0.0,0.0,0.0,0.0,0.0,0.0,0.0,0.0,0.0,0.0,0.0,0.0,0.0,0.0,0.0,0.0,0.0,0.0,0.0,0.0,0.0,0.0,0.0,0.0,0.0,0.0,0.0,0.0,0.0,0.0,0.0,0.0,0.0,0.0,-3.1857,-3.0871,-2.9989,-2.907,-2.7414,-2.7308,-2.7819,-2.6969,-2.7251,-2.7977,-2.8027,-2.8769,-2.9609,-2.9609,-3.0215,0.0,0.0,0.0,0.0,0.0,0.0,0.0,0.0,0.0,-3.4399,-3.4399,-3.5095,-3.5643,-3.5451,-3.5273,-3.5098,-3.4926,-3.4771,-3.4647,-3.4623,-3.4602,-3.4602,-3.4602,-3.4602,-3.4539,-3.4363,-3.434,-3.4269,-3.4074,-3.3998,-3.3921,-3.378,-3.3408,-3.3142,-3.2983,-3.1937,-3.0988,-3.0184,-2.9374,-2.8868,-2.8667,-2.7999,-2.8035,-2.8684,-2.9509,-2.9948,-3.0144,-3.1653,-3.1655,-3.0559,-2.9332,-2.8661,-2.8334,-2.7747,-2.7328,-2.7029,-2.7238,-2.7299,-2.7282,0.0,0.0,0.0,0.0,0.0,0.0,0.0,0.0,0.0,0.0,0.0,0.0,0.0,0.0,0.0,0.0,0.0,0.0,0.0,0.0,0.0,0.0,0.0,0.0,0.0,0.0,0.0,0.0,0.0,0.0,0.0,0.0,0.0,0.0,0.0,0.0,0.0,0.0,0.0,0.0,0.0,0.0,-3.2675,-3.1105,-2.9999,-2.9094,-2.7459,-2.6968,-2.6915,-2.6117,-2.64,-2.7148,-2.7148,-2.8262,-2.9609,-2.9609,0.0,-3.0898,-3.0898,-3.0898,-3.1093,-3.1901,-3.2046,-3.2016,0.0,0.0,-3.441,-3.441,-3.5088,-3.5646,-3.5451,-3.5378,-3.5258,-3.4945,-3.4889,-3.4792,-3.4645,-3.4602,-3.4602,-3.4602,-3.4602,-3.4583,-3.4561,-3.458,-3.4495,-3.4269,-3.4269,-3.4173,-3.3972,-3.3734,-3.3615,-3.3597,-3.256,-3.1487,-3.0463,-2.965,-2.8776,-2.7824,-2.7736,-2.7736,-2.7859,-2.8667,-2.9372,-2.9994,-3.1342,-3.108,-2.9713,-3.0213,-2.9627,-2.8385,-2.8316,-2.8232,-2.8163,-2.7523,-2.7299,-2.725,0.0,0.0,0.0,0.0,0.0,0.0,0.0,0.0,0.0,0.0,0.0,0.0,0.0,0.0,0.0,0.0,0.0,0.0,0.0,0.0,0.0,0.0,0.0,0.0,0.0,0.0,0.0,0.0,0.0,0.0,0.0,0.0,0.0,0.0,0.0,0.0,0.0,0.0,0.0,0.0,0.0,0.0,-3.2018,-3.0378,-2.8898,-2.7727,-2.7676,-2.7335,0.0,0.0,-2.7127,-2.709,-2.7598,-2.8594,-2.9492,-2.8984,-2.9824,0.0,-3.0898,-3.0527,0.0,0.0,-3.2413,-3.2265,-3.3282,-3.3569,-3.379,-3.4294,-3.469,-3.5076,-3.5496,-3.5489,-3.5364,0.0,-3.5083,-3.498,-3.4907,-3.4812,-3.4771,-3.4771,-3.4668,-3.4602,-3.4602,-3.4602,-3.458,-3.4473,-3.445,-3.4363,-3.4293,-3.4023,-3.386,-3.3834,-3.2589,-3.1779,-3.1495,-3.0332,-2.9632,-2.9319,-2.8687,-2.8403,-2.8421,-2.9228,-3.0199,-3.1288,-3.202,-3.1533,-3.03,-3.0802,-3.0508,-2.9644,-2.8747,-2.8904,-2.9506,-2.8352,-2.7887,-2.7822,0.0,0.0,0.0,0.0,0.0,0.0,0.0,0.0,0.0,0.0,0.0,0.0,0.0,0.0,0.0,0.0,0.0,0.0,0.0,0.0,0.0,0.0,0.0,0.0,0.0,0.0,0.0,0.0,0.0,0.0,0.0,0.0,0.0,0.0,0.0,0.0,0.0,0.0,0.0,0.0,0.0,0.0,-3.1066,-2.919,-2.7845,-2.6998,-2.7368,-2.709,0.0,0.0,-2.7324,-2.7109,-2.7734,-2.8535,-2.916,-2.8769,-2.9551,-3.0547,-3.0547,0.0,0.0,-3.2754,-3.2704,-3.2413,-3.3938,-3.3699,-3.3324,-3.3934,-3.4061,-3.4255,-3.4875,-3.506,-3.5111,-3.5091,-3.5134,-3.5162,-3.5114,-3.5015,-3.4945,-3.4889,-3.4771,-3.4647,-3.4623,-3.4602,-3.4602,-3.4602,-3.4561,-3.4517,-3.4517,-3.4269,-3.4099,-3.4049,-3.2794,-3.2182,-3.2311,-3.1081,-3.0511,-3.0632,-2.9864,-2.9479,-2.9515,-3.0251,-3.1147,-3.2087,-3.25,-3.2029,-3.1077,-3.1372,-3.1253,-3.0699,-2.9506,-2.9627,-3.0364,-2.9128,-2.8595,-2.8442,0.0,0.0,0.0,0.0,0.0,0.0,0.0,0.0,0.0,0.0,0.0,0.0,0.0,0.0,0.0,0.0,0.0,0.0,0.0,0.0,0.0,0.0,0.0,0.0,0.0,0.0,0.0,0.0,0.0,0.0,0.0,0.0,0.0,0.0,0.0,0.0,0.0,0.0,0.0,0.0,0.0,0.0,-3.0148,-2.764,-2.716,-2.7663,-2.6196,0.0,0.0,0.0,-2.6328,-2.6992,-2.7031,-2.7637,0.0,-2.9316,-2.9609,0.0,0.0,0.0,-3.0214,-3.2753,-3.2733,-3.2334,-3.3238,-3.3363,-3.327,-3.3245,-3.3235,-3.3225,-3.319,-3.3858,-3.4397,-3.4263,-3.4885,-3.5316,-3.513,-3.5098,-3.5049,-3.4908,-3.4889,-3.4792,0.0,-3.4602,-3.4602,-3.4602,-3.4602,-3.4602,-3.4602,-3.4473,-3.4404,-3.4386,-3.3464,-3.2852,-3.2592,-3.1776,-3.1221,-3.0966,-3.0948,-3.0948,-3.0966,-3.1585,-3.1817,-3.1834,-3.2505,-3.2367,-3.1706,-3.2102,-3.1861,-3.1161,-3.0768,-3.0573,-3.0415,-2.9661,-2.9282,-2.9074,0.0,0.0,0.0,0.0,0.0,0.0,0.0,0.0,0.0,0.0,0.0,0.0,0.0,0.0,0.0,0.0,0.0,0.0,0.0,0.0,0.0,0.0,0.0,0.0,0.0,0.0,0.0,0.0,0.0,0.0,0.0,0.0,0.0,0.0,0.0,0.0,0.0,0.0,0.0,0.0,0.0,0.0,-2.8466,-2.7056,-2.6732,-2.6907,0.0,0.0,0.0,0.0,0.0,0.0,-2.8047,0.0,0.0,-2.8828,0.0,0.0,0.0,0.0,-3.0073,-3.2049,-3.2324,-3.2319,-3.3159,-3.2862,-3.2601,-3.3153,-3.2772,-3.2504,-3.305,-3.3412,-3.3781,-3.4302,-3.464,-3.4966,-3.5434,-3.5374,-3.5278,-3.5254,-3.5114,0.0,0.0,0.0,0.0,-3.4602,-3.4602,-3.4602,-3.4602,-3.4517,-3.445,-3.4386,-3.3889,-3.3617,-3.3673,-3.3012,-3.2456,-3.2059,-3.1328,-3.1211,-3.1681,-3.1867,-3.2211,-3.2629,-3.3082,-3.2937,-3.2438,-3.2577,-3.2345,-3.1828,-3.0923,-3.0955,-3.1304,-2.9761,-2.9879,-3.0638,0.0,0.0,0.0,0.0,0.0,0.0,0.0,0.0,0.0,0.0,0.0,0.0,0.0,0.0,0.0,0.0,0.0,0.0,0.0,0.0,0.0,0.0,0.0,0.0,0.0,0.0,0.0,0.0,0.0,0.0,0.0,0.0,0.0,0.0,0.0,0.0,0.0,0.0,0.0,0.0,0.0,0.0,-2.7211,-2.6981,-2.7113,0.0,0.0,0.0,0.0,0.0,0.0,0.0,0.0,0.0,0.0,0.0,0.0,0.0,0.0,-2.9605,-2.999,-3.1675,-3.2108,-3.2246,-3.2754,-3.2435,-3.2104,-3.2354,-3.1924,-3.1665,-3.2201,-3.2822,-3.3316,-3.3569,-3.435,-3.5001,-3.5243,-3.5414,-3.55,-3.5432,-3.5325,-3.5209,0.0,0.0,0.0,-3.4773,-3.4773,-3.4772,-3.471,-3.4628,-3.4542,-3.445,-3.4197,-3.4124,-3.4221,-3.3858,-3.3495,-3.316,-3.2449,-3.231,-3.2721,-3.2693,-3.2918,-3.3309,-3.3502,-3.3426,-3.3136,-3.3032,-3.2844,-3.2517,-3.1637,-3.162,-3.1952,-3.0298,-3.0381,-3.1091,0.0,0.0,0.0,0.0,0.0,0.0,0.0,0.0,0.0,0.0,0.0,0.0,0.0,0.0,0.0,0.0,0.0,0.0,0.0,0.0,0.0,0.0,0.0,0.0,0.0,0.0,0.0,0.0,0.0,0.0,0.0,0.0,0.0,0.0,0.0,0.0,0.0,0.0,0.0,0.0,0.0,0.0,-2.653,-2.7279,0.0,0.0,0.0,0.0,0.0,0.0,0.0,0.0,0.0,0.0,0.0,0.0,0.0,-2.9599,-2.9599,-2.9638,-3.0046,-3.1647,-3.2038,-3.2038,-3.2034,-3.2026,-3.1797,-3.0975,-3.0793,-3.0782,0.0,0.0,-3.2925,-3.2186,-3.4039,-3.5349,-3.4671,-3.5224,-3.5649,0.0,0.0,0.0,0.0,0.0,0.0,-3.5146,0.0,-3.503,-3.4908,-3.4851,-3.4713,-3.4539,-3.4431,-3.4386,-3.4316,-3.4293,-3.4269,-3.4197,-3.4124,-3.4074,-3.3998,-3.3921,-3.3868,-3.3807,-3.3807,-3.3807,-3.3762,-3.3437,-3.3262,-3.316,-3.283,-3.2603,-3.2297,-3.1185,-3.0733,-3.0559,0.0,0.0,0.0,0.0,0.0,0.0,0.0,0.0,0.0,0.0,0.0,0.0,0.0,0.0,0.0,0.0,0.0,0.0,0.0,0.0,0.0,0.0,0.0,0.0,0.0,0.0,0.0,0.0,0.0,0.0,0.0,0.0,0.0,0.0,0.0,0.0,0.0,0.0,0.0,0.0,0.0,0.0,-2.6897,0.0,0.0,0.0,0.0,0.0,0.0,0.0,0.0,0.0,0.0,0.0,-2.8839,0.0,0.0,-2.9599,-2.9602,-3.0048,-3.0609,-3.1081,-3.1177,-3.1133,-3.1133,-3.1138,-3.1067,-3.0859,-3.08,-3.0797,0.0,0.0,0.0,-3.2794,-3.3492,0.0,-3.5386,-3.5671,0.0,-3.5737,0.0,-3.5629,-3.5577,-3.5574,0.0,0.0,-3.5268,-3.5081,-3.5047,-3.4996,-3.4925,-3.487,-3.4653,-3.4545,-3.4517,-3.4316,-3.4221,-3.4197,-3.4124,-3.4074,-3.3998,-3.3921,-3.3868,-3.3807,-3.3807,-3.3807,-3.3762,-3.3437,-3.3262,-3.316,-3.2784,-3.2719,-3.2677,-3.1167,-3.1255,-3.1897,0.0,0.0,0.0,0.0,0.0,0.0,0.0,0.0,0.0,0.0,0.0,0.0,0.0,0.0,0.0,0.0,0.0,0.0,0.0,0.0,0.0,0.0,0.0,0.0,0.0,0.0,0.0,0.0,0.0,0.0,0.0,0.0,0.0,0.0,0.0,0.0,0.0,0.0,0.0,0.0,0.0,0.0,0.0,0.0,0.0,0.0,0.0,0.0,0.0,0.0,0.0,-2.9199,-2.9396,-2.9425,-2.9286,-2.8931,0.0,-3.0121,-3.0125,-3.047,-3.0813,-3.0841,-3.0838,-3.0794,-3.0796,-3.0796,-3.0801,-3.0793,-3.0796,0.0,0.0,0.0,0.0,0.0,0.0,0.0,-3.4675,-3.5382,-3.584,0.0,-3.5806,0.0,-3.5749,-3.5736,-3.5728,0.0,-3.5489,-3.5316,-3.5243,-3.5209,-3.513,-3.5051,-3.4888,-3.4813,-3.4792,-3.4588,-3.4502,-3.4502,-3.4413,-3.4325,-3.4302,-3.4105,-3.3998,-3.3972,0.0,-3.3753,-3.3753,-3.3512,-3.3397,-3.3298,-3.3086,-3.3024,-3.2921,-3.1859,-3.1898,-3.2334,0.0,0.0,0.0,0.0,0.0,0.0,0.0,0.0,0.0,0.0,0.0,0.0,0.0,0.0,0.0,0.0,0.0,0.0,0.0,0.0,0.0,0.0,0.0,0.0,0.0,0.0,0.0,0.0,0.0,0.0,0.0,0.0,0.0,0.0,0.0,0.0,0.0,0.0,0.0,0.0,0.0,0.0,0.0,0.0,0.0,0.0,0.0,0.0,0.0,0.0,-3.021,-3.0338,-2.9676,-3.0011,-3.0536,-2.9835,-3.017,-3.0758,-3.0758,-3.0774,-3.0794,-3.0781,-3.0781,-3.0801,-3.0807,-3.0791,-3.0791,-3.0791,0.0,-3.0799,-3.0799,-3.142,-3.1718,-3.1073,0.0,-3.422,-3.3578,-3.4783,-3.5776,-3.5893,-3.5806,-3.5758,-3.5805,-3.5806,-3.5743,-3.5563,-3.565,-3.5626,-3.5451,-3.5451,-3.5336,-3.5119,-3.5133,-3.5081,-3.498,-3.4926,-3.4889,-3.4908,-3.4773,-3.4694,-3.4674,-3.439,-3.4227,-3.4227,0.0,0.0,-3.378,-3.3671,-3.3605,-3.352,-3.3491,-3.3345,-3.3055,-3.2719,-3.2488,-3.2283,0.0,0.0,0.0,0.0,0.0,0.0,0.0,0.0,0.0,0.0,0.0,0.0,0.0,0.0,0.0,0.0,0.0,0.0,0.0,0.0,0.0,0.0,0.0,0.0,0.0,0.0,0.0,0.0,0.0,0.0,0.0,0.0,0.0,0.0,0.0,0.0,0.0,0.0,0.0,0.0,0.0,0.0,0.0,0.0,0.0,0.0,0.0,0.0,0.0,0.0,-2.9927,-3.0334,-3.0306,-3.0405,-3.0513,-3.0377,-3.0423,-3.0547,-3.0547,-3.0626,-3.072,-3.072,-3.0754,-3.0798,-3.0801,-3.0801,0.0,0.0,0.0,-3.0804,-3.0804,-3.0924,0.0,-3.1775,0.0,0.0,0.0,0.0,-3.5093,0.0,0.0,0.0,0.0,0.0,0.0,0.0,0.0,-3.5733,-3.5654,-3.5662,-3.5521,-3.5268,-3.5262,-3.5152,-3.4925,-3.4925,-3.4908,-3.4908,-3.4773,-3.4694,-3.4694,-3.4526,-3.4442,-3.4442,0.0,0.0,-3.4245,-3.3972,-3.3807,-3.3726,-3.3549,-3.3345,-3.3055,-3.2719,-3.2573,-3.2506,0.0,0.0,0.0,0.0,0.0,0.0,0.0,0.0,0.0,0.0,0.0,0.0,0.0,0.0,0.0,0.0,0.0,0.0,0.0,0.0,0.0,0.0,0.0,0.0,0.0,0.0,0.0,0.0,0.0,0.0,0.0,0.0,0.0,0.0,0.0,0.0,0.0,0.0,0.0,0.0,0.0,0.0,0.0,0.0,0.0,0.0,0.0,0.0,0.0,0.0,-2.9514,-2.9935,-3.0164,-3.0256,-3.0314,-3.0375,-3.0414,-3.0442,-3.0442,-3.0496,-3.0548,-3.0537,-3.062,-3.0706,-3.073,0.0,0.0,0.0,0.0,-3.0798,-3.0798,0.0,0.0,0.0,0.0,0.0,0.0,0.0,0.0,0.0,0.0,0.0,0.0,0.0,0.0,0.0,0.0,-3.4481,-3.4455,-3.4806,-3.5173,-3.5502,-3.5443,-3.5355,-3.5262,-3.5235,-3.5223,-3.5209,-3.5088,-3.4997,-3.5016,-3.4793,-3.4713,-3.4694,-3.4435,0.0,-3.4316,-3.3947,-3.3707,-3.3578,-3.3386,-3.3117,-3.2781,-3.2211,-3.2203,-3.2317,0.0,0.0,0.0,0.0,0.0,0.0,0.0,0.0,0.0,0.0,0.0,0.0,0.0,0.0,0.0,0.0,0.0,0.0,0.0,0.0,0.0,0.0,0.0,0.0,0.0,0.0,0.0,0.0,0.0,0.0,0.0,0.0,0.0,0.0,0.0,0.0,0.0,0.0,0.0,0.0,0.0,0.0,0.0,0.0,0.0,0.0,0.0,0.0,0.0,0.0,-2.8791,-2.9078,-2.9513,-2.9826,-3.0037,-3.0138,-3.0227,-3.0267,-3.0267,-3.0271,-3.0293,-3.0325,-3.0433,-3.0529,-3.063,-3.0678,0.0,0.0,-3.0735,-3.075,-3.075,0.0,0.0,0.0,0.0,0.0,0.0,0.0,0.0,0.0,0.0,0.0,0.0,0.0,0.0,0.0,0.0,0.0,-3.3541,-3.4127,-3.4833,-3.5689,-3.5626,-3.5581,-3.5608,-3.5547,-3.5515,-3.5493,-3.5364,-3.5315,-3.5281,-3.507,-3.4964,-3.4927,-3.4586,0.0,0.0,-3.3998,-3.3625,-3.3305,-3.3085,-3.2709,-3.2197,-3.1609,-3.1611,-3.1825,0.0,0.0,0.0,0.0,0.0,0.0,0.0,0.0,0.0,0.0,0.0,0.0,0.0,0.0,0.0,0.0,0.0,0.0,0.0,0.0,0.0,0.0,0.0,0.0,0.0,0.0,0.0,0.0,0.0,0.0,0.0,0.0,0.0,0.0,0.0,0.0,0.0,0.0,0.0,0.0,0.0,0.0,0.0,0.0,0.0,0.0,0.0,0.0,0.0,0.0,0.0,-2.755,-2.8318,-2.914,-2.9823,-2.9769,0.0,0.0,-2.9874,-2.9912,-2.999,-3.0098,-3.0177,-3.0274,-3.0404,0.0,0.0,-3.0443,-3.0481,-3.0532,-3.0532,-3.0532,0.0,0.0,0.0,0.0,0.0,0.0,0.0,0.0,0.0,0.0,0.0,0.0,0.0,0.0,0.0,0.0,-3.4272,-3.4514,-3.495,-3.5775,-3.5788,-3.5718,-3.56,-3.559,-3.5562,-3.5493,-3.5364,-3.5315,-3.53,-3.5207,-3.5143,-3.5075,-3.4908,0.0,0.0,-3.4404,-3.377,-3.303,-3.2808,-3.2072,-3.1129,-3.1057,-3.0972,-3.0921,0.0,0.0,0.0,0.0,0.0,0.0,0.0,0.0,0.0,0.0,0.0,0.0,0.0,0.0,0.0,0.0,0.0,0.0,0.0,0.0,0.0,0.0,0.0,0.0,0.0,0.0,0.0,0.0,0.0,0.0,0.0,0.0,0.0,0.0,0.0,0.0,0.0,0.0,0.0,0.0,0.0,0.0,0.0,0.0,0.0,0.0,0.0,0.0,0.0,0.0,0.0,0.0,-2.7272,-2.8051,0.0,0.0,-2.9532,-2.9626,-2.9664,-2.9698,-2.9729,-2.9834,-2.995,-3.0021,-3.0087,0.0,0.0,-3.0225,-3.0229,-3.0274,-3.0306,-3.0285,-3.0304,0.0,0.0,0.0,0.0,0.0,0.0,0.0,0.0,0.0,0.0,0.0,0.0,0.0,0.0,0.0,-3.298,-3.308,-3.3462,-3.4275,-3.4763,-3.4989,-3.4936,-3.5427,-3.5639,-3.5623,-3.5438,-3.5369,-3.5369,-3.533,-3.5289,-3.5207,-3.5149,0.0,0.0,-3.396,-3.3229,-3.2328,-3.2108,-3.1905,-3.1601,-3.062,-3.0721,-3.1267,0.0,0.0,0.0,0.0,0.0,0.0,0.0,0.0,0.0,0.0,0.0,0.0,0.0,0.0,0.0,0.0,0.0,0.0,0.0,0.0,0.0,0.0,0.0,0.0,0.0,0.0,0.0,0.0,0.0,0.0,0.0,0.0,0.0,0.0,0.0,0.0,0.0,0.0,0.0,0.0,0.0,0.0,0.0,0.0,0.0,0.0,0.0,0.0,0.0,0.0,0.0,0.0,0.0,0.0,0.0,0.0,-2.9126,-2.9351,-2.9291,-2.9355,-2.9455,-2.9532,-2.9642,-2.9742,0.0,0.0,-2.9975,-2.999,-2.9999,-3.0027,-3.0062,-3.0035,-3.0054,0.0,0.0,-3.0145,0.0,0.0,0.0,0.0,0.0,0.0,0.0,0.0,0.0,0.0,0.0,0.0,0.0,-3.1698,-3.2219,-3.329,-3.3877,-3.4286,-3.4536,-3.4843,-3.5096,-3.5321,-3.5152,-3.4931,-3.4706,-3.4936,-3.4861,-3.4515,0.0,0.0,0.0,-3.2664,-3.2014,-3.1298,-3.116,-3.1236,-3.1292,-3.0155,-3.0268,-3.0946,0.0,0.0,0.0,0.0,0.0,0.0,0.0,0.0,0.0,0.0,0.0,0.0,0.0,0.0,0.0,0.0,0.0,0.0,0.0,0.0,0.0,0.0,0.0,0.0,0.0,0.0,0.0,0.0,0.0,0.0,0.0,0.0,0.0,0.0,0.0,0.0,0.0,0.0,0.0,0.0,0.0,0.0,0.0,0.0,0.0,0.0,0.0,0.0,0.0,0.0,0.0,0.0,0.0,0.0,0.0,0.0,-2.8489,-2.891,-2.8597,-2.8785,-2.9134,-2.9206,-2.9251,-2.9373,0.0,0.0,-2.9626,-2.9683,-2.9753,-2.9801,-2.9801,-2.9801,-2.9817,-2.9902,0.0,0.0,0.0,0.0,0.0,0.0,0.0,0.0,0.0,0.0,0.0,0.0,0.0,0.0,0.0,-3.0778,-3.1606,-3.3338,-3.3417,-3.3795,-3.4599,-3.3749,-3.3692,-3.4409,-3.4339,-3.3859,-3.3053,-3.3846,-3.3673,0.0,0.0,0.0,0.0,-3.0383,-2.9994,-2.9929,-2.9929,-2.9792,-2.9625,-2.9607,-2.9468,-2.945,0.0,0.0,0.0,0.0,0.0,0.0,0.0,0.0,0.0,0.0,0.0,0.0,0.0,0.0,0.0,0.0,0.0,0.0,0.0,0.0,0.0,0.0,0.0,0.0,0.0,0.0,0.0,0.0,0.0,0.0,0.0,0.0,0.0,0.0,0.0,0.0,0.0,0.0,0.0,0.0,0.0,0.0,0.0,0.0,0.0,0.0,0.0,0.0,0.0,0.0,0.0,0.0,0.0,0.0,0.0,0.0,0.0,0.0,-2.8148,-2.8246,-2.835,-2.8373,-2.8467,-2.8554,-2.8646,0.0,-2.8724,-2.8748,-2.8915,-2.9092,-2.9217,-2.9375,-2.9531,-2.9737,-2.97,0.0,0.0,0.0,0.0,0.0,0.0,0.0,0.0,0.0,0.0,0.0,0.0,0.0,0.0,-3.0645,-3.094,-3.1532,-3.2172,-3.2634,-3.2889,-3.3155,-3.3141,-3.2835,-3.3262,-3.3048,-3.2276,-3.3138,0.0,0.0,0.0,0.0,0.0,-3.0388,-2.9922,-2.941,-2.9958,-3.0399,-3.0625,-3.0073,-3.0072,-3.0337,0.0,0.0,0.0,0.0,0.0,0.0,0.0,0.0,0.0,0.0,0.0,0.0,0.0,0.0,0.0,0.0,0.0,0.0,0.0,0.0,0.0,0.0,0.0,0.0,0.0,0.0,0.0,0.0,0.0,0.0,0.0,0.0,0.0,0.0,0.0,0.0,0.0,0.0,0.0,0.0,0.0,0.0,0.0,0.0,0.0,0.0,0.0,0.0,0.0,0.0,0.0,0.0,0.0,0.0,0.0,0.0,0.0,0.0,0.0,-2.7701,-2.7816,-2.7837,-2.7939,0.0,0.0,0.0,0.0,-2.8201,-2.8314,-2.8492,-2.8652,-2.8785,-2.8943,-2.9148,-2.9086,0.0,0.0,0.0,0.0,0.0,0.0,0.0,0.0,0.0,0.0,0.0,0.0,0.0,0.0,-3.0505,-3.0552,-3.062,-3.1237,-3.173,-3.2057,-3.2264,-3.2272,-3.2116,-3.2528,-3.2263,-3.1476,-3.2341,0.0,0.0,0.0,0.0,0.0,-2.8991,-2.8844,-2.8683,-2.9517,-3.0234,-3.0708,-3.0228,-3.0411,-3.0866,0.0,0.0,0.0,0.0,0.0,0.0,0.0,0.0,0.0,0.0,0.0,0.0,0.0,0.0,0.0,0.0,0.0,0.0,0.0,0.0,0.0,0.0,0.0,0.0,0.0,0.0,0.0,0.0,0.0,0.0,0.0,0.0,0.0,0.0,0.0,0.0,0.0,0.0,0.0,0.0,0.0,0.0,0.0,0.0,0.0,0.0,0.0,0.0,0.0,0.0,0.0,0.0,0.0,0.0,0.0,0.0,0.0,0.0,0.0,0.0,0.0,0.0,0.0,0.0,0.0,0.0,0.0,0.0,0.0,-2.7976,-2.8112,-2.8156,-2.8192,-2.8272,-2.8298,0.0,0.0,0.0,0.0,0.0,0.0,0.0,0.0,0.0,0.0,0.0,0.0,0.0,0.0,-3.0448,-3.0554,-3.0621,-3.0768,-3.1183,-3.189,-3.1164,-3.1172,-3.1913,-3.2036,-3.1565,-3.065,-3.1573,0.0,0.0,0.0,0.0,0.0,-2.6889,-2.7297,-2.7995,-2.8848,-2.959,-3.0138,-3.0195,-3.062,-3.1056,0.0,0.0,0.0,0.0,0.0,0.0,0.0,0.0,0.0,0.0,0.0,0.0,0.0,0.0,0.0,0.0,0.0,0.0,0.0,0.0,0.0,0.0,0.0,0.0,0.0,0.0,0.0,0.0,0.0,0.0,0.0,0.0,0.0,0.0,0.0,0.0,0.0,0.0,0.0,0.0,0.0,0.0,0.0,0.0,0.0,0.0,-2.2831,0.0,0.0,0.0,0.0,0.0,0.0,0.0,0.0,0.0,0.0,0.0,0.0,0.0,0.0,0.0,0.0,0.0,0.0,0.0,0.0,0.0,0.0,0.0,0.0,0.0,0.0,0.0,0.0,0.0,0.0,0.0,0.0,0.0,0.0,0.0,0.0,0.0,0.0,0.0,0.0,0.0,0.0,-3.1239,-3.1703,-3.1722,-3.1996,-3.1767,-3.0936,-3.0782,-3.0523,-3.0129,-3.1406,-3.1246,-2.983,-3.1381,0.0,0.0,0.0,0.0,-2.8623,-2.8679,-2.8767,-2.8965,-2.9883,-3.0337,-3.0546,-3.1163,-3.1493,-3.1678,0.0,0.0,0.0,0.0,0.0,0.0,0.0,0.0,0.0,0.0,0.0,0.0,0.0,0.0,0.0,0.0,0.0,0.0,0.0,0.0,0.0,0.0,0.0,0.0,0.0,0.0,0.0,0.0,0.0,0.0,0.0,0.0,0.0,0.0,0.0,0.0,0.0,0.0,0.0,0.0,0.0,0.0,0.0,0.0,0.0,0.0,-2.2437,-2.2325,0.0,-2.2328,-2.2649,-2.3024,0.0,0.0,0.0,0.0,-2.4918,0.0,0.0,0.0,0.0,0.0,0.0,0.0,0.0,0.0,0.0,0.0,0.0,0.0,0.0,0.0,0.0,0.0,0.0,0.0,0.0,0.0,0.0,0.0,0.0,0.0,0.0,0.0,0.0,0.0,0.0,0.0,0.0,-3.1359,-3.1792,-3.1815,-3.2272,-3.2023,-3.1014,-3.153,-3.1421,-3.0669,-3.1973,-3.2145,-3.1308,-3.1853,-3.1602,0.0,0.0,0.0,-2.8764,-2.9555,-2.9889,-2.9967,-3.1241,-3.1743,-3.1801,-3.2275,-3.2663,-3.2964,0.0,0.0,0.0,0.0,0.0,0.0,0.0,0.0,0.0,0.0,0.0,0.0,0.0,0.0,0.0,0.0,0.0,0.0,0.0,0.0,0.0,0.0,0.0,0.0,0.0,0.0,0.0,0.0,0.0,0.0,0.0,0.0,0.0,0.0,0.0,0.0,0.0,0.0,0.0,0.0,0.0,0.0,0.0,0.0,0.0,0.0,0.0,0.0,0.0,-2.1955,-2.2374,-2.2754,-2.2709,0.0,0.0,0.0,0.0,0.0,0.0,0.0,0.0,0.0,0.0,0.0,0.0,0.0,0.0,0.0,0.0,0.0,0.0,0.0,0.0,0.0,0.0,0.0,0.0,0.0,0.0,0.0,0.0,0.0,0.0,0.0,0.0,0.0,0.0,0.0,0.0,-3.1101,-3.1426,-3.147,-3.1511,-3.126,-3.0705,-3.2316,-3.2796,-3.2189,-3.3072,-3.3459,-3.3355,-3.2762,-3.2014,0.0,0.0,0.0,-2.8994,-3.0445,-3.1028,-3.1149,-3.2571,-3.3122,-3.3024,-3.2264,-3.2385,-3.2703,0.0,0.0,0.0,0.0,0.0,0.0,0.0,0.0,0.0,0.0,0.0,0.0,0.0,0.0,0.0,0.0,0.0,0.0,0.0,0.0,0.0,0.0,0.0,0.0,0.0,0.0,0.0,0.0,0.0,0.0,0.0,0.0,0.0,0.0,0.0,0.0,0.0,0.0,0.0,0.0,0.0,0.0,0.0,0.0,0.0,0.0,0.0,0.0,0.0,-2.0885,-2.1131,-2.1361,-2.1698,0.0,0.0,0.0,0.0,0.0,0.0,0.0,0.0,0.0,0.0,0.0,0.0,0.0,0.0,0.0,0.0,0.0,0.0,0.0,0.0,0.0,0.0,0.0,0.0,0.0,0.0,0.0,0.0,0.0,0.0,0.0,0.0,0.0,0.0,0.0,0.0,0.0,-3.1411,-3.1411,-2.8915,-2.7437,-2.7114,-3.1156,-3.3106,-3.294,-3.3938,-3.4015,-3.3338,-3.3999,-3.3832,0.0,0.0,-3.2687,-3.2522,-3.2849,-3.2908,-3.2834,-3.3147,-3.323,-3.2629,-2.8104,-2.654,-2.5923,0.0,0.0,0.0,0.0,0.0,0.0,0.0,0.0,0.0,0.0,0.0,0.0,0.0,0.0,0.0,0.0,0.0,0.0,0.0,0.0,0.0,0.0,0.0,0.0,0.0,0.0,0.0,0.0,0.0,0.0,0.0,0.0,0.0,0.0,0.0,0.0,0.0,0.0,0.0,0.0,0.0,0.0,0.0,0.0,0.0,0.0,0.0,0.0,0.0,0.0,-2.0947,-2.1229,-2.1277,0.0,0.0,0.0,0.0,0.0,-2.2921,0.0,0.0,0.0,0.0,0.0,0.0,0.0,0.0,0.0,0.0,0.0,0.0,0.0,0.0,0.0,0.0,0.0,0.0,0.0,0.0,0.0,0.0,0.0,0.0,0.0,0.0,0.0,0.0,0.0,0.0,0.0,-2.9592,-2.9691,-2.7881,-2.6471,-2.5728,-2.7587,-2.916,-3.0319,-2.8509,-2.8634,-3.0449,-2.7606,-2.6116,-2.5707,0.0,-2.6569,-2.8864,-2.6147,-2.6638,-2.8771,-2.5454,-2.4512,-2.4578,-2.1305,-1.9363,-1.7337,0.0,0.0,0.0,0.0,0.0,0.0,0.0,0.0,0.0,0.0,0.0,0.0,0.0,0.0,0.0,0.0,0.0,0.0,0.0,0.0,0.0,0.0,0.0,0.0,0.0,0.0,0.0,0.0,0.0,0.0,0.0,0.0,0.0,0.0,0.0,0.0,0.0,0.0,0.0,0.0,0.0,0.0,0.0,0.0,0.0,0.0,0.0,0.0,0.0,0.0,0.0,0.0,0.0,0.0,0.0,0.0,-2.1746,-2.1841,-2.2095,-2.2142,0.0,0.0,0.0,0.0,0.0,0.0,0.0,0.0,0.0,0.0,0.0,0.0,0.0,0.0,0.0,0.0,0.0,0.0,0.0,0.0,0.0,0.0,0.0,0.0,0.0,0.0,0.0,0.0,0.0,0.0,-2.7146,-2.7152,-2.5726,-2.4367,-2.3059,-2.1979,-2.3229,-2.673,-2.3319,-2.3361,-2.6285,-2.1566,-1.928,-1.8954,-1.8278,-2.0134,-2.3277,-1.9186,-1.9801,-2.2887,-1.7894,-1.5518,-1.4704,-1.3387,-1.0739,-0.6943,0.0,0.0,0.0,0.0,0.0,0.0,0.0,0.0,0.0,0.0,0.0,0.0,0.0,0.0,0.0,0.0,0.0,0.0,0.0,0.0,0.0,0.0,0.0,0.0,0.0,0.0,0.0,0.0,0.0,0.0,0.0,0.0,0.0,0.0,0.0,0.0,0.0,0.0,0.0,0.0,0.0,0.0,0.0,0.0,0.0,0.0,0.0,0.0,0.0,0.0,0.0,0.0,0.0,0.0,0.0,0.0,0.0,-2.1082,-2.1082,-2.1131,0.0,0.0,0.0,0.0,0.0,0.0,0.0,0.0,0.0,0.0,0.0,0.0,0.0,0.0,0.0,0.0,0.0,0.0,0.0,0.0,0.0,0.0,0.0,0.0,0.0,0.0,0.0,0.0,0.0,0.0,0.0,-2.3787,-2.0641,-1.8286,-1.6708,-1.3608,-1.5809,-2.3056,-2.2124,-2.1542,-2.1223,-2.049,-1.9461,-1.8369,-1.8285,-1.817,-1.7874,-1.6711,-1.6454,-1.6634,-1.5194,-1.0932,-0.5483,-0.4581,-0.0062,0.6012,0.0,0.0,0.0,0.0,0.0,0.0,0.0,0.0,0.0,0.0,0.0,0.0,0.0,0.0,0.0,0.0,0.0,0.0,0.0,0.0,0.0,0.0,0.0,0.0,0.0,0.0,0.0,0.0,0.0,0.0,0.0,0.0,0.0,0.0,0.0,0.0,0.0,0.0,0.0,0.0,0.0,0.0,0.0,0.0,0.0,0.0,0.0,0.0,0.0,0.0,0.0,0.0,0.0,0.0,0.0,0.0,0.0,-2.0799,-2.0799,-2.0472,0.0,0.0,0.0,0.0,0.0,0.0,0.0,0.0,0.0,0.0,0.0,0.0,0.0,0.0,0.0,0.0,0.0,0.0,0.0,0.0,0.0,0.0,0.0,0.0,0.0,0.0,0.0,0.0,0.0,0.0,0.0,-2.0885,-1.8339,-1.6255,-1.4678,-1.2283,-1.1824,-1.3452,-1.2264,-1.3249,-1.5974,-1.1846,-0.9618,-0.9006,-0.9056,-1.035,-1.2195,-0.8032,-0.7897,-0.9776,-0.4432,0.0128,0.3712,0.3827,0.6804,1.081,0.0,0.0,0.0,0.0,0.0,0.0,0.0,0.0,0.0,0.0,0.0,0.0,0.0,0.0,0.0,0.0,0.0,0.0,0.0,0.0,0.0,0.0,0.0,0.0,0.0,0.0,0.0,0.0,0.0,0.0,0.0,0.0,0.0,0.0,0.0,0.0,0.0,0.0,0.0,0.0,0.0,0.0,0.0,0.0,0.0,0.0,0.0,0.0,0.0,0.0,0.0,0.0,0.0,0.0,0.0,0.0,0.0,0.0,-2.0067,-1.9756,0.0,0.0,0.0,0.0,0.0,0.0,0.0,0.0,0.0,0.0,0.0,0.0,0.0,0.0,0.0,0.0,0.0,0.0,0.0,0.0,0.0,0.0,0.0,0.0,0.0,0.0,0.0,0.0,0.0,0.0,0.0,0.0,-1.6069,-1.4277,-1.2462,-1.1009,-0.916,-0.7061,-0.5446,-0.6596,-1.0046,-0.5478,-0.3051,-0.2503,-0.2109,-0.3419,-0.5528,-0.0667,0.0,-0.166,0.3674,0.7206,0.9296,0.9331,1.0959,1.3281,0.0,0.0,0.0,0.0,0.0,0.0,0.0,0.0,0.0,0.0,0.0,0.0,0.0,0.0,0.0,0.0,0.0,0.0,0.0,0.0,0.0,0.0,0.0,0.0,0.0,0.0,0.0,0.0,0.0,0.0,0.0,0.0,0.0,0.0,0.0,0.0,0.0,0.0,0.0,0.0,0.0,0.0,0.0,0.0,0.0,0.0,0.0,0.0,0.0,0.0,0.0,0.0,0.0,0.0,0.0,0.0,-1.9376,-1.9436,-1.8708,0.0,0.0,0.0,0.0,0.0,0.0,0.0,0.0,0.0,0.0,0.0,0.0,0.0,0.0,0.0,0.0,0.0,0.0,0.0,0.0,0.0,0.0,0.0,0.0,0.0,0.0,0.0,0.0,0.0,0.0,0.0,0.0,0.0,-1.3395,-1.1819,-0.9296,-0.8798,-0.7563,-0.5591,-0.3509,-0.2812,-0.335,-0.274,-0.1804,-0.055,0.0704,0.1565,0.2352,0.4224,0.6083,0.7778,0.7617,0.8746,1.0634,1.1452,1.2531,1.4037,0.0,0.0,0.0,0.0,0.0,0.0,0.0,0.0,0.0,0.0,0.0,0.0,0.0,0.0,0.0,0.0,0.0,0.0,0.0,0.0,0.0,0.0,0.0,0.0,0.0,0.0,0.0,0.0,0.0,0.0,0.0,0.0,0.0,0.0,0.0,0.0,0.0,0.0,0.0,0.0,0.0,0.0,0.0,0.0,0.0,0.0,0.0,0.0,0.0,0.0,0.0,0.0,0.0,0.0,0.0,0.0,-1.9806,-1.9618,-1.876,0.0,0.0,0.0,0.0,0.0,0.0,0.0,0.0,0.0,0.0,0.0,0.0,0.0,0.0,0.0,0.0,0.0,0.0,0.0,0.0,0.0,0.0,0.0,0.0,0.0,0.0,0.0,0.0,0.0,0.0,0.0,0.0,0.0,-1.1421,-1.0237,-0.9135,-0.8058,-0.6444,-0.4281,-0.3046,-0.2735,-0.3122,-0.1642,-0.0862,-0.0549,0.1014,0.1952,0.2586,0.4913,0.6912,0.8656,0.9809,1.0858,1.1896,1.3281,1.4291,1.5288,0.0,0.0,0.0,0.0,0.0,0.0,0.0,0.0,0.0,0.0,0.0,0.0,0.0,0.0,0.0,0.0,0.0,0.0,0.0,0.0,0.0,0.0,0.0,0.0,0.0,0.0,0.0,0.0,0.0,0.0,0.0,0.0,0.0,0.0,0.0,0.0,0.0,0.0,0.0,0.0,0.0,0.0,0.0,0.0,0.0,0.0,0.0,0.0,0.0,0.0,0.0,0.0,0.0,0.0,0.0,-1.9086,-1.9269,-1.9059,-1.8291,0.0,0.0,0.0,0.0,0.0,0.0,0.0,0.0,0.0,0.0,0.0,0.0,0.0,0.0,0.0,0.0,0.0,0.0,0.0,0.0,0.0,0.0,0.0,0.0,0.0,0.0,0.0,0.0,0.0,0.0,0.0,0.0,0.0,-0.899,-0.7973,-0.721,-0.5829,-0.4283,-0.2577,-0.1876,-0.1407,-0.1093,0.0078,0.0469,0.0469,0.2414,0.3663,0.4533,0.6304,0.7977,0.9487,1.1137,1.2405,1.3361,1.4657,1.586,1.6973,0.0,0.0,0.0,0.0,0.0,0.0,0.0,0.0,0.0,0.0,0.0,0.0,0.0,0.0,0.0,0.0,0.0,0.0,0.0,0.0,0.0,0.0,0.0,0.0,0.0,0.0,0.0,0.0,0.0,0.0,0.0,0.0,0.0,0.0,0.0,0.0,0.0,0.0,0.0,0.0,0.0,0.0,0.0,0.0,0.0,0.0,0.0,0.0,0.0,0.0,0.0,0.0,0.0,0.0,0.0,-1.8208,-1.8323,0.0,0.0,0.0,0.0,0.0,0.0,0.0,0.0,0.0,0.0,0.0,0.0,0.0,0.0,0.0,0.0,0.0,0.0,0.0,0.0,0.0,0.0,0.0,0.0,0.0,0.0,0.0,0.0,0.0,0.0,0.0,0.0,0.0,0.0,0.0,-0.6598,-0.5295,-0.4373,-0.2969,-0.18,0.0,-0.0235,0.0783,0.2038,0.2034,0.211,0.2421,0.4523,0.6237,0.7488,0.8232,0.921,1.0409,1.1998,1.3534,1.4887,1.5799,1.7239,1.8736,0.0,0.0,0.0,0.0,0.0,0.0,0.0,0.0,0.0,0.0,0.0,0.0,0.0,0.0,0.0,0.0,0.0,0.0,0.0,0.0,0.0,0.0,0.0,0.0,0.0,0.0,0.0,0.0,0.0,0.0,0.0,0.0,0.0,0.0,0.0,0.0,0.0,0.0,0.0,0.0,0.0,0.0,0.0,0.0,0.0,0.0,0.0,0.0,0.0,0.0,0.0,0.0,-1.8333,-1.8301,-1.8187,-1.8352,-1.8513,0.0,0.0,0.0,0.0,0.0,0.0,0.0,0.0,0.0,0.0,0.0,0.0,0.0,0.0,0.0,0.0,0.0,0.0,0.0,0.0,0.0,0.0,0.0,0.0,0.0,0.0,0.0,0.0,0.0,0.0,0.0,0.0,0.0,0.0,-0.6249,-0.5363,-0.4606,-0.3908,-0.3285,-0.1955,0.0,0.0234,0.1407,0.3056,0.2898,0.3826,0.5529,0.6224,0.7536,0.9311,0.9669,1.1137,1.3128,1.3556,1.4569,1.6018,1.6802,1.7677,1.8603,0.0,0.0,0.0,0.0,0.0,0.0,0.0,0.0,0.0,0.0,0.0,0.0,0.0,0.0,0.0,0.0,0.0,0.0,0.0,0.0,0.0,0.0,0.0,0.0,0.0,0.0,0.0,0.0,0.0,0.0,0.0,0.0,0.0,0.0,0.0,0.0,0.0,0.0,0.0,0.0,0.0,0.0,0.0,0.0,0.0,0.0,0.0,0.0,0.0,0.0,0.0,0.0,0.0,0.0,-1.8154,-1.8589,0.0,0.0,0.0,0.0,0.0,0.0,0.0,0.0,0.0,0.0,0.0,0.0,0.0,0.0,0.0,0.0,0.0,0.0,0.0,0.0,0.0,0.0,0.0,0.0,0.0,0.0,0.0,0.0,0.0,0.0,0.0,0.0,0.0,-0.7139,-0.6159,-0.4969,-0.4006,-0.3044,-0.1954,-0.1016,0.0078,0.1328,0.172,0.2966,0.4836,0.4373,0.5378,0.7383,0.7532,0.8746,1.064,1.1218,1.2531,1.4212,1.5147,1.6009,1.6862,1.8046,1.8844,1.9475,0.0,0.0,0.0,0.0,0.0,0.0,0.0,0.0,0.0,0.0,0.0,0.0,0.0,0.0,0.0,0.0,0.0,0.0,0.0,0.0,0.0,0.0,0.0,0.0,0.0,0.0,0.0,0.0,0.0,0.0,0.0,0.0,0.0,0.0,0.0,0.0,0.0,0.0,0.0,0.0,0.0,0.0,0.0,0.0,0.0,0.0,0.0,0.0,0.0,-1.7711,0.0,0.0,0.0,0.0,-1.7785,0.0,0.0,0.0,0.0,0.0,0.0,0.0,0.0,0.0,0.0,0.0,0.0,0.0,0.0,0.0,0.0,0.0,0.0,0.0,0.0,0.0,0.0,0.0,0.0,0.0,0.0,0.0,0.0,0.0,0.0,0.0,0.0,0.0,-0.6748,-0.5947,-0.4977,-0.3821,-0.2443,-0.1093,0.0235,0.1645,0.2584,0.3051,0.3832,0.5146,0.6835,0.6297,0.7065,0.8827,0.8978,1.0093,1.179,1.275,1.3693,1.4775,1.6358,1.7139,1.755,1.8988,1.9911,2.0613,0.0,0.0,0.0,0.0,0.0,0.0,0.0,0.0,0.0,0.0,0.0,0.0,0.0,0.0,0.0,0.0,0.0,0.0,0.0,0.0,0.0,0.0,0.0,0.0,0.0,0.0,0.0,0.0,0.0,0.0,0.0,0.0,0.0,0.0,0.0,0.0,0.0,0.0,0.0,0.0,0.0,0.0,0.0,0.0,0.0,0.0,0.0,0.0,0.0,0.0,0.0,0.0,0.0,0.0,0.0,0.0,0.0,0.0,0.0,0.0,0.0,0.0,0.0,0.0,0.0,0.0,0.0,0.0,0.0,0.0,0.0,0.0,0.0,0.0,0.0,0.0,0.0,0.0,0.0,0.0,0.0,0.0,0.0,0.0,0.0,0.0,0.0,0.0,-0.5797,-0.3812,-0.2495,-0.1939,-0.0545,0.0547,0.1097,0.2345,0.3359,0.4215,0.623,0.7621,0.8389,0.8822,0.9562,1.0536,1.1218,1.2104,1.3194,1.4004,1.495,1.5824,1.6237,1.7267,1.8633,1.8977,1.989,2.106,0.0,0.0,0.0,0.0,0.0,0.0,0.0,0.0,0.0,0.0,0.0,0.0,0.0,0.0,0.0,0.0,0.0,0.0,0.0,0.0,0.0,0.0,0.0,0.0,0.0,0.0,0.0,0.0,0.0,0.0,0.0,-1.6083,-1.6368,0.0,0.0,0.0,0.0,0.0,0.0,0.0,0.0,0.0,0.0,0.0,0.0,0.0,0.0,0.0,0.0,0.0,0.0,0.0,0.0,0.0,0.0,0.0,0.0,0.0,0.0,0.0,0.0,0.0,0.0,0.0,0.0,0.0,0.0,0.0,0.0,0.0,0.0,0.0,0.0,0.0,0.0,0.0,0.0,0.0,0.0,0.0,0.0,0.0,0.0,0.0,0.0,0.0,0.0,-0.4428,-0.3295,-0.2719,-0.1869,-0.0845,0.0698,0.1873,0.2655,0.4135,0.53,0.6307,0.7314,0.8318,0.9387,0.9965,1.0616,1.1347,1.2024,1.3194,1.4799,1.518,1.6105,1.7166,1.7364,1.8037,1.9044,1.9694,2.0268,2.0921,0.0,0.0,0.0,0.0,0.0,0.0,0.0,0.0,0.0,0.0,0.0,0.0,0.0,0.0,0.0,0.0,0.0,0.0,0.0,0.0,0.0,0.0,0.0,0.0,0.0,0.0,0.0,0.0,0.0,0.0,-1.5186,-1.5186,-1.541,0.0,-1.6026,0.0,0.0,0.0,0.0,0.0,0.0,0.0,0.0,0.0,0.0,0.0,0.0,0.0,0.0,0.0,0.0,0.0,0.0,0.0,0.0,0.0,0.0,0.0,0.0,0.0,0.0,0.0,0.0,0.0,0.0,0.0,0.0,0.0,0.0,0.0,0.0,0.0,0.0,0.0,0.0,0.0,0.0,0.0,0.0,0.0,0.0,0.0,0.0,0.0,0.0,0.0,0.0,-0.3107,-0.1527,-0.163,-0.1165,0.0305,0.1932,0.3274,0.4285,0.5844,0.7165,0.8165,0.8318,0.9003,1.0293,1.1025,1.1742,1.2391,1.2757,1.414,1.6105,1.6254,1.7019,1.8134,1.8337,1.8808,1.9386,2.015,2.0719,2.1101,0.0,0.0,0.0,0.0,0.0,0.0,0.0,0.0,0.0,0.0,0.0,0.0,0.0,0.0,0.0,0.0,0.0,0.0,0.0,0.0,0.0,0.0,0.0,0.0,0.0,0.0,0.0,0.0,0.0,0.0,-1.4575,-1.4575,-1.4565,-1.4625,-1.5186,-1.501,-1.4441,0.0,0.0,0.0,0.0,0.0,0.0,0.0,0.0,0.0,0.0,0.0,0.0,0.0,0.0,0.0,0.0,0.0,0.0,0.0,0.0,0.0,0.0,0.0,0.0,0.0,0.0,0.0,0.0,0.0,0.0,0.0,0.0,0.0,0.0,0.0,0.0,0.0,0.0,0.0,0.0,0.0,0.0,0.0,0.0,0.0,0.0,0.0,0.0,0.0,0.0,-0.188,-0.1642,-0.047,0.0625,0.179,0.3429,0.4758,0.5767,0.7084,0.8241,0.9246,0.962,1.0363,1.1335,1.2372,1.3251,1.4194,1.4194,1.5251,1.701,1.7079,1.7619,1.8509,1.8731,1.9198,1.9781,2.0031,2.0921,2.2101,0.0,0.0,0.0,0.0,0.0,0.0,0.0,0.0,0.0,0.0,0.0,0.0,0.0,0.0,0.0,0.0,0.0,0.0,0.0,0.0,0.0,0.0,0.0,0.0,0.0,0.0,0.0,0.0,0.0,-1.4891,-1.4882,-1.4634,-1.4515,-1.4506,-1.4734,-1.4684,-1.4483,-1.5084,0.0,0.0,0.0,0.0,0.0,0.0,0.0,0.0,0.0,0.0,0.0,0.0,0.0,0.0,0.0,0.0,0.0,0.0,0.0,0.0,0.0,0.0,0.0,0.0,0.0,0.0,0.0,0.0,0.0,0.0,0.0,0.0,0.0,0.0,0.0,0.0,0.0,0.0,0.0,0.0,0.0,0.0,0.0,0.0,0.0,0.0,0.0,0.0,0.0,0.0,0.0392,0.0861,0.1641,0.2815,0.4598,0.615,0.7472,0.8089,0.9003,1.0293,1.0443,1.1111,1.2378,1.3105,1.3688,1.4049,1.4911,1.5965,1.7079,1.7079,1.7891,1.9034,1.911,1.9462,2.0064,2.0805,2.1365,2.1928,0.0,0.0,0.0,0.0,0.0,0.0,0.0,0.0,0.0,0.0,0.0,0.0,0.0,0.0,0.0,0.0,0.0,0.0,0.0,0.0,0.0,0.0,0.0,0.0,0.0,0.0,0.0,0.0,0.0,0.0,0.0,0.0,-1.4643,-1.4515,-1.4653,0.0,0.0,0.0,0.0,-1.546,0.0,0.0,-1.5991,0.0,0.0,0.0,0.0,0.0,0.0,0.0,0.0,0.0,0.0,0.0,0.0,0.0,0.0,0.0,0.0,0.0,0.0,0.0,0.0,0.0,0.0,0.0,0.0,0.0,0.0,0.0,0.0,0.0,0.0,0.0,0.0,0.0,0.0,0.0,0.0,0.0,0.0,0.0,0.0,0.0,0.0,0.0,0.0,0.0,0.1883,0.2035,0.2735,0.4377,0.5999,0.754,0.8856,0.9008,0.9685,1.0887,1.1037,1.1706,1.2959,1.368,1.4186,1.4545,1.5675,1.6585,1.7207,1.7482,1.8365,1.9584,1.9584,1.9802,2.0205,2.1123,2.1553,2.1928,0.0,0.0,0.0,0.0,0.0,0.0,0.0,0.0,0.0,0.0,0.0,0.0,0.0,0.0,0.0,0.0,0.0,0.0,0.0,0.0,0.0,0.0,0.0,0.0,0.0,0.0,0.0,0.0,0.0,0.0,0.0,0.0,-1.4909,0.0,-1.4946,-1.49,-1.457,0.0,-1.5111,-1.5014,0.0,-1.473,-1.5493,0.0,0.0,0.0,-1.4244,-1.3964,0.0,0.0,0.0,0.0,0.0,0.0,0.0,0.0,0.0,0.0,0.0,0.0,0.0,0.0,0.0,0.0,0.0,0.0,0.0,0.0,0.0,0.0,0.0,0.0,0.0,0.0,0.0,0.0,0.0,0.0,0.0,0.0,0.0,0.0,0.0,0.0,0.0,0.0,0.0,0.1491,0.2817,0.2895,0.4059,0.6465,0.7557,0.8708,0.9916,0.9922,1.0368,1.1186,1.1558,1.2211,1.3011,1.4171,1.5108,1.5833,1.6594,1.7139,1.7472,1.823,1.9121,2.0085,2.0151,2.0151,2.0205,2.088,2.1553,2.2237,0.0,0.0,0.0,0.0,0.0,0.0,0.0,0.0,0.0,0.0,0.0,0.0,0.0,0.0,0.0,0.0,0.0,0.0,0.0,0.0,0.0,0.0,0.0,0.0,0.0,0.0,0.0,0.0,0.0,0.0,0.0,0.0,0.0,0.0,-1.5478,-1.546,-1.5368,-1.5478,0.0,0.0,-1.5173,-1.5019,0.0,0.0,0.0,0.0,0.0,-1.2933,-1.3157,0.0,-1.2204,-1.2418,0.0,0.0,0.0,0.0,0.0,0.0,-1.1706,0.0,0.0,0.0,0.0,0.0,0.0,0.0,0.0,0.0,0.0,0.0,0.0,0.0,0.0,0.0,0.0,0.0,0.0,0.0,0.0,0.0,0.0,0.0,0.0,0.0,0.0,0.0,0.1883,0.2586,0.3912,0.4766,0.623,0.8232,0.877,0.9448,1.0571,1.0732,1.126,1.2224,1.2858,1.365,1.4617,1.5604,1.6175,1.6464,1.7276,1.7833,1.7969,1.8172,1.8921,1.9998,2.0518,2.0775,2.0944,2.2101,2.2652,2.2907,0.0,0.0,0.0,0.0,0.0,0.0,0.0,0.0,0.0,0.0,0.0,0.0,0.0,0.0,0.0,0.0,0.0,0.0,0.0,0.0,0.0,0.0,-1.6337,0.0,0.0,0.0,0.0,0.0,0.0,0.0,0.0,0.0,0.0,0.0,0.0,0.0,0.0,0.0,0.0,0.0,-1.4261,0.0,0.0,-1.3233,-1.3107,0.0,0.0,0.0,-1.2137,-1.1254,-1.1254,0.0,-1.1105,0.0,0.0,0.0,0.0,0.0,0.0,0.0,0.0,0.0,0.0,0.0,0.0,-0.9367,0.0,0.0,0.0,0.0,0.0,0.0,0.0,0.0,0.0,0.0,0.0,0.0,0.0,0.0,0.0,0.0,0.0,0.0,0.0,0.2275,0.2743,0.36,0.4846,0.6391,0.7851,0.9074,0.9593,1.034,1.1391,1.1552,1.2077,1.2973,1.3462,1.425,1.5196,1.6175,1.6793,1.7217,1.8104,1.862,1.8859,1.8667,1.9065,1.9868,2.0518,2.0892,2.1198,2.2543,2.3027,2.3245,0.0,0.0,0.0,0.0,0.0,0.0,0.0,0.0,0.0,0.0,0.0,0.0,0.0,0.0,0.0,0.0,0.0,0.0,0.0,0.0,0.0,-1.6655,-1.657,-1.6355,0.0,0.0,0.0,0.0,0.0,0.0,0.0,0.0,0.0,0.0,0.0,0.0,0.0,0.0,0.0,-1.3907,-1.2675,-1.236,0.0,0.0,-1.1906,0.0,-1.119,-1.0906,-1.1111,-1.0143,-1.0218,-1.0513,-0.9916,-0.9916,0.0,0.0,-0.9755,0.0,0.0,0.0,0.0,0.0,0.0,0.0,-0.8699,-0.8309,-0.8071,0.0,0.0,0.0,0.0,0.0,0.0,0.0,0.0,0.0,0.0,0.0,0.0,0.0,0.0,0.0,0.0,0.1175,0.2352,0.2744,0.3599,0.4686,0.5851,0.7698,0.8927,0.9523,1.0265,1.1168,1.2378,1.2452,1.2826,1.3492,1.3863,1.4425,1.5267,1.6298,1.7267,1.8104,1.8787,1.9303,1.9723,1.9427,1.9414,1.9679,2.0399,2.0828,2.1146,2.2506,2.31,2.3356,0.0,0.0,0.0,0.0,0.0,0.0,0.0,0.0,0.0,0.0,0.0,0.0,0.0,0.0,0.0,0.0,0.0,0.0,0.0,0.0,-1.6854,-1.6637,-1.6446,-1.6422,-1.6661,0.0,0.0,0.0,0.0,0.0,0.0,0.0,0.0,0.0,0.0,0.0,0.0,0.0,0.0,-1.2403,-1.2935,0.0,-1.165,-1.1455,-1.1137,-1.0651,-1.0237,-1.0104,-1.0143,0.0,-0.9468,-0.9544,0.0,0.0,0.0,0.0,0.0,0.0,0.0,0.0,0.0,0.0,0.0,0.0,-0.7561,-0.6934,-0.6307,0.0,0.0,0.0,0.0,0.0,0.0,0.0,0.0,0.0,0.0,0.0,0.0,0.0,0.0,0.0,0.0,0.1724,0.2663,0.438,0.5619,0.6777,0.7766,0.8389,0.9377,1.0956,1.1329,1.2003,1.3046,1.32,1.3346,1.3492,1.4768,1.5401,1.5675,1.7285,1.8124,1.8405,1.8741,1.8993,1.9297,2.0165,2.0293,2.0001,2.091,2.1451,2.1889,2.3198,2.3806,2.4001,0.0,0.0,0.0,0.0,0.0,0.0,0.0,0.0,0.0,0.0,0.0,0.0,0.0,0.0,0.0,0.0,0.0,0.0,0.0,0.0,-1.7229,-1.6751,-1.6513,-1.6156,-1.5833,-1.5248,0.0,0.0,0.0,0.0,0.0,0.0,0.0,0.0,0.0,0.0,0.0,0.0,-1.2045,-1.1365,-1.1795,0.0,-1.0659,-1.0651,-1.041,-1.0067,-0.9922,-0.9771,-0.9528,-0.904,-0.8925,0.0,0.0,-0.8472,-0.8403,0.0,-0.8097,-0.7791,0.0,0.0,0.0,-0.7407,0.0,0.0,0.0,-0.5699,-0.4919,-0.4763,0.0,0.0,0.0,0.0,0.0,0.0,0.0,0.0,0.0,0.0,0.0,0.0,0.0,0.0,0.0,0.2818,0.4066,0.5702,0.6857,0.7778,0.838,0.9372,1.0432,1.1484,1.2003,1.2673,1.3346,1.384,1.4049,1.4049,1.5251,1.6035,1.6446,1.7491,1.8259,1.8674,1.9198,1.9783,2.0422,2.113,2.1565,2.1749,2.2062,2.25,2.3038,2.352,2.4167,2.4879,0.0,0.0,0.0,0.0,0.0,0.0,0.0,0.0,0.0,0.0,0.0,0.0,0.0,0.0,0.0,0.0,0.0,0.0,0.0,0.0,0.0,0.0,-1.6219,-1.5677,-1.4637,-1.4423,-1.405,0.0,0.0,0.0,0.0,0.0,0.0,0.0,0.0,0.0,0.0,0.0,0.0,-1.0432,0.0,-1.0156,-0.9874,-0.9846,-0.9838,-0.9857,-0.983,-0.9468,-0.9064,-0.8519,0.0,-0.8316,-0.8272,-0.8023,0.0,0.0,0.0,0.0,0.0,0.0,0.0,0.0,0.0,-0.5538,0.0,0.0,0.0,-0.3834,0.0,0.0,0.0,0.0,0.0,0.0,0.0,0.0,0.0,0.0,0.0,0.0,0.0,0.0,0.0,0.4144,0.5702,0.6791,0.7625,0.8309,0.8912,1.0276,1.1335,1.1855,1.2526,1.3119,1.3637,1.4258,1.4673,1.4816,1.5754,1.6524,1.7079,1.7569,1.8173,1.8941,1.9777,2.0729,2.1655,2.2205,2.2898,2.3642,2.3317,2.3535,2.3998,2.3901,2.4525,2.5497,0.0,0.0,0.0,0.0,0.0,0.0,0.0,0.0,0.0,0.0,0.0,0.0,0.0,0.0,0.0,0.0,0.0,0.0,-1.4371,0.0,0.0,0.0,-1.5016,-1.5001,-1.4243,-1.3558,-1.3208,0.0,0.0,0.0,0.0,0.0,0.0,0.0,-1.1009,0.0,0.0,0.0,-1.0395,0.0,-0.98,-0.9828,0.0,-0.978,-0.9734,-0.9647,-0.9401,-0.9008,-0.8456,0.0,-0.7664,-0.7194,0.0,-0.7127,0.0,0.0,0.0,0.0,0.0,0.0,0.0,0.0,-0.4683,0.0,0.0,0.0,-0.2896,-0.2744,0.0,0.0,0.0,0.0,0.0,0.0,0.0,0.0,0.0,0.0,0.0,0.0,0.0,0.0,0.0,0.0,0.6637,0.7855,0.8008,0.8912,1.0732,1.0962,1.1558,1.2452,1.2753,1.3331,1.4201,1.4466,1.4958,1.5596,1.6376,1.6862,1.6941,1.7647,1.8429,1.9212,1.9986,2.0831,2.171,2.3534,2.4398,2.4446,2.3923,2.3862,2.4083,2.4644,2.5078,2.5371,0.0,0.0,0.0,0.0,0.0,0.0,0.0,0.0,0.0,0.0,0.0,0.0,0.0,0.0,0.0,0.0,0.0,-1.3668,0.0,0.0,0.0,0.0,0.0,0.0,-1.3324,-1.2699,-1.2357,-1.2254,-1.1893,0.0,0.0,0.0,0.0,0.0,-1.0621,0.0,-1.0212,0.0,0.0,0.0,0.0,0.0,0.0,-0.9328,-0.9259,-0.916,-0.8397,-0.7931,-0.7604,0.0,-0.659,0.0,0.0,0.0,0.0,0.0,0.0,0.0,0.0,0.0,0.0,0.0,0.0,0.0,-0.321,0.0,-0.1883,0.0,0.0,0.0,0.0,0.0,0.0,0.0,0.0,0.0,0.0,0.0,0.0,0.0,0.0,0.0,0.0,0.0,0.0,0.0,0.0,0.997,1.1031,1.1632,1.2445,1.339,1.3615,1.4186,1.5108,1.5666,1.621,1.6723,1.7511,1.8066,1.8304,1.876,1.9414,2.032,2.113,2.2161,2.3432,2.4682,2.5382,2.5654,2.5432,2.54,2.5393,2.5099,2.547,2.6151,0.0,0.0,0.0,0.0,0.0,0.0,0.0,0.0,0.0,0.0,0.0,0.0,-1.4445,-1.4143,0.0,0.0,-1.3147,-1.3122,0.0,0.0,-1.3613,0.0,0.0,0.0,0.0,-1.2118,-1.188,-1.1674,-1.1652,0.0,0.0,0.0,0.0,0.0,0.0,-1.026,-0.9967,0.0,0.0,-0.9317,-0.9343,-0.8945,-0.8286,-0.8627,-0.8798,-0.8626,-0.7501,-0.6939,-0.6547,-0.573,-0.5676,0.0,-0.546,0.0,0.0,0.0,0.0,0.0,-0.4222,0.0,0.0,0.0,0.0,0.0,0.0,0.0,0.0,0.0,0.0,0.0,0.0,0.0,0.0,0.0,0.0,0.0,0.0,0.0,0.0,0.0,0.0,0.0,0.0,0.0,0.0,0.0,0.989,1.0795,1.1409,1.2372,1.3244,1.397,1.4402,1.5117,1.6026,1.6585,1.7213,1.7782,1.835,1.8929,1.964,1.9805,2.0493,2.155,2.2387,2.3524,2.4873,2.5555,2.6076,2.6533,2.6533,2.6533,2.6433,2.5693,2.5962,2.6667,0.0,-1.8245,0.0,0.0,0.0,0.0,0.0,0.0,0.0,0.0,0.0,0.0,0.0,0.0,0.0,0.0,0.0,-1.1176,-1.2219,0.0,-1.1848,0.0,0.0,-1.2261,0.0,-1.184,-1.1972,-1.1812,-1.2103,0.0,0.0,0.0,0.0,0.0,0.0,-1.0026,-0.9726,-0.9871,-0.9145,-0.7996,-0.8409,-0.7619,-0.6366,0.0,-0.8299,-0.8231,-0.7212,0.0,0.0,-0.5493,-0.5075,0.0,0.0,0.0,0.0,0.0,0.0,0.0,0.0,0.0,0.0,-0.1492,0.0,0.0,0.0,0.0,0.0,0.0,0.0,0.0,0.0,0.0,0.0,0.0,0.0,0.0,0.0,0.0,0.0,0.0,0.0,0.0,0.0,0.0,0.0,1.0318,1.0634,1.1242,1.2224,1.3164,1.3745,1.397,1.4966,1.5877,1.6862,1.6862,1.7423,1.8562,1.8572,1.9273,2.0481,2.0481,2.1353,2.2846,2.3711,2.4505,2.5358,2.6139,2.6508,2.6533,2.6533,2.6533,2.6521,2.6483,2.6496,2.6589,0.0,0.0,0.0,0.0,0.0,0.0,0.0,-1.5556,0.0,0.0,0.0,0.0,0.0,-1.286,-1.2579,0.0,0.0,-1.1266,-1.1627,-1.1188,0.0,0.0,0.0,-1.1226,0.0,0.0,-1.1546,-1.1766,-1.1787,0.0,0.0,0.0,0.0,0.0,0.0,-0.9372,0.0,0.0,0.0,0.0,0.0,-0.6822,-0.634,0.0,0.0,-0.6369,-0.5545,-0.4997,0.0,-0.4313,-0.4124,-0.3997,-0.3776,-0.3591,-0.3405,-0.2942,-0.2649,0.0,0.0,0.0,-0.1254,-0.1256,0.0,0.0,0.0,0.0,0.0,0.0,0.0,0.0,0.0,0.0,0.0,0.0,0.0,0.0,0.0,0.0,0.0,0.0,0.0,0.0,0.0,0.0,0.0,1.0484,1.1168,1.2063,0.0,1.3608,1.4394,1.5455,1.6088,1.6793,1.7647,1.7647,1.8072,1.9072,1.9072,1.958,2.0572,2.1087,2.1966,2.3123,2.3939,2.492,2.591,2.6188,2.6396,2.6533,2.6533,2.6533,2.6521,2.6973,2.7162,2.7364,-1.8549,0.0,0.0,0.0,0.0,0.0,0.0,0.0,0.0,0.0,-1.3687,0.0,-1.2459,0.0,-1.2276,0.0,-1.1409,-1.1198,-1.107,-1.0673,0.0,-1.0591,-1.064,0.0,0.0,0.0,-1.1353,-1.1829,-1.1763,-1.1736,0.0,0.0,0.0,0.0,0.0,0.0,-0.8463,0.0,-0.732,0.0,0.0,-0.553,0.0,0.0,-0.538,-0.5307,0.0,-0.4232,-0.3951,-0.3487,-0.3459,-0.3426,-0.2762,-0.2658,-0.271,-0.2169,-0.2026,-0.1962,-0.1491,-0.102,0.0,-0.0634,0.0159,0.0,0.0397,0.0,0.0,0.0,0.0,0.0,0.0,0.0,0.0,0.0,0.0,0.0,0.0,0.0,0.0,0.0,0.0,0.0,0.0,0.0,1.0812,1.1019,1.2081,1.2924,0.0,0.0,1.5242,1.6237,1.6941,1.751,1.8008,1.8154,1.8584,1.9287,1.9727,2.0461,2.1461,2.2274,2.3158,2.412,2.4707,2.5382,2.6213,2.627,2.6396,2.6533,2.6533,2.6533,2.6521,2.6973,2.7284,2.767,0.0,0.0,0.0,0.0,-1.5668,0.0,0.0,0.0,-1.339,0.0,-1.3135,-1.2352,-1.218,-1.1937,-1.1735,-1.152,-1.1169,-1.092,-1.0659,-1.0635,0.0,0.0,-1.0616,-1.0852,-1.1099,0.0,0.0,0.0,0.0,0.0,0.0,0.0,0.0,0.0,-1.0198,0.0,-0.85,-0.8107,-0.6952,-0.5225,-0.4437,-0.3875,-0.3587,-0.3748,-0.429,-0.4853,-0.438,-0.3851,-0.3307,-0.3101,-0.2987,-0.2774,-0.2045,-0.1785,-0.167,-0.1292,-0.1237,-0.1102,-0.0473,-0.0236,0.0,0.0566,0.0,0.0,0.0,0.0,0.3387,0.0,0.0,0.0,0.0,0.0,0.0,0.0,0.0,0.0,0.0,0.0,0.0,0.0,0.0,0.0,0.0,1.121,1.188,1.2096,1.3227,1.3777,0.0,0.0,1.6306,1.6376,1.7461,1.8037,1.8037,1.8457,1.8887,1.9399,2.0584,2.1755,2.3032,2.3745,2.4636,2.5535,2.5758,2.598,2.6213,2.6396,2.6452,2.6533,2.6521,2.6589,2.6589,2.6589,2.704,2.7736,-1.6446,-1.5782,-1.5103,0.0,-1.5358,-1.5379,0.0,0.0,0.0,0.0,-1.2014,-1.1641,-1.1377,-1.1617,-1.1672,-1.1451,-1.1378,0.0,0.0,0.0,0.0,-1.09,-1.0609,-1.0574,-1.0875,-1.0704,0.0,-1.1167,0.0,0.0,-1.1738,0.0,0.0,0.0,0.0,0.0,-0.7794,-0.7518,-0.6207,-0.4254,-0.3958,-0.3737,0.0,0.0,-0.3756,-0.3941,-0.3701,-0.3293,-0.2874,-0.2822,-0.2469,-0.2025,-0.1801,-0.1603,-0.1406,-0.1273,-0.0883,-0.0486,-0.0329,0.0743,0.1734,0.1411,0.2327,0.3243,0.0,0.0,0.0,0.0,0.0,0.0,0.0,0.0,0.0,0.0,0.0,0.0,0.0,0.0,0.0,0.0,0.0,0.0,1.1407,1.1954,1.255,1.3133,1.3446,1.4126,0.0,0.0,0.0,1.7285,1.8093,1.8477,1.8477,1.8906,1.9618,2.0614,2.0947,2.1755,2.3032,2.3745,2.4264,2.4492,2.5158,2.5676,2.598,2.605,2.6245,2.6521,2.704,2.7537,2.7986,2.7986,2.8762,2.9794,-1.563,0.0,0.0,-1.3947,0.0,0.0,-1.3786,0.0,0.0,-1.2004,-1.1588,0.0,-1.1179,-1.1373,-1.1534,-1.1432,-1.1334,0.0,-1.0948,0.0,0.0,-1.0789,-1.0515,-1.0479,-1.0657,-1.0047,0.0,-1.0913,0.0,0.0,-1.1483,0.0,0.0,0.0,0.0,-0.8963,0.0,-0.6391,-0.5115,-0.3927,-0.3795,0.0,0.0,-0.3618,-0.3545,-0.3319,-0.3265,-0.3052,-0.2712,-0.2383,-0.1997,-0.1673,-0.1554,-0.1184,-0.0801,-0.082,-0.033,0.0331,0.0836,0.1678,0.2522,0.2631,0.3572,0.4339,0.4004,0.4513,0.5012,0.0,0.0,0.0,0.0,0.0,0.0,0.0,0.0,0.0,0.0,0.0,0.0,0.0,0.0,0.0,1.3369,1.2896,1.3092,1.4433,1.4372,1.4903,0.0,0.0,0.0,1.7995,1.8366,1.873,1.8916,1.9541,2.0187,2.0858,2.1784,2.251,2.3032,2.412,2.4636,2.4636,2.5229,2.5535,2.5758,2.5828,2.6119,2.6396,2.6905,2.767,2.8492,2.8492,2.9016,2.9732,0.0,0.0,0.0,0.0,0.0,0.0,0.0,-1.2116,0.0,-1.2007,0.0,-1.1134,-1.119,-1.1315,-1.1358,-1.1455,0.0,-1.1015,-1.0785,-1.0985,-1.0861,-1.0495,-1.0489,-1.0443,-1.0288,-0.9411,0.0,0.0,0.0,0.0,-1.1023,0.0,0.0,0.0,0.0,0.0,0.0,-0.5166,-0.4091,0.0,-0.372,-0.3644,-0.3652,-0.3655,-0.3413,-0.2988,-0.2896,-0.2828,-0.2648,-0.1969,-0.1683,-0.1619,-0.129,-0.0735,-0.0246,-0.0168,0.0422,0.1266,0.2199,0.2624,0.306,0.4072,0.4699,0.4961,0.4966,0.5229,0.5545,0.5689,0.5579,0.5852,0.0,0.0,0.0,0.0,0.0,0.0,0.0,0.0,0.0,0.0,0.0,0.0,0.0,1.3928,1.3689,1.5787,1.5557,1.5856,0.0,0.0,0.0,1.8293,1.8601,0.0,1.9287,0.0,2.0878,2.1033,2.2926,2.3665,2.3416,2.4754,2.5312,2.5312,2.5465,2.5606,2.5676,2.584,2.6119,2.6521,2.6714,2.7617,2.8762,2.8762,2.8762,2.8889,0.0,0.0,0.0,0.0,0.0,-1.2567,-1.2736,-1.2485,-1.1983,-1.143,-1.1335,-1.129,-1.1025,-1.1101,-1.1129,-1.1178,-1.1141,0.0,0.0,0.0,0.0,-1.0748,-1.0599,-1.0093,-0.9301,-0.9115,-0.867,0.0,-0.9039,-0.9577,0.0,0.0,0.0,0.0,0.0,0.0,-0.6037,-0.4428,0.0,-0.3818,-0.3816,-0.3738,-0.374,-0.3368,-0.3168,-0.3049,-0.2338,-0.2037,-0.1894,-0.182,-0.1607,-0.1292,-0.0663,-0.0418,-0.0168,0.0429,0.138,0.2338,0.2468,0.3539,0.4603,0.48,0.5252,0.5523,0.5526,0.5612,0.5957,0.689,0.7125,0.7415,0.8489,0.0,0.0,0.0,0.0,0.0,0.0,0.0,0.0,0.0,0.0,0.0,0.0,0.0,0.0,0.0,0.0,0.0,0.0,0.0,0.0,0.0,0.0,0.0,0.0,0.0,2.2569,2.3242,2.422,2.498,2.5562,2.5362,2.5312,2.5312,2.5312,2.5535,2.5828,2.591,2.6756,2.8117,2.8117,2.9016,3.0237,3.0237,3.0237,3.0251,0.0,0.0,0.0,0.0,0.0,0.0,0.0,-1.2403,0.0,-1.155,-1.1297,-1.1217,-1.123,-1.1113,-1.1172,-1.1317,-1.1196,-1.1037,-1.0962,-1.0887,-1.0738,-1.0513,-0.9856,0.0,-0.8851,-0.7812,-0.7356,-0.7464,-0.7803,-0.8231,0.0,0.0,0.0,0.0,0.0,-0.6284,0.0,0.0,0.0,-0.3767,-0.3814,-0.3673,-0.3432,-0.3275,-0.2918,-0.2483,-0.2094,-0.1731,-0.1531,-0.1582,-0.1263,-0.0761,-0.0432,0.0348,0.1219,0.1583,0.2557,0.3536,0.3748,0.4385,0.5099,0.5282,0.5552,0.5733,0.5733,0.5994,0.6432,0.7044,0.7596,0.8173,0.8998,1.0372,0.0,0.0,0.0,0.0,0.0,0.0,0.0,0.0,0.0,0.0,0.0,0.0,0.0,0.0,0.0,0.0,0.0,0.0,0.0,0.0,0.0,0.0,0.0,0.0,0.0,2.45,2.5283,2.5773,2.5894,2.6041,2.5997,2.5721,2.5721,2.5636,2.5606,2.5688,2.6208,2.6989,2.7217,2.8117,2.9345,2.947,2.9979,3.0568,0.0,-1.2593,0.0,0.0,-1.2459,0.0,-1.2165,-1.214,-1.2085,-1.1771,-1.136,-1.1175,-1.1341,-1.1192,-1.1202,-1.1342,-1.1163,-1.0962,-1.0738,-1.0663,-1.0438,-0.9992,-0.9124,-0.8445,-0.8161,-0.6604,-0.6152,0.0,-0.662,-0.6837,0.0,0.0,0.0,0.0,0.0,0.0,0.0,0.0,-0.3932,-0.3665,-0.3716,-0.3502,-0.3025,-0.2944,-0.2571,-0.1952,-0.1899,-0.1552,-0.1113,-0.1131,-0.0785,-0.0261,0.0089,0.1254,0.2508,0.2776,0.3671,0.4565,0.4919,0.5099,0.528,0.5644,0.5733,0.5733,0.5733,0.6343,0.7041,0.7302,0.8418,0.947,0.9893,1.1255,0.0,0.0,0.0,0.0,0.0,0.0,0.0,0.0,0.0,0.0,0.0,0.0,0.0,0.0,0.0,1.7877,1.9118,1.8727,0.0,0.0,0.0,2.1766,2.2113,0.0,2.5455,0.0,2.6268,2.6456,2.614,2.6669,2.6695,2.6274,2.6154,2.5793,2.5382,2.5606,2.5877,2.6255,2.6684,2.7745,2.9015,2.9274,3.0066,3.0988,0.0,0.0,0.0,0.0,0.0,0.0,-1.1917,-1.1866,-1.1932,-1.186,-1.1618,-1.1371,-1.1141,-1.1111,-1.1049,-1.0848,-1.083,-1.0738,-1.0519,-1.0368,-0.9911,-0.915,-0.8832,-0.799,-0.6468,-0.6053,-0.5594,0.0,-0.5677,-0.6064,-0.6163,0.0,0.0,0.0,0.0,0.0,0.0,-0.3926,-0.3624,-0.3333,-0.3272,-0.3043,-0.2599,-0.2263,-0.2039,-0.1994,-0.1563,-0.1054,-0.0446,-0.0536,-0.0441,0.0,0.169,0.2329,0.2686,0.3851,0.4476,0.4921,0.501,0.5282,0.5644,0.5733,0.5733,0.5733,0.5733,0.6612,0.7746,0.8782,1.0763,1.231,1.2378,1.2565,1.2656,0.0,0.0,0.0,0.0,0.0,0.0,0.0,0.0,0.0,0.0,0.0,0.0,0.0,0.0,1.8589,1.8731,1.9341,1.9717,1.9679,0.0,2.2553,2.301,2.526,0.0,2.6416,2.7148,2.7538,2.7478,2.7076,2.6899,2.6827,2.6322,2.5877,2.5606,2.5758,2.6854,2.8379,2.8772,2.9978,3.161,3.199,3.2197,3.2338,0.0,0.0,0.0,0.0,0.0,0.0,0.0,-1.1694,-1.1626,-1.1315,-1.1141,-1.1011,-1.0899,-1.0812,-1.0738,-1.0663,-1.0588,-1.0513,-1.0293,-0.976,-0.9306,-0.8851,-0.7778,-0.6853,-0.6005,-0.539,-0.4854,0.0,0.0,-0.511,-0.5186,-0.5115,0.0,0.0,0.0,-0.3982,-0.3952,-0.3934,-0.3802,-0.3699,-0.3461,-0.3062,-0.2575,-0.2144,-0.1826,-0.1594,-0.1417,-0.098,-0.0359,0.009,0.0535,0.1153,0.2145,0.2955,0.376,0.4476,0.5013,0.546,0.546,0.5552,0.5733,0.5733,0.5733,0.5911,0.6612,0.7482,0.844,0.9653,1.1133,1.2363,1.2619,1.2705,1.2705,0.0,0.0,0.0,0.0,0.0,0.0,0.0,0.0,0.0,0.0,0.0,0.0,0.0,0.0,1.9803,2.0259,2.0941,2.1209,2.0919,0.0,2.445,2.4283,2.6586,2.7699,2.7699,2.8028,2.8198,2.8186,2.7981,2.7705,2.738,2.6827,2.6478,2.6371,2.6444,2.6919,2.7588,2.8007,2.9171,3.0623,3.1054,3.1758,3.2513,-1.2713,0.0,-1.2135,0.0,-1.2043,-1.1912,-1.1333,-1.1362,-1.1271,-1.0935,-1.076,-1.0663,-1.0738,-1.0588,-1.0363,-1.0062,-1.0062,-0.9906,-0.9453,-0.8841,-0.8385,-0.7927,-0.6777,0.0,-0.5464,-0.4767,-0.4387,-0.4309,-0.4229,0.0,-0.4339,0.0,0.0,0.0,-0.3803,-0.3854,-0.3942,-0.3814,-0.3703,-0.3603,-0.3202,-0.2616,-0.2018,-0.1666,-0.1239,-0.0807,-0.0807,-0.0359,0.0359,0.0986,0.1704,0.2422,0.2867,0.3671,0.4565,0.5102,0.546,0.5733,0.5733,0.5733,0.5733,0.5733,0.5997,0.6435,0.7312,0.844,0.9566,1.0788,1.166,1.2272,1.2619,1.2705,1.279,1.296,0.0,0.0,0.0,0.0,0.0,0.0,1.8879,1.9514,1.9862,0.0,0.0,0.0,0.0,0.0,2.1459,2.2006,0.0,0.0,0.0,0.0,0.0,2.7537,2.851,2.851,2.851,2.851,2.851,2.851,2.8222,2.7705,2.7332,2.7079,2.6935,2.6935,2.717,2.7667,2.8101,2.9189,3.0602,3.1047,3.1828,3.2737,-1.2117,-1.1776,-1.1443,-1.0958,-1.0918,-1.0833,-1.0564,-1.0747,-1.0918,-1.0913,-1.0532,-1.0293,-1.0519,-1.0513,-1.0137,-0.9074,-0.9003,-0.8613,-0.7617,-0.754,-0.7076,0.0,0.0,-0.5461,-0.446,-0.4231,-0.4077,-0.4079,0.0,0.0,-0.3845,0.0,-0.3897,-0.3897,-0.3897,-0.3948,-0.3944,-0.3444,-0.3123,-0.286,-0.2278,-0.1408,-0.0448,-0.0448,0.0,0.0718,0.0718,0.1166,0.1884,0.233,0.2957,0.3676,0.4121,0.4565,0.5099,0.5552,0.5733,0.5733,0.5733,0.5733,0.5733,0.5733,0.6612,0.7489,0.7489,0.9314,1.1305,1.2443,1.2705,1.2705,1.2705,1.2705,1.296,1.3568,0.0,0.0,0.0,0.0,0.0,0.0,1.8482,1.8918,1.9733,0.0,0.0,0.0,0.0,0.0,0.0,0.0,0.0,2.3766,2.552,0.0,2.7046,2.7985,2.851,2.851,2.851,2.851,2.851,2.851,2.8222,2.7717,2.7717,2.7416,2.6935,2.6935,2.789,2.9545,2.9887,3.1114,3.2676,3.3101,3.3241,3.3325,-1.1778,-1.1813,-1.1801,-1.1455,-1.1415,-1.1329,-1.092,-1.0874,-1.0869,-1.055,-1.0379,-1.0252,-1.0324,-0.9708,-0.9155,0.0,-0.8309,-0.777,0.0,-0.6769,-0.623,-0.5925,-0.5231,-0.4691,-0.4384,-0.4233,-0.4001,-0.3921,0.0,0.0,0.0,-0.3793,-0.3805,-0.381,-0.3871,-0.3784,-0.353,-0.3474,-0.3211,-0.2776,-0.178,-0.1159,-0.0807,0.0,0.0538,0.0717,0.1075,0.1612,0.233,0.2864,0.3669,0.4565,0.4743,0.4921,0.5099,0.5552,0.5733,0.5733,0.5733,0.5733,0.5822,0.6343,0.6959,0.7837,0.9144,1.0875,1.2266,1.2619,1.2705,1.2705,1.2705,1.3045,1.3476,1.3652,1.465,0.0,0.0,0.0,0.0,0.0,1.9579,2.0149,0.0,2.0893,0.0,0.0,0.0,0.0,0.0,0.0,0.0,0.0,2.6268,0.0,2.707,2.777,2.8203,2.851,2.851,2.851,2.851,2.851,2.8414,2.8258,2.8258,2.8385,2.8602,2.8602,2.9149,3.0048,3.0336,3.1109,3.2101,3.2403,3.2846,3.3269,-1.1657,-1.168,-1.1674,-1.1427,-1.1327,-1.1215,-1.0902,-1.088,-1.0778,-1.0562,-1.0476,-1.0296,-1.0054,-0.8979,0.0,-0.825,-0.7468,-0.6777,-0.6318,-0.5777,-0.5386,-0.5234,-0.4618,-0.4231,-0.4151,0.0,0.0,-0.3763,-0.3763,-0.3763,-0.3763,-0.3608,-0.3545,-0.3576,-0.3471,-0.3307,-0.3066,-0.2937,-0.2638,-0.2151,-0.1255,-0.0538,0.009,0.0807,0.1435,0.1792,0.215,0.2597,0.3223,0.3757,0.438,0.501,0.5191,0.528,0.5282,0.5644,0.5733,0.5733,0.5733,0.5997,0.6523,0.6956,0.7918,0.9226,1.0875,1.2009,1.2705,1.2705,1.2705,1.2705,1.2705,1.3222,1.3822,1.4068,1.5091,1.6124,1.6806,0.0,0.0,0.0,0.0,0.0,0.0,2.1039,0.0,0.0,0.0,0.0,0.0,0.0,0.0,2.57,2.6691,0.0,2.7125,2.7785,2.8283,2.851,2.851,2.851,2.851,2.851,2.851,2.851,2.851,2.8736,2.904,2.904,2.9419,3.0024,3.0317,3.0908,3.1589,3.1996,3.2431,3.286,-1.1705,-1.1505,0.0,0.0,-1.0816,0.0,-1.0659,-1.0578,-1.0658,-1.0955,-1.0624,-1.0239,-0.9601,-0.8267,-0.7458,-0.7374,0.0,0.0,0.0,-0.4626,-0.4467,-0.4079,-0.4079,-0.3999,-0.3841,-0.3841,-0.3763,-0.3763,-0.3763,-0.3765,-0.3763,-0.3295,-0.3099,-0.3165,-0.2767,-0.2588,-0.2608,-0.2176,-0.1586,-0.0987,-0.0448,0.0538,0.1794,0.1884,0.2601,0.3587,0.3676,0.3942,0.4387,0.4921,0.501,0.5099,0.5552,0.5733,0.5733,0.5733,0.5733,0.5733,0.5733,0.6612,0.7489,0.7661,0.9396,1.1391,1.2443,1.2705,1.2705,1.2705,1.2705,1.2705,1.2705,1.3222,1.3906,1.4594,1.5609,1.6619,1.7668,0.0,0.0,0.0,0.0,0.0,0.0,2.0531,2.0906,0.0,0.0,0.0,0.0,0.0,2.4956,2.5874,2.6738,2.7149,2.7231,2.8101,2.8539,2.8619,2.8619,2.8619,2.8619,2.8582,2.857,2.8558,2.8522,2.851,2.8578,2.8578,2.8961,2.9561,3.0165,3.0722,3.1434,3.1963,3.2209,3.2236,0.0,0.0,-1.1262,-1.1262,-1.1063,-1.0902,-1.0902,-1.0569,-1.0424,-1.0475,-0.9582,-0.8972,-0.8763,-0.7264,-0.6318,-0.6251,-0.5431,-0.4746,-0.435,-0.4279,-0.4235,-0.4079,-0.3921,-0.3921,-0.4001,-0.3843,-0.3763,-0.3763,-0.3452,-0.3297,-0.3219,-0.2824,-0.2702,-0.2765,-0.2733,-0.2457,-0.2088,-0.1592,-0.0982,-0.0448,0.0807,0.1525,0.1884,0.2424,0.3051,0.3676,0.4032,0.4476,0.4921,0.5374,0.5552,0.5552,0.5644,0.5733,0.5733,0.5733,0.5733,0.5822,0.6432,0.7048,0.7749,0.8794,1.0448,1.1923,1.2534,1.2705,1.2705,1.2705,1.2705,1.2705,1.2705,1.3222,1.4057,1.5035,1.584,1.6703,1.8,1.8009,0.0,0.0,1.9385,1.9774,1.9995,2.0875,2.183,0.0,0.0,0.0,0.0,2.5163,2.5284,2.5884,2.6425,2.711,2.7842,2.8402,2.9021,2.9713,2.9713,2.9713,2.9701,2.9304,2.9112,2.9088,2.8691,2.8736,2.9197,2.9197,2.9793,3.0771,3.0921,3.166,3.2631,3.2345,3.2467,3.2793,-1.1289,-1.1262,-1.1262,-1.0997,-1.0888,-1.0799,-1.0549,-1.0293,-1.0037,-0.9691,-0.9087,-0.8377,-0.7595,-0.6525,-0.5712,-0.5347,-0.4821,-0.4382,-0.4227,-0.4135,-0.4079,-0.3999,-0.3843,-0.3843,-0.3921,-0.3843,-0.3686,-0.3452,-0.3061,-0.2826,-0.2826,-0.2431,-0.2237,-0.2312,-0.1839,-0.1455,-0.1235,-0.0535,0.009,0.0718,0.1436,0.1974,0.2334,0.2784,0.332,0.3942,0.421,0.4746,0.5371,0.5644,0.5733,0.5733,0.5733,0.5733,0.5733,0.5733,0.5905,0.6343,0.6956,0.7918,0.9139,1.0621,1.166,1.2357,1.2619,1.2705,1.2705,1.2705,1.2705,1.2705,1.2705,1.347,1.4416,1.5219,1.626,1.7249,1.8224,1.8128,0.0,1.8864,1.9474,1.9886,2.0027,2.1185,2.2279,2.2985,0.0,0.0,2.5701,2.601,2.6179,2.6234,2.6656,2.7402,2.8287,2.899,2.9567,3.0086,3.0086,3.0086,3.0074,2.9785,2.9665,2.9629,2.91,2.902,2.9328,2.9328,2.9712,3.0352,3.0918,3.1746,3.2627,3.2537,3.2947,3.3417,-1.1181,-1.1176,-1.0997,-1.0463,-1.0371,-1.0197,-0.9767,-0.9593,-0.9331,-0.8711,-0.8406,-0.7763,-0.6404,-0.588,-0.5344,-0.4741,-0.4502,-0.4349,-0.419,-0.4084,-0.4023,-0.3785,-0.3771,-0.3763,-0.3763,-0.3763,-0.3452,-0.2984,-0.2589,-0.2431,-0.2433,-0.1975,-0.1863,-0.1851,-0.0762,-0.0347,-0.0359,0.0538,0.1256,0.1794,0.1885,0.2423,0.2963,0.2963,0.3587,0.4387,0.4387,0.4926,0.5733,0.5733,0.5733,0.5733,0.5733,0.5733,0.5733,0.5733,0.6257,0.6956,0.7312,0.8882,1.0702,1.2272,1.2705,1.2705,1.2705,1.2705,1.2705,1.2705,1.2705,1.2705,1.279,1.3808,1.4768,1.5454,1.6662,1.7763,1.8311,0.0,1.8351,1.87,1.9379,1.9918,2.0095,2.1418,2.2342,2.2648,2.3998,2.5067,0.0,2.6721,2.7183,2.6955,2.7214,2.7835,2.8832,2.9718,3.0241,3.0241,3.0326,3.0326,3.0326,3.0242,3.0206,3.017,2.9641,2.9412,2.9412,2.9412,2.9494,2.9612,3.0626,3.1493,3.2191,3.258,3.3184,3.3745,-1.085,-1.0722,-1.0376,-0.9327,-0.9152,-0.8969,-0.8257,-0.7822,-0.7474,-0.7386,-0.6495,-0.5791,-0.5544,-0.4996,-0.4461,-0.4389,-0.4282,-0.4216,-0.4218,-0.4055,-0.3879,-0.3879,-0.3803,-0.3763,-0.3763,-0.3374,-0.2982,-0.2589,-0.2195,-0.196,-0.1961,-0.1554,-0.1422,-0.135,-0.0699,-0.0357,-0.0269,0.1076,0.1705,0.1884,0.2513,0.3053,0.3499,0.3499,0.4032,0.4921,0.4921,0.5282,0.5733,0.5733,0.5733,0.5733,0.5733,0.5733,0.5733,0.5997,0.6523,0.7051,0.7139,0.8798,1.089,1.2357,1.2705,1.2705,1.2705,1.2705,1.2705,1.2705,1.2705,1.2875,1.3476,1.373,1.4412,1.6271,1.6545,1.7067,1.8522,0.0,1.7985,1.8343,1.9221,1.9712,1.9376,2.0855,2.1915,2.2274,2.3113,2.4436,2.6099,2.6662,2.743,2.8418,2.8127,2.8409,2.9341,3.0345,3.0802,3.0791,3.1245,3.142,3.1408,3.0951,3.0747,3.0723,3.0194,2.9965,2.9965,2.9965,3.0287,3.077,3.0927,3.1732,3.2649,3.2175,3.2465,3.2963,-0.9962,-0.9473,-0.8903,-0.8109,-0.7918,-0.7742,-0.7122,-0.6864,-0.6599,-0.6251,-0.5665,-0.5127,-0.483,-0.4435,-0.4249,-0.4295,-0.4263,-0.4152,-0.389,-0.3904,-0.3806,-0.3557,-0.352,-0.3421,-0.3177,-0.2689,-0.2445,-0.22,-0.1771,-0.161,-0.155,-0.14,-0.1089,-0.0771,-0.0087,0.0444,0.0897,0.1974,0.2512,0.2781,0.3141,0.3588,0.3944,0.3944,0.4389,0.501,0.501,0.5282,0.5733,0.5733,0.5733,0.5733,0.5733,0.5822,0.5908,0.6083,0.7224,0.8536,0.8886,1.0366,1.1929,1.2534,1.2705,1.2705,1.2705,1.2705,1.2705,1.2705,1.2705,1.2875,1.3568,1.4195,1.4984,1.632,1.698,0.0,0.0,1.8255,1.8273,1.8896,1.9659,2.0136,2.014,2.1643,2.2722,2.288,2.3621,2.4927,2.6928,2.7169,2.7998,2.951,2.9344,2.9387,2.9889,3.08,3.1182,3.0904,3.1451,3.1865,3.2114,3.1584,3.1468,3.1709,3.0867,3.0506,3.0506,3.0506,3.0664,3.0943,3.1235,3.1919,3.2701,3.2449,3.2918,3.3845,-0.9163,-0.8401,-0.7629,-0.6889,-0.6754,-0.6557,-0.6028,-0.5916,-0.5722,-0.5191,-0.5029,-0.4835,-0.438,-0.424,-0.4228,-0.4293,-0.43,-0.4121,-0.3765,-0.3826,-0.3663,-0.3219,-0.3117,-0.2941,-0.2439,-0.2186,-0.1934,-0.185,-0.1489,-0.1325,-0.1263,-0.1177,-0.0765,-0.0261,0.0617,0.1337,0.1884,0.2603,0.3142,0.3409,0.3588,0.3855,0.43,0.4387,0.4743,0.5191,0.5191,0.5371,0.5733,0.5733,0.5733,0.5733,0.5733,0.5908,0.6171,0.6435,0.8185,1.0101,1.0631,1.1585,1.2448,1.2619,1.2705,1.2705,1.2705,1.2705,1.2705,1.2705,1.279,1.313,1.3815,1.4753,1.5618,1.6405,0.0,0.0,0.0,1.8351,1.8643,1.9445,2.0046,2.0494,2.0949,2.2317,2.3229,2.3256,2.4267,2.5582,2.744,2.786,2.8849,3.0515,3.0345,3.0214,3.0214,3.1061,3.1346,3.1064,3.1611,3.2205,3.2665,3.2225,3.2214,3.2454,3.1613,3.118,3.106,3.106,3.106,3.1096,3.1504,3.2013,3.245,3.2624,3.3386,3.4301,-0.878,-0.8027,-0.7088,-0.5954,-0.5678,-0.5334,-0.4699,-0.4533,-0.4476,-0.4389,-0.4383,-0.438,-0.4297,-0.4293,-0.4293,-0.4297,-0.43,-0.43,-0.421,-0.3844,-0.3364,-0.2778,-0.2721,-0.2439,-0.2018,-0.2018,-0.1767,-0.1348,-0.1346,-0.1261,-0.1265,-0.0625,-0.036,-0.0261,0.1107,0.1762,0.1884,0.2603,0.2964,0.2963,0.3409,0.3855,0.4387,0.4743,0.528,0.5644,0.5644,0.5644,0.5733,0.5733,0.5733,0.5733,0.5733,0.5908,0.6346,0.7397,0.9318,1.1149,1.1241,1.1322,1.1585,1.2443,1.2705,1.2705,1.2705,1.2705,1.2705,1.2705,1.3215,1.3815,1.4482,1.5166,1.6042,1.7054,0.0,0.0,1.8653,1.851,1.8557,1.9343,1.9784,2.0339,2.089,2.1655,2.2375,2.2905,2.442,2.5937,2.7236,2.8749,3.0157,3.1509,3.0635,3.0155,3.0155,3.0674,3.1145,3.1674,3.2147,3.2746,3.3284,3.32,3.2923,3.2491,3.2418,3.2082,3.1613,3.1613,3.1613,3.1613,3.1649,3.1749,3.1837,3.245,3.2797,3.3043,-0.7065,-0.6285,-0.5593,-0.5054,-0.4917,-0.478,-0.4442,-0.4406,-0.4363,-0.4306,-0.43,-0.43,-0.43,-0.43,-0.43,-0.43,-0.4032,-0.3764,-0.3494,-0.2959,-0.2593,-0.2395,-0.2024,-0.1752,-0.1663,-0.1663,-0.1577,-0.1402,-0.1383,-0.1124,-0.0701,-0.0443,0.0176,0.0957,0.1556,0.2303,0.2964,0.341,0.391,0.4465,0.4589,0.4838,0.5282,0.5397,0.5552,0.5733,0.5733,0.5733,0.5733,0.5733,0.5733,0.5733,0.5733,0.6174,0.7051,0.8973,1.0366,1.1408,1.2015,1.2186,1.2272,1.2619,1.2837,1.2964,1.2964,1.3091,1.3294,1.3818,1.4089,1.4609,1.5821,1.6416,1.6885,1.751,0.0,1.8303,1.8478,1.8573,1.8816,1.9458,2.0145,2.0746,2.1322,2.2348,2.3299,2.3975,2.4881,2.6064,2.7872,2.9572,3.0813,3.1607,3.1269,3.0941,3.0635,3.113,3.1329,3.1216,3.1716,3.2265,3.2736,3.2794,3.2853,3.2972,3.2942,3.2683,3.2178,3.2178,3.1973,3.1661,3.1661,3.1661,3.1749,3.2013,3.2363,3.2797,-0.6038,-0.5239,-0.4728,-0.4665,-0.4632,-0.4594,-0.453,-0.4496,-0.4455,-0.4391,-0.427,-0.4072,-0.4072,-0.3957,-0.3851,-0.3851,-0.3585,-0.3227,-0.2957,-0.2422,-0.2154,-0.1974,-0.1615,-0.1436,-0.1436,-0.1436,-0.1256,-0.1076,-0.106,-0.0705,-0.0089,0.0176,0.0871,0.1723,0.2265,0.2928,0.3687,0.4027,0.4569,0.5225,0.5213,0.5373,0.576,0.5703,0.5757,0.5787,0.5787,0.5763,0.5738,0.5773,0.5763,0.5733,0.5997,0.6959,0.8448,1.0284,1.1294,1.2054,1.2665,1.2898,1.294,1.2856,1.3043,1.3248,1.3248,1.3387,1.3604,1.4141,1.4591,1.5212,1.6271,1.6981,1.7517,1.7723,1.8271,1.8613,1.8486,1.8772,1.9127,1.9597,2.049,2.1199,2.1681,2.2867,2.4012,2.5073,2.5742,2.6901,2.8794,3.0154,3.0985,3.1171,3.1313,3.116,3.0679,3.1313,3.1556,3.1417,3.1728,3.2295,3.2889,3.2738,3.2936,3.3197,3.3074,3.2731,3.2238,3.2238,3.201,3.1685,3.1853,3.1925,3.2014,3.218,3.2533,3.2947,-0.5942,-0.5338,-0.4834,-0.4834,-0.4765,-0.471,-0.4708,-0.4632,-0.4573,-0.4573,-0.4027,-0.3701,-0.3701,-0.3177,-0.2867,-0.2867,-0.2867,-0.2867,-0.2867,-0.2422,-0.1974,-0.1436,-0.1436,-0.1436,-0.1436,-0.1436,-0.1076,-0.0359,-0.0359,-0.0089,0.0608,0.1421,0.1753,0.1686,0.315,0.3749,0.3778,0.4404,0.4668,0.4754,0.5027,0.5327,0.5402,0.5644,0.5806,0.5904,0.5904,0.5833,0.5754,0.5866,0.5828,0.5822,0.6605,0.844,1.0448,1.1068,1.2122,1.3127,1.3127,1.332,1.3459,1.3194,1.332,1.3519,1.3519,1.3519,1.3519,1.3519,1.4591,1.5575,1.5665,1.6815,1.7787,1.7787,1.8081,1.8438,1.8788,1.9153,1.9495,1.982,2.0663,2.137,2.1961,2.316,2.4434,2.5929,2.7112,2.8476,3.0112,3.0646,3.069,3.0242,3.0657,3.0679,3.022,3.1149,3.1913,3.2398,3.2398,3.2912,3.3918,3.3402,3.3197,3.3272,3.2743,3.2202,3.1685,3.1673,3.1673,3.1733,3.2286,3.2503,3.2593,3.3264,3.3531,3.3532,-0.5135,-0.4935,-0.4834,-0.4834,-0.4814,-0.4676,-0.4223,-0.4096,-0.3966,-0.3531,-0.3276,-0.3144,-0.3144,-0.2994,-0.2867,-0.2867,-0.2599,-0.2242,-0.1883,-0.1705,-0.1525,-0.1436,-0.1436,-0.1436,-0.1436,-0.0897,-0.0628,-0.0359,0.009,0.071,0.139,0.1574,0.1988,0.2444,0.3277,0.3879,0.4222,0.4866,0.5329,0.5705,0.5764,0.5865,0.5889,0.5914,0.6002,0.6032,0.6032,0.601,0.5972,0.592,0.588,0.6122,0.7739,0.9344,1.0805,1.1958,1.2878,1.3399,1.3399,1.3592,1.3725,1.3465,1.3598,1.3791,1.3791,1.393,1.4251,1.4716,1.5806,1.6798,1.7369,1.841,1.9241,1.9241,1.9328,1.9431,1.9542,1.9646,1.9757,1.9852,2.0663,2.137,2.1961,2.2906,2.3999,2.5388,2.6388,2.7621,2.9381,2.954,3.0149,3.1181,3.1007,3.0821,3.069,3.0646,3.0734,3.0822,3.0822,3.1197,3.1806,3.2067,3.2506,3.3266,3.3041,3.3101,3.3308,3.2947,3.2803,3.2779,3.2575,3.2503,3.2454,3.2313,3.2256,3.2232,-0.4834,-0.4834,-0.4834,-0.4834,-0.4634,-0.4318,-0.3971,-0.3767,-0.3457,-0.3125,-0.2875,-0.2736,-0.2621,-0.248,-0.2352,-0.2332,-0.2063,-0.1705,-0.1436,-0.1436,-0.1436,-0.1436,-0.1166,-0.0987,-0.0987,-0.0633,-0.009,0.0448,0.0897,0.1502,0.206,0.2229,0.2542,0.2993,0.3732,0.4374,0.4815,0.5351,0.5852,0.6217,0.6124,0.614,0.6214,0.6121,0.6116,0.6157,0.6157,0.6127,0.6075,0.5999,0.6492,0.7353,0.9075,1.0486,1.1764,1.2734,1.3312,1.367,1.367,1.3857,1.4051,1.4002,1.4111,1.4195,1.4087,1.4346,1.4777,1.5538,1.6517,1.7505,1.8282,1.9233,1.9868,1.9868,1.9868,1.9868,1.9868,1.9979,2.0075,2.0075,2.0875,2.1587,2.2184,2.3169,2.4463,2.5925,2.6675,2.7605,2.8964,2.9184,2.9859,3.105,3.0777,3.0526,3.0341,2.9871,2.9827,3.0209,3.0209,3.0548,3.1197,3.16,3.2271,3.3221,3.3194,3.3458,3.3717,3.3416,3.3284,3.326,3.2935,3.2815,3.2743,3.2202,3.1997,3.1961,-0.4834,-0.4834,-0.4834,-0.4734,-0.4334,-0.3932,-0.3831,-0.343,-0.313,-0.3029,-0.268,-0.2337,-0.2194,-0.1781,-0.1472,-0.1442,-0.1442,-0.1442,-0.144,-0.144,-0.1438,-0.1436,-0.0719,-0.0359,-0.0269,-0.0274,0.0457,0.1794,0.1884,0.2197,0.2785,0.3118,0.3333,0.3435,0.4426,0.5053,0.5349,0.5831,0.6192,0.6372,0.6179,0.6222,0.6382,0.6179,0.6165,0.6252,0.6252,0.6187,0.6102,0.6289,0.7499,0.9285,1.0476,1.1802,1.2911,1.3391,1.3755,1.3942,1.3942,1.4135,1.4395,1.4654,1.4751,1.4714,1.4431,1.4751,1.5236,1.5875,1.6837,1.774,1.8632,1.9473,1.9995,1.9963,1.9979,1.9995,1.9963,2.0241,2.044,2.044,2.1249,2.197,2.2477,2.3867,2.529,2.6788,2.7353,2.7925,2.8765,2.9325,2.9823,3.0351,3.0341,3.0144,2.9751,2.9172,2.9314,3.0144,3.0144,3.0613,3.1593,3.1621,3.2172,3.3118,3.3149,3.3146,3.3323,3.3239,3.3308,3.3356,3.3308,3.326,3.3152,3.2623,3.243,3.2358,-0.4834,-0.4834,-0.4634,-0.4234,-0.4033,-0.3731,-0.2924,-0.2623,-0.2423,-0.202,-0.1888,-0.1754,-0.172,-0.1615,-0.1504,-0.1473,-0.1493,-0.1496,-0.1472,-0.1471,-0.146,-0.1436,-0.0729,-0.0091,0.0448,0.0991,0.1442,0.1794,0.2424,0.2922,0.3364,0.3449,0.361,0.402,0.466,0.4922,0.5141,0.5707,0.5972,0.6032,0.617,0.6203,0.6168,0.6211,0.6187,0.6124,0.6124,0.617,0.6421,0.7369,0.9059,1.0789,1.161,1.2456,1.3205,1.3968,1.4165,1.4214,1.4214,1.4419,1.4642,1.4702,1.5028,1.5264,1.4992,1.5022,1.5291,1.6121,1.7129,1.8152,1.8981,2.0225,2.1012,2.0734,2.0925,2.1012,2.0734,2.0758,2.0805,2.0805,2.1615,2.2345,2.2954,2.4337,2.5399,2.569,2.5526,2.6237,2.7955,2.8594,2.9578,3.1211,3.1313,3.1465,3.1749,3.0515,2.9805,2.9642,2.9642,3.0176,3.1097,3.1086,3.1595,3.2508,3.1746,3.2383,3.375,3.3031,3.3125,3.3837,3.344,3.3032,3.2611,3.2058,3.1841,3.1829,-0.4834,-0.4634,-0.4334,-0.4033,-0.353,-0.3026,-0.2521,-0.2221,-0.1919,-0.1617,-0.1603,-0.1581,-0.1551,-0.1548,-0.1536,-0.1505,-0.1517,-0.1519,-0.1503,-0.1209,-0.0921,-0.0911,0.0091,0.1002,0.1637,0.2366,0.2731,0.2731,0.3096,0.3514,0.3967,0.414,0.4404,0.4667,0.5156,0.5453,0.5611,0.5895,0.6053,0.6159,0.6173,0.6179,0.6173,0.6179,0.6143,0.6092,0.6151,0.6594,0.7414,0.8568,1.0121,1.175,1.2438,1.3131,1.3809,1.401,1.4201,1.4298,1.4298,1.4503,1.4775,1.5028,1.5294,1.5433,1.5167,1.53,1.5749,1.6934,1.7749,1.8583,1.9834,2.064,2.1195,2.1179,2.133,2.1441,2.1417,2.1417,2.1417,2.1417,2.2095,2.3014,2.4027,2.4927,2.5537,2.5922,2.5573,2.622,2.8274,2.8925,3.0025,3.1875,3.1979,3.2001,3.2022,3.0821,3.0199,3.0144,2.9696,2.986,3.057,3.0855,3.1184,3.1726,3.1889,3.2517,3.325,3.2959,3.3048,3.3217,3.2712,3.2195,3.1757,3.1227,3.0937,3.0937,-0.4653,-0.4243,-0.3831,-0.3731,-0.3025,-0.2321,-0.2321,-0.1918,-0.1617,-0.1617,-0.1617,-0.1605,-0.1575,-0.1571,-0.1564,-0.1543,-0.1541,-0.1443,-0.1342,-0.0755,-0.028,-0.0093,0.1281,0.2284,0.2877,0.3544,0.3919,0.3999,0.3907,0.4139,0.4504,0.4876,0.5145,0.522,0.5697,0.6045,0.6233,0.6151,0.6227,0.6391,0.6195,0.6165,0.6227,0.6124,0.6062,0.604,0.6353,0.7359,0.871,0.9577,1.1048,1.2531,1.3162,1.3767,1.4208,1.4081,1.4135,1.4262,1.4395,1.4606,1.4902,1.5378,1.5529,1.5511,1.5288,1.5682,1.6449,1.7764,1.8379,1.9129,2.0695,2.1107,2.1266,2.1497,2.1584,2.1703,2.1926,2.1957,2.1957,2.1957,2.2658,2.3699,2.5272,2.5554,2.5858,2.6536,2.6197,2.6833,2.8856,2.9403,3.0553,3.2383,3.2459,3.2339,3.2001,3.1061,3.0777,3.1138,3.0177,2.998,3.045,3.084,3.1035,3.1158,3.2293,3.2727,3.254,3.2784,3.2769,3.2443,3.2018,3.1547,3.1042,3.0537,3.0342,3.0342,-0.422,-0.3775,-0.3128,-0.2724,-0.2521,-0.222,-0.1818,-0.1617,-0.1617,-0.1617,-0.1617,-0.1605,-0.1575,-0.1571,-0.1581,-0.1603,-0.1605,-0.1294,-0.0587,-0.0488,0.0097,0.1328,0.2176,0.2932,0.3506,0.4238,0.453,0.4555,0.4555,0.4788,0.5059,0.5244,0.5516,0.5794,0.6007,0.6081,0.6116,0.6206,0.6263,0.6287,0.6257,0.6189,0.6108,0.6092,0.5958,0.5885,0.6639,0.8236,1.0129,1.0589,1.1879,1.3352,1.3696,1.3836,1.4045,1.4479,1.4298,1.4111,1.4811,1.5028,1.5125,1.5421,1.5668,1.5831,1.5795,1.6467,1.7246,1.815,1.9237,2.0212,2.1168,2.187,2.2188,2.1934,2.2148,2.2259,2.1989,2.1957,2.1957,2.1957,2.3212,2.4759,2.6245,2.6454,2.6472,2.6582,2.6197,2.671,2.8435,2.8961,3.0232,3.2361,3.2765,3.3147,3.3497,3.2558,3.2121,3.2164,3.1181,3.0963,3.1422,3.1096,3.1129,3.1512,3.1317,3.1695,3.2398,3.2049,3.2154,3.2477,3.2386,3.2053,3.157,3.0972,3.0789,3.0789,-0.3724,-0.3166,-0.2724,-0.2422,-0.212,-0.1919,-0.1617,-0.1617,-0.1617,-0.1617,-0.1617,-0.1611,-0.1598,-0.1597,-0.1602,-0.1615,-0.1212,-0.0604,0.0,0.0887,0.1756,0.2709,0.3446,0.4115,0.4739,0.5072,0.5391,0.5696,0.5349,0.5396,0.5823,0.5875,0.5968,0.6113,0.6227,0.6282,0.6285,0.6339,0.6363,0.6358,0.6293,0.6195,0.6078,0.601,0.6147,0.645,0.7757,0.9192,1.0736,1.1288,1.2357,1.359,1.3806,1.4008,1.4171,1.4413,1.4527,1.4654,1.501,1.5215,1.539,1.565,1.5916,1.6217,1.675,1.7626,1.8447,1.8596,1.9531,2.0545,2.1589,2.1981,2.2204,2.2243,2.2386,2.2498,2.2545,2.2545,2.2766,2.3527,2.4107,2.5055,2.6464,2.6591,2.6591,2.6591,2.6417,2.6836,2.7978,2.8613,2.9467,3.0946,3.1837,3.2383,3.2319,3.2086,3.1957,3.1946,3.0974,3.0624,3.0832,3.0876,3.0723,3.0461,3.105,3.1359,3.1617,3.1583,3.1651,3.1582,3.1571,3.1292,3.0856,3.0633,3.0555,3.0555]},{"header":{"parameterUnit":"m.s-1","parameterCategory":1,"la1":30.6,"la2":28.766,"lo1":-90.7593,"lo2":-88.6598,"dx":0.0162,"dy":0.0183,"nx":116,"ny":114,"refTime":"2023-01-25T06:00:00:Z","depth":0,"parameterNumber":3,"parameterNumberName":"V-component_of_WINDS"},"data":[0.0,0.0,0.0,0.0,0.0,0.0,0.0,0.0,0.0,0.0,0.0,0.0,0.0,0.0,0.0,0.0,0.0,0.0,0.0,0.0,0.0,0.0,0.0,0.0,0.0,0.0,0.0,0.0,0.0,0.0,0.0,0.0,0.0,0.0,0.0,0.0,0.0,0.0,0.0,0.0,0.0,0.0,0.0,0.0,0.0,0.0,0.0,0.0,0.0,0.0,0.0,0.0,0.0,0.0,0.0,0.0,0.0,0.0,0.0,0.0,0.0,0.0,0.0,0.0,0.0,0.0,0.0,0.0,0.0,0.0,0.0,0.0,0.0,0.0,0.0,0.0,0.0,0.0,0.0,0.0,0.0,0.0,0.0,0.0,0.0,0.0,0.0,0.0,0.0,0.0,0.0,0.0,0.0,0.0,0.0,0.0,0.0,0.0,0.0,0.0,0.0,0.0,0.0,0.0,0.0,0.0,0.0,0.0,0.0,0.0,0.0,0.0,0.0,0.0,0.0,0.0,0.0,0.0,0.0,0.0,0.0,0.0,0.0,0.0,0.0,0.0,0.0,0.0,0.0,0.0,0.0,0.0,0.0,0.0,0.0,0.0,0.0,0.0,0.0,0.0,0.0,0.0,0.0,0.0,0.0,0.0,0.0,0.0,0.0,0.0,0.0,0.0,0.0,0.0,0.0,0.0,0.0,0.0,0.0,0.0,0.0,0.0,0.0,0.0,0.0,0.0,0.0,0.0,0.0,0.0,0.0,0.0,0.0,0.0,0.0,0.0,0.0,0.0,0.0,0.0,0.0,0.0,0.0,0.0,0.0,0.0,0.0,0.0,0.0,0.0,0.0,0.0,0.0,0.0,0.0,0.0,0.0,0.0,0.0,0.0,0.0,0.0,0.0,0.0,0.0,0.0,0.0,0.0,0.0,0.0,0.0,0.0,0.0,0.0,0.0,0.0,0.0,0.0,0.0,0.0,0.0,0.0,0.0,0.0,0.0,0.0,0.0,0.0,0.0,0.0,0.0,0.0,0.0,0.0,0.0,0.0,0.0,0.0,0.0,0.0,0.0,0.0,0.0,0.0,0.0,0.0,0.0,0.0,0.0,0.0,0.0,0.0,0.0,0.0,0.0,0.0,0.0,0.0,0.0,0.0,0.0,0.0,0.0,0.0,0.0,0.0,0.0,0.0,0.0,0.0,0.0,0.0,0.0,0.0,0.0,0.0,0.0,0.0,0.0,0.0,0.0,0.0,0.0,0.0,0.0,0.0,0.0,0.0,0.0,0.0,0.0,0.0,0.0,0.0,0.0,0.0,0.0,0.0,0.0,0.0,0.0,0.0,0.0,0.0,0.0,0.0,0.0,0.0,0.0,0.0,0.0,0.0,0.0,0.0,0.0,0.0,0.0,0.0,0.0,0.0,0.0,0.0,0.0,0.0,0.0,0.0,0.0,0.0,0.0,0.0,0.0,0.0,0.0,0.0,0.0,0.0,0.0,0.0,0.0,0.0,0.0,0.0,0.0,0.0,0.0,0.0,0.0,0.0,0.0,0.0,0.0,0.0,0.0,0.0,0.0,0.0,0.0,0.0,0.0,0.0,0.0,0.0,0.0,0.0,0.0,0.0,0.0,0.0,0.0,0.0,0.0,0.0,0.0,0.0,0.0,0.0,0.0,0.0,0.0,0.0,0.0,0.0,0.0,0.0,0.0,0.0,0.0,0.0,0.0,0.0,0.0,0.0,0.0,0.0,0.0,0.0,0.0,0.0,0.0,0.0,0.0,0.0,0.0,0.0,0.0,0.0,0.0,0.0,0.0,0.0,0.0,0.0,0.0,0.0,0.0,0.0,0.0,0.0,0.0,0.0,0.0,0.0,0.0,0.0,0.0,0.0,0.0,0.0,0.0,0.0,0.0,0.0,0.0,0.0,0.0,0.0,0.0,0.0,0.0,0.0,0.0,0.0,0.0,0.0,0.0,0.0,0.0,0.0,0.0,0.0,0.0,0.0,0.0,0.0,0.0,0.0,0.0,0.0,0.0,0.0,0.0,0.0,0.0,0.0,0.0,0.0,0.0,0.0,0.0,0.0,0.0,0.0,0.0,0.0,0.0,0.0,0.0,0.0,0.0,0.0,0.0,0.0,0.0,0.0,0.0,0.0,0.0,0.0,0.0,0.0,0.0,0.0,0.0,0.0,0.0,0.0,0.0,0.0,0.0,0.0,0.0,0.0,0.0,0.0,0.0,0.0,0.0,0.0,0.0,0.0,0.0,0.0,0.0,0.0,0.0,0.0,0.0,0.0,0.0,0.0,0.0,0.0,0.0,0.0,0.0,0.0,0.0,0.0,0.0,0.0,0.0,0.0,0.0,0.0,0.0,0.0,0.0,0.0,0.0,0.0,0.0,0.0,0.0,0.0,0.0,0.0,0.0,0.0,0.0,0.0,0.0,0.0,0.0,0.0,0.0,0.0,0.0,0.0,0.0,0.0,0.0,0.0,0.0,0.0,0.0,0.0,0.0,0.0,0.0,0.0,0.0,0.0,0.0,0.0,0.0,0.0,0.0,0.0,0.0,0.0,0.0,0.0,0.0,0.0,0.0,0.0,0.0,0.0,0.0,0.0,0.0,0.0,0.0,0.0,0.0,0.0,0.0,0.0,0.0,0.0,0.0,0.0,0.0,0.0,0.0,0.0,0.0,0.0,0.0,0.0,0.0,0.0,0.0,0.0,0.0,0.0,0.0,0.0,0.0,0.0,0.0,0.0,0.0,0.0,0.0,0.0,0.0,0.0,0.0,0.0,0.0,0.0,0.0,0.0,0.0,0.0,0.0,0.0,0.0,0.0,0.0,0.0,0.0,0.0,0.0,0.0,0.0,0.0,0.0,0.0,0.0,0.0,0.0,0.0,0.0,0.0,0.0,0.0,0.0,0.0,0.0,0.0,0.0,0.0,0.0,0.0,0.0,0.0,0.0,0.0,0.0,0.0,0.0,0.0,0.0,0.0,0.0,0.0,0.0,0.0,0.0,0.0,0.0,0.0,0.0,0.0,0.0,0.0,0.0,0.0,0.0,0.0,0.0,0.0,0.0,0.0,0.0,0.0,0.0,0.0,0.0,0.0,0.0,0.0,0.0,0.0,0.0,0.0,0.0,0.0,0.0,0.0,0.0,0.0,0.0,0.0,0.0,0.0,0.0,0.0,0.0,0.0,0.0,0.0,0.0,0.0,0.0,0.0,0.0,0.0,0.0,0.0,0.0,0.0,0.0,0.0,0.0,0.0,0.0,0.0,0.0,0.0,0.0,0.0,0.0,0.0,0.0,0.0,0.0,0.0,0.0,0.0,0.0,0.0,0.0,0.0,0.0,0.0,0.0,0.0,0.0,0.0,0.0,0.0,0.0,0.0,0.0,0.0,0.0,0.0,0.0,0.0,0.0,0.0,0.0,0.0,0.0,0.0,0.0,0.0,0.0,0.0,0.0,0.0,0.0,0.0,0.0,0.0,0.0,0.0,0.0,0.0,0.0,0.0,0.0,0.0,0.0,0.0,0.0,0.0,0.0,0.0,0.0,0.0,0.0,0.0,0.0,0.0,0.0,0.0,0.0,0.0,0.0,0.0,0.0,0.0,0.0,0.0,0.0,0.0,0.0,0.0,0.0,0.0,0.0,0.0,0.0,0.0,0.0,0.0,0.0,0.0,0.0,0.0,0.0,0.0,0.0,0.0,0.0,0.0,0.0,0.0,0.0,0.0,0.0,0.0,0.0,0.0,0.0,0.0,0.0,0.0,0.0,0.0,0.0,0.0,0.0,0.0,0.0,0.0,0.0,0.0,0.0,0.0,0.0,0.0,0.0,0.0,0.0,0.0,0.0,0.0,0.0,0.0,0.0,0.0,0.0,0.0,0.0,0.0,0.0,0.0,0.0,0.0,0.0,0.0,0.0,0.0,0.0,0.0,0.0,0.0,0.0,0.0,0.0,0.0,0.0,0.0,0.0,0.0,0.0,0.0,0.0,0.0,0.0,0.0,0.0,0.0,0.0,0.0,0.0,0.0,0.0,0.0,0.0,0.0,0.0,0.0,0.0,0.0,0.0,0.0,0.0,0.0,0.0,0.0,0.0,0.0,0.0,0.0,0.0,0.0,0.0,0.0,0.0,0.0,0.0,0.0,0.0,0.0,0.0,0.0,0.0,0.0,0.0,0.0,0.0,0.0,0.0,0.0,0.0,0.0,0.0,0.0,0.0,0.0,0.0,0.0,0.0,0.0,0.0,0.0,0.0,0.0,0.0,0.0,0.0,0.0,0.0,0.0,0.0,0.0,0.0,0.0,0.0,0.0,0.0,0.0,0.0,0.0,0.0,0.0,0.0,0.0,0.0,0.0,0.0,0.0,0.0,0.0,0.0,0.0,0.0,0.0,0.0,0.0,0.0,0.0,0.0,0.0,0.0,0.0,0.0,0.0,0.0,0.0,0.0,0.0,0.0,0.0,0.0,0.0,0.0,0.0,0.0,0.0,0.0,0.0,0.0,0.0,0.0,0.0,0.0,0.0,0.0,0.0,0.0,0.0,0.0,0.0,0.0,0.0,0.0,0.0,0.0,0.0,0.0,0.0,0.0,0.0,0.0,0.0,0.0,0.0,0.0,0.0,0.0,0.0,0.0,0.0,0.0,0.0,0.0,0.0,0.0,0.0,0.0,0.0,0.0,0.0,0.0,0.0,0.0,0.0,0.0,0.0,0.0,0.0,0.0,0.0,0.0,0.0,0.0,0.0,0.0,0.0,0.0,0.0,0.0,0.0,0.0,0.0,0.0,0.0,0.0,0.0,0.0,0.0,0.0,0.0,0.0,0.0,0.0,0.0,0.0,0.0,0.0,0.0,0.0,0.0,0.0,0.0,0.0,0.0,0.0,0.0,0.0,0.0,0.0,0.0,0.0,0.0,0.0,0.0,0.0,0.0,0.0,0.0,0.0,0.0,0.0,0.0,0.0,0.0,0.0,0.0,0.0,0.0,0.0,0.0,0.0,0.0,0.0,0.0,0.0,0.0,0.0,0.0,0.0,0.0,0.0,0.0,0.0,0.0,0.0,0.0,0.0,0.0,0.0,0.0,0.0,0.0,0.0,0.0,0.0,0.0,0.0,0.0,0.0,0.0,0.0,0.0,0.0,0.0,0.0,0.0,0.0,0.0,0.0,0.0,0.0,0.0,0.0,0.0,0.0,0.0,0.0,0.0,0.0,0.0,0.0,0.0,0.0,0.0,0.0,0.0,0.0,0.0,0.0,0.0,0.0,0.0,0.0,0.0,0.0,0.0,0.0,0.0,0.0,0.0,0.0,0.0,0.0,0.0,0.0,0.0,0.0,0.0,0.0,0.0,0.0,0.0,0.0,0.0,0.0,0.0,0.0,0.0,0.0,0.0,0.0,0.0,0.0,0.0,0.0,0.0,0.0,0.0,0.0,0.0,0.0,0.0,0.0,0.0,0.0,0.0,0.0,0.0,0.0,0.0,0.0,0.0,0.0,0.0,0.0,0.0,0.0,0.0,0.0,0.0,0.0,0.0,0.0,0.0,0.0,0.0,0.0,0.0,0.0,0.0,0.0,0.0,0.0,0.0,0.0,0.0,0.0,0.0,0.0,0.0,0.0,0.0,0.0,0.0,0.0,0.0,0.0,0.0,0.0,0.0,0.0,0.0,0.0,0.0,0.0,0.0,0.0,0.0,0.0,0.0,0.0,0.0,0.0,0.0,0.0,0.0,0.0,0.0,0.0,0.0,0.0,0.0,0.0,0.0,0.0,0.0,0.0,0.0,0.0,0.0,0.0,0.0,0.0,0.0,0.0,0.0,0.0,0.0,0.0,0.0,0.0,0.0,0.0,0.0,0.0,0.0,0.0,0.0,0.0,0.0,0.0,0.0,0.0,0.0,0.0,0.0,0.0,0.0,0.0,0.0,0.0,0.0,0.0,0.0,0.0,0.0,0.0,0.0,0.0,0.0,0.0,0.0,0.0,0.0,0.0,0.0,0.0,0.0,0.0,0.0,0.0,0.0,0.0,0.0,0.0,0.0,0.0,0.0,0.0,0.0,0.0,0.0,0.0,0.0,0.0,0.0,0.0,0.0,0.0,0.0,-1.183,0.0,0.0,0.0,0.0,0.0,0.0,0.0,0.0,0.0,0.0,0.0,0.0,0.0,0.0,0.0,0.0,0.0,0.0,0.0,0.0,0.0,0.0,0.0,0.0,0.0,0.0,0.0,0.0,0.0,0.0,0.0,0.0,0.0,0.0,0.0,0.0,0.0,0.0,0.0,0.0,0.0,0.0,0.0,0.0,0.0,0.0,0.0,0.0,0.0,0.0,0.0,0.0,0.0,0.0,0.0,0.0,0.0,0.0,0.0,0.0,0.0,0.0,0.0,0.0,0.0,0.0,0.0,0.0,0.0,0.0,0.0,0.0,0.0,0.0,0.0,0.0,0.0,0.0,0.0,0.0,0.0,0.0,0.0,0.0,0.0,0.0,0.0,0.0,0.0,0.0,0.0,0.0,0.0,0.0,0.0,0.0,0.0,0.0,0.0,0.0,0.0,0.0,0.0,0.0,0.0,0.0,0.0,0.0,0.0,0.0,0.0,0.0,0.0,0.0,0.0,0.0,-1.2158,0.0,0.0,0.0,0.0,0.0,0.0,0.0,0.0,0.0,0.0,0.0,0.0,0.0,0.0,0.0,0.0,0.0,0.0,0.0,0.0,0.0,0.0,0.0,0.0,0.0,0.0,0.0,0.0,0.0,0.0,0.0,0.0,0.0,0.0,0.0,0.0,0.0,0.0,0.0,0.0,0.0,0.0,0.0,0.0,0.0,0.0,0.0,0.0,0.0,0.0,0.0,0.0,0.0,0.0,0.0,0.0,0.0,0.0,0.0,0.0,0.0,0.0,0.0,0.0,0.0,0.0,0.0,0.0,0.0,0.0,0.0,0.0,0.0,0.0,0.0,0.0,0.0,0.0,0.0,0.0,0.0,0.0,0.0,0.0,0.0,0.0,0.0,0.0,0.0,0.0,0.0,0.0,0.0,0.0,0.0,0.0,0.0,0.0,0.0,0.0,0.0,0.0,0.0,0.0,0.0,0.0,0.0,0.0,-1.3692,-1.401,-1.3941,-1.4579,-1.451,-1.3855,-1.2474,-1.2351,-1.307,0.0,0.0,0.0,0.0,0.0,0.0,0.0,0.0,0.0,0.0,0.0,0.0,0.0,0.0,0.0,0.0,0.0,0.0,0.0,0.0,0.0,0.0,0.0,0.0,0.0,0.0,0.0,0.0,0.0,0.0,0.0,0.0,0.0,0.0,0.0,0.0,0.0,0.0,0.0,0.0,0.0,0.0,0.0,0.0,0.0,0.0,0.0,0.0,0.0,0.0,0.0,0.0,0.0,0.0,0.0,0.0,0.0,0.0,0.0,0.0,0.0,0.0,0.0,0.0,0.0,0.0,0.0,0.0,0.0,0.0,0.0,0.0,0.0,0.0,0.0,0.0,0.0,0.0,0.0,0.0,0.0,0.0,0.0,0.0,0.0,0.0,0.0,-1.0184,-1.1176,0.0,0.0,0.0,0.0,0.0,0.0,0.0,0.0,0.0,0.0,0.0,0.0,0.0,0.0,-1.37,-1.4052,-1.4222,-1.4222,-1.435,-1.4112,-1.3571,-1.3692,-1.3381,-1.272,-1.2964,0.0,-1.3329,-1.4052,0.0,0.0,0.0,0.0,0.0,0.0,0.0,0.0,0.0,0.0,0.0,0.0,0.0,0.0,0.0,0.0,0.0,0.0,0.0,0.0,0.0,0.0,0.0,0.0,0.0,0.0,0.0,0.0,0.0,0.0,0.0,0.0,0.0,0.0,0.0,0.0,0.0,0.0,0.0,0.0,0.0,0.0,0.0,0.0,0.0,0.0,0.0,0.0,0.0,0.0,0.0,0.0,0.0,0.0,0.0,0.0,0.0,0.0,0.0,0.0,0.0,0.0,0.0,0.0,0.0,0.0,0.0,0.0,0.0,0.0,0.0,0.0,0.0,0.0,0.0,0.0,0.0,0.0,0.0,0.0,0.0,0.0,0.0,0.0,0.0,-0.9301,-1.0659,-1.1035,-1.1852,-1.2441,0.0,0.0,0.0,0.0,0.0,0.0,0.0,0.0,0.0,-1.425,-1.3544,-1.3576,-1.4451,-1.4356,-1.4479,-1.4809,-1.4479,-1.4197,-1.4004,-1.3917,-1.3761,-1.3459,-1.3992,-1.4231,-1.4172,-1.4103,-1.4172,-1.4387,0.0,0.0,0.0,0.0,0.0,-1.6133,0.0,0.0,0.0,0.0,0.0,0.0,0.0,0.0,0.0,0.0,0.0,0.0,0.0,0.0,0.0,0.0,0.0,0.0,0.0,0.0,0.0,0.0,0.0,0.0,0.0,0.0,0.0,0.0,0.0,0.0,0.0,0.0,0.0,0.0,0.0,0.0,0.0,0.0,0.0,0.0,0.0,0.0,0.0,0.0,0.0,0.0,0.0,0.0,0.0,0.0,0.0,0.0,0.0,0.0,0.0,0.0,0.0,0.0,0.0,0.0,0.0,0.0,0.0,0.0,0.0,0.0,0.0,0.0,0.0,0.0,0.0,0.0,0.0,0.0,0.0,0.0,0.0,-0.9503,-1.0661,-1.0912,-1.1905,-1.2614,0.0,0.0,0.0,0.0,0.0,0.0,-1.4313,-1.3639,-1.3556,-1.4077,-1.3367,-1.3449,-1.4478,-1.4307,-1.449,-1.504,-1.4458,-1.4327,-1.4497,-1.4178,-1.401,-1.4061,-1.4538,-1.4715,-1.4666,-1.4339,-1.4324,-1.468,-1.525,-1.5595,-1.5837,-1.6394,-1.6699,-1.6825,0.0,0.0,0.0,0.0,0.0,0.0,0.0,0.0,0.0,0.0,0.0,0.0,0.0,0.0,0.0,0.0,0.0,0.0,0.0,0.0,0.0,0.0,0.0,0.0,0.0,0.0,0.0,0.0,0.0,0.0,0.0,0.0,0.0,0.0,0.0,0.0,0.0,0.0,0.0,0.0,0.0,0.0,0.0,0.0,0.0,0.0,0.0,0.0,0.0,0.0,0.0,0.0,0.0,0.0,0.0,0.0,0.0,0.0,0.0,0.0,0.0,0.0,0.0,0.0,0.0,0.0,0.0,0.0,0.0,0.0,0.0,0.0,0.0,0.0,0.0,0.0,0.0,0.0,0.0,-1.1149,-1.2305,0.0,0.0,0.0,0.0,-1.2608,-1.3192,-1.3518,-1.3568,-1.3575,-1.3735,-1.4082,-1.409,-1.399,-1.3667,-1.434,-1.4719,-1.4898,-1.4345,-1.4399,-1.4861,-1.3918,-1.3571,-1.3571,-1.4001,-1.4249,-1.4276,-1.5144,-1.5609,-1.584,-1.6918,-1.7461,-1.7534,-1.7244,-1.7191,-1.7129,0.0,0.0,0.0,0.0,0.0,0.0,0.0,0.0,0.0,0.0,0.0,0.0,0.0,0.0,0.0,0.0,0.0,0.0,0.0,0.0,0.0,0.0,0.0,0.0,0.0,0.0,0.0,0.0,0.0,0.0,0.0,0.0,0.0,0.0,0.0,0.0,0.0,0.0,0.0,0.0,0.0,0.0,0.0,0.0,0.0,0.0,0.0,0.0,0.0,0.0,0.0,0.0,0.0,0.0,0.0,0.0,0.0,0.0,0.0,0.0,0.0,0.0,0.0,0.0,0.0,0.0,0.0,0.0,0.0,0.0,0.0,0.0,0.0,0.0,0.0,0.0,0.0,0.0,0.0,-1.2315,-1.2723,0.0,-1.2848,-1.2745,-1.2799,-1.3164,-1.3232,-1.3336,-1.3561,-1.3659,-1.39,-1.4453,-1.4504,-1.4878,-1.5712,-1.5489,-1.5685,-1.6363,-1.5337,-1.515,-1.5694,-1.4426,-1.3935,-1.3941,-1.3821,-1.3941,-1.4276,-1.5041,-1.5415,-1.5663,-1.6602,-1.6941,-1.6947,-1.738,-1.7156,-1.6674,0.0,0.0,0.0,0.0,0.0,0.0,0.0,0.0,0.0,0.0,0.0,0.0,0.0,0.0,0.0,0.0,0.0,0.0,0.0,0.0,0.0,0.0,0.0,0.0,0.0,0.0,0.0,0.0,0.0,0.0,0.0,0.0,0.0,0.0,0.0,0.0,0.0,0.0,0.0,0.0,0.0,0.0,0.3783,0.0,0.0,0.0,0.0,0.0,0.0,0.0,0.0,0.0,0.0,0.0,0.0,0.0,0.0,0.0,0.0,0.0,0.0,0.0,0.0,0.0,0.0,0.0,0.0,0.0,0.0,0.0,0.0,0.0,0.0,0.0,0.0,0.0,0.0,0.0,-1.19,-1.2738,-1.3038,-1.3038,-1.2716,-1.2687,-1.2816,-1.3218,-1.3178,-1.333,-1.3739,-1.3962,-1.4209,-1.4651,-1.4883,-1.5349,-1.6165,-1.5905,-1.6102,-1.6747,-1.5632,-1.5375,-1.5918,-1.4496,-1.3943,-1.3941,-1.3631,-1.3692,-1.4019,-1.4702,-1.5068,-1.5381,-1.6877,-1.7196,-1.6904,-1.7678,-1.7292,-1.6478,0.0,0.0,0.0,0.0,0.0,0.0,0.0,0.0,0.0,0.0,0.0,0.0,0.0,0.0,0.0,0.0,0.0,0.0,0.0,0.0,0.0,0.0,0.0,0.0,0.0,0.0,0.0,0.0,0.0,0.0,0.0,0.0,0.0,0.0,0.0,0.0,0.0,0.0,0.0,0.0,0.0,0.0,0.4058,0.0,0.0,0.0,0.0,0.0,0.0,0.0,0.0,0.0,0.0,0.0,0.0,0.0,0.0,0.0,0.0,0.0,0.0,0.0,0.0,0.0,0.0,0.0,0.0,0.0,0.0,0.0,0.0,0.0,0.0,0.0,0.0,0.0,-1.0544,-1.1019,-1.1636,-1.238,-1.3026,-1.3111,-1.2109,-1.2636,-1.2876,-1.258,-1.2882,-1.3413,-1.4109,-1.4539,-1.4676,-1.4616,-1.5399,-1.5446,-1.4709,-1.5411,-1.5861,-1.5959,-1.512,-1.5002,-1.5468,-1.4127,-1.3536,-1.3528,-1.3511,-1.3511,-1.3588,-1.4231,-1.4638,-1.5204,-1.7916,-1.8437,-1.7719,-1.8228,-1.7691,-1.6587,0.0,0.0,0.0,0.0,0.0,0.0,0.0,0.0,0.0,0.0,0.0,0.0,0.0,0.0,0.0,0.0,0.0,0.0,0.0,0.0,0.0,0.0,0.0,0.0,0.0,0.0,0.0,0.0,0.0,0.0,0.0,0.0,0.0,0.0,0.0,0.0,0.0,0.0,0.0,0.0,0.0,0.0,0.4476,0.0,0.0,0.0,0.0,0.0,0.0,0.0,0.0,0.0,0.0,0.0,0.0,0.0,0.0,0.0,0.0,0.0,0.0,0.0,0.0,0.0,0.0,0.0,0.0,0.0,0.0,0.0,0.0,0.0,0.0,0.0,0.0,-1.0121,-1.0644,-1.0855,-1.1199,-1.1847,-1.2226,-1.2478,-1.2444,-1.2541,-1.2912,-1.3622,-1.3785,-1.4055,-1.4403,-1.5143,-1.5354,-1.5056,-1.5525,-1.5566,-1.5078,-1.5018,-1.5128,-1.541,-1.4921,-1.4937,-1.5375,-1.4711,-1.4395,-1.44,-1.3752,-1.3726,-1.41,-1.4125,-1.4529,-1.5283,-1.7158,-1.7295,-1.6606,-1.7871,-1.7372,-1.5843,0.0,0.0,0.0,0.0,0.0,0.0,0.0,0.0,0.0,0.0,0.0,0.0,0.0,0.0,0.0,0.0,0.0,0.0,0.0,0.0,0.0,0.0,0.0,0.0,0.0,0.0,0.0,0.0,0.0,0.0,0.0,0.0,0.0,0.0,0.0,0.0,0.0,0.0,0.0,0.0,0.0,0.0,0.4409,0.416,0.4237,0.4284,0.3611,0.2983,0.2358,0.1712,0.0,0.0,0.0,0.0,0.0,0.0,0.0,0.0,0.0,0.0,0.0,0.0,0.0,0.0,0.0,0.0,0.0,0.0,0.0,0.0,0.0,0.0,0.0,0.0,-0.9922,-0.9992,-1.0368,-1.0663,-1.1037,-1.1632,-1.1853,-1.2064,-1.2328,-1.2375,-1.268,-1.3552,-1.3801,-1.4134,-1.4552,-1.5201,-1.5429,-1.5191,-1.5562,-1.554,-1.5,-1.4932,-1.4932,-1.4992,-1.4615,-1.4564,-1.4877,-1.4564,-1.4499,0.0,-1.415,-1.4096,-1.4264,-1.4233,-1.4463,0.0,0.0,0.0,0.0,0.0,-1.6253,-1.5482,0.0,0.0,0.0,0.0,0.0,0.0,0.0,0.0,0.0,0.0,0.0,0.0,0.0,0.0,0.0,0.0,0.0,0.0,0.0,0.0,0.0,0.0,0.0,0.0,0.0,0.0,0.0,0.0,0.0,0.0,0.0,0.0,0.0,0.0,0.0,0.0,0.0,0.0,0.0,0.0,0.0,0.0,0.4128,0.4062,0.415,0.4238,0.3816,0.3297,0.2718,0.2194,0.0,0.0,0.0,0.0,0.0,0.0,0.0,0.0,0.0,0.0,0.0,0.0,0.0,0.0,0.0,0.0,0.0,0.0,0.0,0.0,0.0,0.0,0.0,0.0,-0.9922,-0.9922,-0.9922,-1.0368,-1.0887,-1.1409,-1.1533,-1.1646,-1.1931,-1.1948,-1.2256,-1.2923,-1.3301,-1.3816,-1.4527,0.0,0.0,0.0,0.0,-1.5446,-1.4692,-1.5,-1.4975,-1.4615,-1.4264,-1.4093,-1.4093,-1.4144,-1.4161,-1.4179,-1.453,-1.4634,-1.4467,-1.4585,-1.4567,-1.4593,-1.6198,-1.6256,-1.5361,-1.4753,-1.4881,0.0,0.0,0.0,0.0,0.0,0.0,0.0,0.0,0.0,0.0,0.0,0.0,0.0,0.0,0.0,0.0,0.0,0.0,0.0,0.0,0.0,0.0,0.0,0.0,0.0,0.0,0.0,0.0,0.0,0.0,0.0,0.0,0.0,0.0,0.0,0.0,0.0,0.0,0.0,0.0,0.0,0.0,0.0,0.4637,0.3702,0.3416,0.3486,0.3204,0.2405,0.1502,0.1868,0.1233,0.0185,0.0064,0.0,0.0,0.0,0.0,0.0,0.0,0.0,0.0,0.0,0.0,0.0,0.0,0.0,0.0,0.0,0.0,0.0,0.0,0.0,0.0,-0.9609,-0.9922,-0.9922,-0.9922,-0.9997,-1.0143,-1.0218,-1.041,-1.0706,-1.1021,-1.1275,-1.1716,-1.2625,-1.3049,-1.3512,-1.4173,-1.4807,0.0,-1.5168,-1.5613,-1.5446,-1.4692,-1.4752,-1.4598,-1.4213,0.0,0.0,-1.411,-1.4427,-1.4572,-1.4572,-1.4763,-1.5107,-1.5398,-1.4979,-1.4976,-1.5196,-1.5056,-1.5355,-1.5759,-1.4855,-1.4768,-1.5111,0.0,0.0,0.0,0.0,0.0,0.0,0.0,0.0,0.0,0.0,0.0,0.0,0.0,0.0,0.0,0.0,0.0,0.0,0.0,0.0,0.0,0.0,0.0,0.0,0.0,0.0,0.0,0.0,0.0,0.0,0.0,0.0,0.0,0.0,0.0,0.0,0.0,0.0,0.0,0.0,0.0,0.0,0.515,0.4291,0.3727,0.3255,0.2993,0.2308,0.1535,0.1452,0.1023,0.0485,0.0125,0.0,0.0,0.0,0.0,0.0,0.0,0.0,0.0,0.0,0.0,0.0,0.0,0.0,0.0,0.0,0.0,-0.5401,0.0,0.0,-0.7923,-0.9079,-0.9614,-0.9922,-0.9922,-0.9922,-0.9922,-0.9922,-1.0038,-1.0302,-1.0726,-1.0917,-1.1334,-1.207,-1.2445,-1.2806,-1.3331,-1.4122,-1.4689,-1.4903,-1.5312,-1.524,-1.4692,-1.4487,-1.429,-1.4093,-1.3896,-1.3905,-1.411,-1.4504,-1.4684,-1.4701,-1.5136,-1.5486,-1.5677,-1.5169,-1.5096,-1.5185,-1.4708,-1.4974,-1.5584,-1.4809,-1.4634,-1.4781,0.0,0.0,0.0,0.0,0.0,0.0,0.0,0.0,0.0,0.0,0.0,0.0,0.0,0.0,0.0,0.0,0.0,0.0,0.0,0.0,0.0,0.0,0.0,0.0,0.0,0.0,0.0,0.0,0.0,0.0,0.0,0.0,0.0,0.0,0.0,0.0,0.0,0.0,0.0,0.0,0.0,0.0,0.5474,0.5097,0.4281,0.3312,0.2821,0.2269,0.1701,0.1119,0.0892,0.0794,0.0183,0.0,0.0,0.0,0.0,0.0,0.0,0.0,0.0,0.0,0.0,0.0,0.0,0.0,-0.4758,-0.4758,-0.4854,-0.5168,-0.6012,-0.6777,-0.754,-0.8546,-0.9236,-0.969,-0.9846,-0.9922,-0.9922,-0.9922,-0.9922,-1.0067,-1.0588,-1.0663,-1.0887,-1.1484,-1.1706,-1.1929,-1.2378,-1.3244,-1.3897,-1.4171,-1.4555,-1.4698,-1.4478,-1.4089,-1.3924,-1.3982,-1.3656,-1.3673,-1.399,-1.4393,-1.4607,-1.4784,-1.561,-1.5869,-1.5655,-1.5433,-1.5239,-1.5065,-1.4753,-1.4915,-1.5292,-1.4712,-1.4515,-1.4506,0.0,0.0,0.0,0.0,0.0,0.0,0.0,0.0,0.0,0.0,0.0,0.0,0.0,0.0,0.0,0.0,0.0,0.0,0.0,0.0,0.0,0.0,0.0,0.0,0.0,0.0,0.0,0.0,0.0,0.0,0.0,0.0,0.0,0.0,0.0,0.0,0.0,0.0,0.0,0.0,0.0,0.0,0.5321,0.4996,0.435,0.3443,0.2342,0.1531,0.0999,0.0912,0.0576,0.0118,0.0,0.0,0.0,0.0,0.0,0.0,0.0,0.0,-0.0204,-0.0905,-0.1679,-0.2449,0.0,0.0,-0.453,-0.453,-0.4619,-0.501,-0.6012,-0.6318,-0.6853,-0.847,-0.878,-0.9079,-0.9771,-0.9922,-0.9922,-0.9922,-0.9922,-0.9916,-0.9992,-0.9997,-1.0218,-1.0887,-1.0887,-1.1186,-1.1781,-1.2445,-1.282,-1.2813,-1.3155,-1.3447,-1.3643,-1.3356,-1.3342,-1.3571,-1.3528,-1.3528,-1.3588,-1.3982,-1.4405,-1.4955,-1.6056,-1.6179,-1.5716,-1.6065,-1.5753,-1.5093,-1.5056,-1.509,-1.5053,-1.4634,-1.4515,-1.4565,0.0,0.0,0.0,0.0,0.0,0.0,0.0,0.0,0.0,0.0,0.0,0.0,0.0,0.0,0.0,0.0,0.0,0.0,0.0,0.0,0.0,0.0,0.0,0.0,0.0,0.0,0.0,0.0,0.0,0.0,0.0,0.0,0.0,0.0,0.0,0.0,0.0,0.0,0.0,0.0,0.0,0.0,0.5574,0.5084,0.4577,0.3958,0.2543,0.1612,0.0,0.0,0.0296,0.0,0.0,0.0,0.0,0.0,0.0,0.0,0.0,0.0067,0.0,0.0,-0.1344,-0.2256,-0.2546,-0.3676,-0.4599,-0.4515,-0.4644,-0.4852,-0.5226,-0.578,-0.6395,0.0,-0.7698,-0.8156,-0.8461,-0.8922,-0.9236,-0.9236,-0.9614,-0.9922,-0.9922,-0.9922,-0.9997,-1.0293,-1.0368,-1.0588,-1.0812,-1.1632,-1.2157,-1.2231,-1.3084,-1.3408,-1.3126,-1.3743,-1.3818,-1.3516,-1.376,-1.3853,-1.3862,-1.4256,-1.4893,-1.5599,-1.5704,-1.5808,-1.5858,-1.5695,-1.5713,-1.5762,-1.5285,-1.5449,-1.5854,-1.5155,-1.4906,-1.5028,0.0,0.0,0.0,0.0,0.0,0.0,0.0,0.0,0.0,0.0,0.0,0.0,0.0,0.0,0.0,0.0,0.0,0.0,0.0,0.0,0.0,0.0,0.0,0.0,0.0,0.0,0.0,0.0,0.0,0.0,0.0,0.0,0.0,0.0,0.0,0.0,0.0,0.0,0.0,0.0,0.0,0.0,0.5688,0.5081,0.4722,0.4336,0.2695,0.1776,0.0,0.0,0.0119,0.0,0.0,0.0,0.0,0.0,0.0,0.0067,0.0067,0.0,0.0,0.0143,-0.0856,-0.177,-0.1779,-0.2948,-0.4092,-0.4091,-0.4333,-0.451,-0.4591,-0.524,-0.5797,-0.603,-0.667,-0.7234,-0.7464,-0.8003,-0.847,-0.8699,-0.9236,-0.969,-0.9846,-0.9922,-0.9922,-0.9922,-0.9992,-1.0143,-1.0143,-1.0887,-1.1409,-1.1558,-1.2506,-1.2839,-1.2565,-1.3353,-1.3584,-1.3161,-1.3453,-1.359,-1.3606,-1.4107,-1.4773,-1.5477,-1.5155,-1.5191,-1.541,-1.5386,-1.5582,-1.5981,-1.5606,-1.5919,-1.6486,-1.5651,-1.5445,-1.5604,0.0,0.0,0.0,0.0,0.0,0.0,0.0,0.0,0.0,0.0,0.0,0.0,0.0,0.0,0.0,0.0,0.0,0.0,0.0,0.0,0.0,0.0,0.0,0.0,0.0,0.0,0.0,0.0,0.0,0.0,0.0,0.0,0.0,0.0,0.0,0.0,0.0,0.0,0.0,0.0,0.0,0.0,0.5384,0.4874,0.4667,0.4381,0.2638,0.0,0.0,0.0,0.0,0.0,0.0,0.0,0.0,0.0,0.0065,0.0,0.0,0.0,0.0198,0.0286,-0.0286,-0.0776,-0.0508,-0.153,-0.2691,-0.2982,-0.3493,-0.3932,-0.437,-0.4533,-0.4911,-0.5657,-0.6073,-0.6546,-0.7387,-0.754,-0.7851,-0.8623,-0.8699,-0.9079,0.0,-0.9922,-0.9922,-0.9922,-0.9922,-0.9922,-0.9922,-1.0293,-1.0519,-1.0513,-1.0712,-1.1072,-1.1702,-1.1487,-1.1751,-1.2354,-1.2347,-1.2347,-1.2354,-1.3164,-1.367,-1.3924,-1.4387,-1.4411,-1.4117,-1.5312,-1.554,-1.5283,-1.6017,-1.6427,-1.6514,-1.6021,-1.5982,-1.6116,0.0,0.0,0.0,0.0,0.0,0.0,0.0,0.0,0.0,0.0,0.0,0.0,0.0,0.0,0.0,0.0,0.0,0.0,0.0,0.0,0.0,0.0,0.0,0.0,0.0,0.0,0.0,0.0,0.0,0.0,0.0,0.0,0.0,0.0,0.0,0.0,0.0,0.0,0.0,0.0,0.0,0.0,0.5662,0.5137,0.4955,0.4866,0.0,0.0,0.0,0.0,0.0,0.0,0.0122,0.0,0.0,0.0126,0.0,0.0,0.0,0.0,0.0525,0.035,-0.0141,-0.0564,-0.0579,-0.1363,-0.2208,-0.2682,-0.3011,-0.3345,-0.3912,-0.4176,-0.4372,-0.4745,-0.4868,-0.507,-0.5375,-0.5999,-0.6538,-0.6773,-0.7464,0.0,0.0,0.0,0.0,-0.9922,-0.9922,-0.9922,-0.9922,-1.0143,-1.0368,-1.0513,-1.1175,-1.1493,-1.1267,-1.226,-1.2459,-1.1907,-1.2183,-1.2531,-1.288,-1.32,-1.359,-1.4103,-1.3787,-1.3981,-1.4442,-1.4846,-1.5255,-1.5696,-1.6269,-1.6459,-1.6383,-1.6327,-1.6477,-1.6635,0.0,0.0,0.0,0.0,0.0,0.0,0.0,0.0,0.0,0.0,0.0,0.0,0.0,0.0,0.0,0.0,0.0,0.0,0.0,0.0,0.0,0.0,0.0,0.0,0.0,0.0,0.0,0.0,0.0,0.0,0.0,0.0,0.0,0.0,0.0,0.0,0.0,0.0,0.0,0.0,0.0,0.0,0.5846,0.5612,0.5455,0.0,0.0,0.0,0.0,0.0,0.0,0.0,0.0,0.0,0.0,0.0,0.0,0.0,0.0,0.0517,0.0785,0.0553,0.028,0.007,-0.0071,-0.0637,-0.1261,-0.1766,-0.2092,-0.2423,-0.2817,-0.3305,-0.3649,-0.3676,-0.4066,-0.4375,-0.4327,-0.4977,-0.5464,-0.577,-0.6388,-0.7003,0.0,0.0,0.0,-0.9074,-0.9074,-0.9155,-0.9463,-0.9685,-0.9986,-1.0368,-1.1111,-1.1335,-1.1037,-1.199,-1.2191,-1.1499,-1.181,-1.2241,-1.2642,-1.2714,-1.305,-1.3542,-1.3112,-1.3251,-1.381,-1.4106,-1.4537,-1.5163,-1.5774,-1.6025,-1.6018,-1.628,-1.6495,-1.6619,0.0,0.0,0.0,0.0,0.0,0.0,0.0,0.0,0.0,0.0,0.0,0.0,0.0,0.0,0.0,0.0,0.0,0.0,0.0,0.0,0.0,0.0,0.0,0.0,0.0,0.0,0.0,0.0,0.0,0.0,0.0,0.0,0.0,0.0,0.0,0.0,0.0,0.0,0.0,0.0,0.0,0.0,0.5942,0.6173,0.0,0.0,0.0,0.0,0.0,0.0,0.0,0.0,0.0,0.0,0.0,0.0,0.0,0.0775,0.0775,0.0776,0.0852,0.0898,0.0909,0.0909,0.1049,0.0559,0.0,-0.027,-0.0672,-0.1075,0.0,0.0,-0.2591,-0.2533,-0.3503,-0.4262,-0.418,-0.4325,-0.4693,0.0,0.0,0.0,0.0,0.0,0.0,-0.731,0.0,-0.7846,-0.8623,-0.8851,-0.9301,-1.0067,-1.0363,-1.0513,-1.0738,-1.0812,-1.0887,-1.1111,-1.1335,-1.1484,-1.1706,-1.1929,-1.2077,-1.2305,-1.2305,-1.2305,-1.2372,-1.3171,-1.3608,-1.3905,-1.4617,-1.5117,-1.5492,-1.589,-1.6084,-1.6163,0.0,0.0,0.0,0.0,0.0,0.0,0.0,0.0,0.0,0.0,0.0,0.0,0.0,0.0,0.0,0.0,0.0,0.0,0.0,0.0,0.0,0.0,0.0,0.0,0.0,0.0,0.0,0.0,0.0,0.0,0.0,0.0,0.0,0.0,0.0,0.0,0.0,0.0,0.0,0.0,0.0,0.0,0.7523,0.0,0.0,0.0,0.0,0.0,0.0,0.0,0.0,0.0,0.0,0.0,0.0692,0.0,0.0,0.0775,0.0646,0.0787,0.1002,0.0882,0.0953,0.1087,0.1087,0.0951,0.0678,0.0067,-0.0202,-0.047,0.0,0.0,0.0,-0.1575,-0.2342,0.0,-0.294,-0.3671,0.0,-0.4467,0.0,-0.4849,-0.5079,-0.5237,0.0,0.0,-0.6696,-0.7617,-0.777,-0.7999,-0.8304,-0.8613,-0.9448,-0.9906,-1.0143,-1.0738,-1.1037,-1.1111,-1.1335,-1.1484,-1.1706,-1.1929,-1.2077,-1.2305,-1.2305,-1.2305,-1.2372,-1.3171,-1.3608,-1.3905,-1.4768,-1.4911,-1.472,-1.5795,-1.5839,-1.5557,0.0,0.0,0.0,0.0,0.0,0.0,0.0,0.0,0.0,0.0,0.0,0.0,0.0,0.0,0.0,0.0,0.0,0.0,0.0,0.0,0.0,0.0,0.0,0.0,0.0,0.0,0.0,0.0,0.0,0.0,0.0,0.0,0.0,0.0,0.0,0.0,0.0,0.0,0.0,0.0,0.0,0.0,0.0,0.0,0.0,0.0,0.0,0.0,0.0,0.0,0.0,0.2619,0.212,0.1671,0.1343,0.139,0.0,0.0986,0.0855,0.1064,0.1278,0.1077,0.1144,0.1277,0.121,0.121,0.1076,0.0672,0.0538,0.0,0.0,0.0,0.0,0.0,0.0,0.0,-0.1893,-0.2474,-0.2899,0.0,-0.329,0.0,-0.3679,-0.4151,-0.4545,0.0,-0.578,-0.6546,-0.693,-0.7003,-0.7387,-0.7931,-0.8456,-0.8841,-0.9079,-0.9755,-1.0056,-1.0056,-1.0357,-1.0576,-1.0651,-1.1329,-1.1706,-1.1781,0.0,-1.2452,-1.2452,-1.3032,-1.3324,-1.3622,-1.4129,-1.4274,-1.4314,-1.5367,-1.5644,-1.5596,0.0,0.0,0.0,0.0,0.0,0.0,0.0,0.0,0.0,0.0,0.0,0.0,0.0,0.0,0.0,0.0,0.0,0.0,0.0,0.0,0.0,0.0,0.0,0.0,0.0,0.0,0.0,0.0,0.0,0.0,0.0,0.0,0.0,0.0,0.0,0.0,0.0,0.0,0.0,0.0,0.0,0.0,0.0,0.0,0.0,0.0,0.0,0.0,0.0,0.0,0.5259,0.3725,0.3512,0.2956,0.2336,0.2283,0.1977,0.1612,0.1612,0.168,0.1681,0.1546,0.1546,0.1547,0.1412,0.1344,0.1344,0.1344,0.0,0.1143,0.1143,0.0617,0.0138,0.0203,0.0,-0.112,-0.1026,-0.1215,-0.1327,-0.1332,-0.1955,-0.2422,-0.2582,-0.329,-0.3915,-0.4288,-0.4535,-0.5007,-0.6012,-0.6012,-0.6549,-0.7625,-0.7468,-0.7617,-0.8156,-0.8466,-0.8699,-0.8703,-0.9074,-0.9296,-0.9372,-1.0432,-1.0956,-1.0956,0.0,0.0,-1.2378,-1.2673,-1.29,-1.3119,-1.3193,-1.3557,-1.4201,-1.4911,-1.5409,-1.5833,0.0,0.0,0.0,0.0,0.0,0.0,0.0,0.0,0.0,0.0,0.0,0.0,0.0,0.0,0.0,0.0,0.0,0.0,0.0,0.0,0.0,0.0,0.0,0.0,0.0,0.0,0.0,0.0,0.0,0.0,0.0,0.0,0.0,0.0,0.0,0.0,0.0,0.0,0.0,0.0,0.0,0.0,0.0,0.0,0.0,0.0,0.0,0.0,0.0,0.0,0.6772,0.4872,0.4125,0.3666,0.3409,0.3394,0.3332,0.3278,0.3278,0.2882,0.2485,0.2485,0.2016,0.1614,0.1547,0.1547,0.0,0.0,0.0,0.148,0.148,0.1418,0.0,0.1179,0.0,0.0,0.0,0.0,-0.1302,0.0,0.0,0.0,0.0,0.0,0.0,0.0,0.0,-0.3441,-0.509,-0.5171,-0.5705,-0.6696,-0.6934,-0.7472,-0.8304,-0.8385,-0.8542,-0.8703,-0.9074,-0.9296,-0.9296,-0.99,-1.0121,-1.0121,0.0,0.0,-1.0962,-1.1781,-1.2305,-1.2526,-1.3046,-1.3557,-1.4201,-1.4911,-1.5275,-1.5417,0.0,0.0,0.0,0.0,0.0,0.0,0.0,0.0,0.0,0.0,0.0,0.0,0.0,0.0,0.0,0.0,0.0,0.0,0.0,0.0,0.0,0.0,0.0,0.0,0.0,0.0,0.0,0.0,0.0,0.0,0.0,0.0,0.0,0.0,0.0,0.0,0.0,0.0,0.0,0.0,0.0,0.0,0.0,0.0,0.0,0.0,0.0,0.0,0.0,0.0,0.8463,0.6911,0.5932,0.5335,0.4869,0.4607,0.4342,0.4143,0.4143,0.388,0.3616,0.3547,0.2948,0.2417,0.2351,0.0,0.0,0.0,0.0,0.1614,0.1614,0.0,0.0,0.0,0.0,0.0,0.0,0.0,0.0,0.0,0.0,0.0,0.0,0.0,0.0,0.0,0.0,-0.2487,-0.3469,-0.4197,-0.4865,-0.5702,-0.617,-0.6553,-0.6934,-0.7169,-0.7326,-0.7484,-0.7859,-0.808,-0.8084,-0.8917,-0.9301,-0.9296,-1.0282,0.0,-1.0738,-1.1855,-1.2519,-1.2806,-1.3404,-1.4057,-1.4681,-1.4849,-1.5188,-1.5675,0.0,0.0,0.0,0.0,0.0,0.0,0.0,0.0,0.0,0.0,0.0,0.0,0.0,0.0,0.0,0.0,0.0,0.0,0.0,0.0,0.0,0.0,0.0,0.0,0.0,0.0,0.0,0.0,0.0,0.0,0.0,0.0,0.0,0.0,0.0,0.0,0.0,0.0,0.0,0.0,0.0,0.0,0.0,0.0,0.0,0.0,0.0,0.0,0.0,0.0,1.0266,0.9099,0.8393,0.7367,0.6453,0.6063,0.5602,0.5269,0.5269,0.5134,0.5001,0.4803,0.4209,0.3613,0.3422,0.2954,0.0,0.0,0.2284,0.2083,0.2083,0.0,0.0,0.0,0.0,0.0,0.0,0.0,0.0,0.0,0.0,0.0,0.0,0.0,0.0,0.0,0.0,0.0,-0.2198,-0.3211,-0.3969,-0.454,-0.5007,-0.5318,-0.5401,-0.5789,-0.6103,-0.6338,-0.6714,-0.6865,-0.6938,-0.7936,-0.8475,-0.8627,-0.9836,0.0,0.0,-1.1706,-1.2405,-1.2701,-1.3367,-1.3968,-1.4503,-1.4239,-1.4657,-1.5436,0.0,0.0,0.0,0.0,0.0,0.0,0.0,0.0,0.0,0.0,0.0,0.0,0.0,0.0,0.0,0.0,0.0,0.0,0.0,0.0,0.0,0.0,0.0,0.0,0.0,0.0,0.0,0.0,0.0,0.0,0.0,0.0,0.0,0.0,0.0,0.0,0.0,0.0,0.0,0.0,0.0,0.0,0.0,0.0,0.0,0.0,0.0,0.0,0.0,0.0,0.0,1.1061,1.1084,0.9609,0.7852,0.7907,0.0,0.0,0.7657,0.7181,0.658,0.626,0.5661,0.4998,0.468,0.0,0.0,0.455,0.4148,0.3749,0.3749,0.3749,0.0,0.0,0.0,0.0,0.0,0.0,0.0,0.0,0.0,0.0,0.0,0.0,0.0,0.0,0.0,0.0,-0.2397,-0.2565,-0.2751,-0.2973,-0.3052,-0.3597,-0.4766,-0.4844,-0.5315,-0.6338,-0.6714,-0.6865,-0.6942,-0.7403,-0.7791,-0.8178,-0.8703,0.0,0.0,-1.0519,-1.0972,-1.0972,-1.1618,-1.2151,-1.2577,-1.2548,-1.2908,-1.3525,0.0,0.0,0.0,0.0,0.0,0.0,0.0,0.0,0.0,0.0,0.0,0.0,0.0,0.0,0.0,0.0,0.0,0.0,0.0,0.0,0.0,0.0,0.0,0.0,0.0,0.0,0.0,0.0,0.0,0.0,0.0,0.0,0.0,0.0,0.0,0.0,0.0,0.0,0.0,0.0,0.0,0.0,0.0,0.0,0.0,0.0,0.0,0.0,0.0,0.0,0.0,0.0,1.2357,1.1333,0.0,0.0,0.8818,0.8565,0.8506,0.8166,0.7827,0.7577,0.6846,0.6244,0.6121,0.0,0.0,0.5397,0.5262,0.4998,0.48,0.4932,0.4935,0.0,0.0,0.0,0.0,0.0,0.0,0.0,0.0,0.0,0.0,0.0,0.0,0.0,0.0,0.0,-0.072,-0.13,-0.19,-0.2622,-0.2889,-0.3215,-0.3749,-0.4271,-0.4771,-0.5165,-0.6089,-0.6475,-0.6475,-0.6788,-0.7099,-0.7403,-0.7391,0.0,0.0,-0.8941,-0.9607,-0.9961,-1.0588,-1.1534,-1.2448,-1.2062,-1.2647,-1.3758,0.0,0.0,0.0,0.0,0.0,0.0,0.0,0.0,0.0,0.0,0.0,0.0,0.0,0.0,0.0,0.0,0.0,0.0,0.0,0.0,0.0,0.0,0.0,0.0,0.0,0.0,0.0,0.0,0.0,0.0,0.0,0.0,0.0,0.0,0.0,0.0,0.0,0.0,0.0,0.0,0.0,0.0,0.0,0.0,0.0,0.0,0.0,0.0,0.0,0.0,0.0,0.0,0.0,0.0,0.0,0.0,0.9958,0.9466,0.9588,0.9326,0.9005,0.8748,0.8151,0.7623,0.0,0.0,0.6645,0.658,0.6445,0.6314,0.6048,0.6179,0.6183,0.0,0.0,0.5723,0.0,0.0,0.0,0.0,0.0,0.0,0.0,0.0,0.0,0.0,0.0,0.0,0.0,0.0207,-0.0703,-0.1818,-0.2146,-0.2473,-0.2794,-0.3509,-0.4076,-0.4337,-0.541,-0.5924,-0.5964,-0.6239,-0.654,-0.6787,0.0,0.0,0.0,-0.7766,-0.8354,-0.8901,-0.9304,-1.03,-1.139,-1.0975,-1.1619,-1.2818,0.0,0.0,0.0,0.0,0.0,0.0,0.0,0.0,0.0,0.0,0.0,0.0,0.0,0.0,0.0,0.0,0.0,0.0,0.0,0.0,0.0,0.0,0.0,0.0,0.0,0.0,0.0,0.0,0.0,0.0,0.0,0.0,0.0,0.0,0.0,0.0,0.0,0.0,0.0,0.0,0.0,0.0,0.0,0.0,0.0,0.0,0.0,0.0,0.0,0.0,0.0,0.0,0.0,0.0,0.0,0.0,1.1655,1.0737,1.1337,1.0905,1.0174,0.9843,0.9646,0.9332,0.0,0.0,0.8705,0.8511,0.8042,0.7707,0.7707,0.7707,0.7642,0.7386,0.0,0.0,0.0,0.0,0.0,0.0,0.0,0.0,0.0,0.0,0.0,0.0,0.0,0.0,0.0,0.195,0.0966,-0.0291,-0.0292,-0.0959,-0.2192,-0.2582,-0.3244,-0.4225,-0.4902,-0.5211,-0.5309,-0.5664,-0.6089,0.0,0.0,0.0,0.0,-0.7224,-0.7339,-0.7601,-0.7601,-0.8122,-0.8846,-0.884,-0.9291,-0.9854,0.0,0.0,0.0,0.0,0.0,0.0,0.0,0.0,0.0,0.0,0.0,0.0,0.0,0.0,0.0,0.0,0.0,0.0,0.0,0.0,0.0,0.0,0.0,0.0,0.0,0.0,0.0,0.0,0.0,0.0,0.0,0.0,0.0,0.0,0.0,0.0,0.0,0.0,0.0,0.0,0.0,0.0,0.0,0.0,0.0,0.0,0.0,0.0,0.0,0.0,0.0,0.0,0.0,0.0,0.0,0.0,0.0,0.0,1.2312,1.2135,1.1888,1.168,1.1502,1.1392,1.1212,0.0,1.0954,1.0892,1.0382,0.9875,0.9564,0.9262,0.8888,0.8247,0.8306,0.0,0.0,0.0,0.0,0.0,0.0,0.0,0.0,0.0,0.0,0.0,0.0,0.0,0.0,0.2681,0.2164,0.1377,0.0983,0.0427,-0.0359,-0.1375,-0.2027,-0.2224,-0.3423,-0.3765,-0.3464,-0.3483,0.0,0.0,0.0,0.0,0.0,-0.5907,-0.5952,-0.6117,-0.6163,-0.6809,-0.7636,-0.7428,-0.8058,-0.9058,0.0,0.0,0.0,0.0,0.0,0.0,0.0,0.0,0.0,0.0,0.0,0.0,0.0,0.0,0.0,0.0,0.0,0.0,0.0,0.0,0.0,0.0,0.0,0.0,0.0,0.0,0.0,0.0,0.0,0.0,0.0,0.0,0.0,0.0,0.0,0.0,0.0,0.0,0.0,0.0,0.0,0.0,0.0,0.0,0.0,0.0,0.0,0.0,0.0,0.0,0.0,0.0,0.0,0.0,0.0,0.0,0.0,0.0,0.0,1.3287,1.3045,1.2907,1.2732,0.0,0.0,0.0,0.0,1.2189,1.1873,1.1439,1.1142,1.0905,1.0534,0.9894,1.0015,0.0,0.0,0.0,0.0,0.0,0.0,0.0,0.0,0.0,0.0,0.0,0.0,0.0,0.0,0.3813,0.3413,0.3151,0.2116,0.1316,0.0909,-0.0282,-0.0916,-0.0911,-0.2132,-0.2539,-0.2339,-0.2545,0.0,0.0,0.0,0.0,0.0,-0.4851,-0.5021,-0.5251,-0.5471,-0.6083,-0.6949,-0.6771,-0.7442,-0.8415,0.0,0.0,0.0,0.0,0.0,0.0,0.0,0.0,0.0,0.0,0.0,0.0,0.0,0.0,0.0,0.0,0.0,0.0,0.0,0.0,0.0,0.0,0.0,0.0,0.0,0.0,0.0,0.0,0.0,0.0,0.0,0.0,0.0,0.0,0.0,0.0,0.0,0.0,0.0,0.0,0.0,0.0,0.0,0.0,0.0,0.0,0.0,0.0,0.0,0.0,0.0,0.0,0.0,0.0,0.0,0.0,0.0,0.0,0.0,0.0,0.0,0.0,0.0,0.0,0.0,0.0,0.0,0.0,0.0,1.2602,1.2443,1.2389,1.2258,1.2074,1.2012,0.0,0.0,0.0,0.0,0.0,0.0,0.0,0.0,0.0,0.0,0.0,0.0,0.0,0.0,0.5369,0.4976,0.5055,0.3234,0.2044,0.1671,0.068,0.0,-0.0209,-0.0979,-0.1516,-0.1808,-0.2346,0.0,0.0,0.0,0.0,0.0,-0.4019,-0.4446,-0.4999,-0.5217,-0.5819,-0.6544,-0.6556,-0.7069,-0.7599,0.0,0.0,0.0,0.0,0.0,0.0,0.0,0.0,0.0,0.0,0.0,0.0,0.0,0.0,0.0,0.0,0.0,0.0,0.0,0.0,0.0,0.0,0.0,0.0,0.0,0.0,0.0,0.0,0.0,0.0,0.0,0.0,0.0,0.0,0.0,0.0,0.0,0.0,0.0,0.0,0.0,0.0,0.0,0.0,0.0,0.0,2.2047,0.0,0.0,0.0,0.0,0.0,0.0,0.0,0.0,0.0,0.0,0.0,0.0,0.0,0.0,0.0,0.0,0.0,0.0,0.0,0.0,0.0,0.0,0.0,0.0,0.0,0.0,0.0,0.0,0.0,0.0,0.0,0.0,0.0,0.0,0.0,0.0,0.0,0.0,0.0,0.0,0.0,0.0,0.8152,0.7831,0.7836,0.6437,0.4677,0.2707,0.1883,0.1199,0.0657,0.0069,-0.0477,-0.0911,-0.0616,0.0,0.0,0.0,0.0,-0.3895,-0.3458,-0.3851,-0.4652,-0.4333,-0.4466,-0.4906,-0.5005,-0.4918,-0.4876,0.0,0.0,0.0,0.0,0.0,0.0,0.0,0.0,0.0,0.0,0.0,0.0,0.0,0.0,0.0,0.0,0.0,0.0,0.0,0.0,0.0,0.0,0.0,0.0,0.0,0.0,0.0,0.0,0.0,0.0,0.0,0.0,0.0,0.0,0.0,0.0,0.0,0.0,0.0,0.0,0.0,0.0,0.0,0.0,0.0,0.0,2.2832,2.2228,0.0,2.1188,2.0845,2.0459,0.0,0.0,0.0,0.0,1.8104,0.0,0.0,0.0,0.0,0.0,0.0,0.0,0.0,0.0,0.0,0.0,0.0,0.0,0.0,0.0,0.0,0.0,0.0,0.0,0.0,0.0,0.0,0.0,0.0,0.0,0.0,0.0,0.0,0.0,0.0,0.0,0.0,1.0113,0.9644,0.95,0.7972,0.6297,0.4428,0.3453,0.2542,0.1809,0.1117,0.0491,-0.0068,-0.0417,-0.1104,0.0,0.0,0.0,-0.3723,-0.3367,-0.3538,-0.4012,-0.3905,-0.3827,-0.3834,-0.382,-0.3866,-0.3975,0.0,0.0,0.0,0.0,0.0,0.0,0.0,0.0,0.0,0.0,0.0,0.0,0.0,0.0,0.0,0.0,0.0,0.0,0.0,0.0,0.0,0.0,0.0,0.0,0.0,0.0,0.0,0.0,0.0,0.0,0.0,0.0,0.0,0.0,0.0,0.0,0.0,0.0,0.0,0.0,0.0,0.0,0.0,0.0,0.0,0.0,0.0,0.0,0.0,2.1575,2.114,2.0759,2.0809,0.0,0.0,0.0,0.0,0.0,0.0,0.0,0.0,0.0,0.0,0.0,0.0,0.0,0.0,0.0,0.0,0.0,0.0,0.0,0.0,0.0,0.0,0.0,0.0,0.0,0.0,0.0,0.0,0.0,0.0,0.0,0.0,0.0,0.0,0.0,0.0,1.2173,1.1594,1.1299,1.0087,0.889,0.7798,0.5335,0.3737,0.2958,0.1878,0.1095,0.0509,-0.0858,-0.1538,0.0,0.0,0.0,-0.3111,-0.3133,-0.3193,-0.3343,-0.3639,-0.3627,-0.3253,-0.1973,-0.191,-0.2143,0.0,0.0,0.0,0.0,0.0,0.0,0.0,0.0,0.0,0.0,0.0,0.0,0.0,0.0,0.0,0.0,0.0,0.0,0.0,0.0,0.0,0.0,0.0,0.0,0.0,0.0,0.0,0.0,0.0,0.0,0.0,0.0,0.0,0.0,0.0,0.0,0.0,0.0,0.0,0.0,0.0,0.0,0.0,0.0,0.0,0.0,0.0,0.0,0.0,2.2692,2.2463,2.2217,2.1888,0.0,0.0,0.0,0.0,0.0,0.0,0.0,0.0,0.0,0.0,0.0,0.0,0.0,0.0,0.0,0.0,0.0,0.0,0.0,0.0,0.0,0.0,0.0,0.0,0.0,0.0,0.0,0.0,0.0,0.0,0.0,0.0,0.0,0.0,0.0,0.0,0.0,1.5746,1.5746,1.6947,1.6979,1.5733,0.7768,0.3772,0.368,0.1779,0.0742,0.0364,-0.0593,-0.1034,0.0,0.0,-0.1356,-0.1918,-0.165,-0.2301,-0.3379,-0.3192,-0.3346,-0.307,0.2582,0.4919,0.6224,0.0,0.0,0.0,0.0,0.0,0.0,0.0,0.0,0.0,0.0,0.0,0.0,0.0,0.0,0.0,0.0,0.0,0.0,0.0,0.0,0.0,0.0,0.0,0.0,0.0,0.0,0.0,0.0,0.0,0.0,0.0,0.0,0.0,0.0,0.0,0.0,0.0,0.0,0.0,0.0,0.0,0.0,0.0,0.0,0.0,0.0,0.0,0.0,0.0,0.0,2.2661,2.237,2.2324,0.0,0.0,0.0,0.0,0.0,2.0458,0.0,0.0,0.0,0.0,0.0,0.0,0.0,0.0,0.0,0.0,0.0,0.0,0.0,0.0,0.0,0.0,0.0,0.0,0.0,0.0,0.0,0.0,0.0,0.0,0.0,0.0,0.0,0.0,0.0,0.0,0.0,1.9125,1.9007,1.9432,1.9587,1.9212,1.4132,1.004,0.707,0.9401,0.855,0.4891,0.7526,0.8738,0.8789,0.0,0.6379,0.2843,0.6701,0.5906,0.258,0.617,0.767,0.8164,1.0973,1.2099,1.3243,0.0,0.0,0.0,0.0,0.0,0.0,0.0,0.0,0.0,0.0,0.0,0.0,0.0,0.0,0.0,0.0,0.0,0.0,0.0,0.0,0.0,0.0,0.0,0.0,0.0,0.0,0.0,0.0,0.0,0.0,0.0,0.0,0.0,0.0,0.0,0.0,0.0,0.0,0.0,0.0,0.0,0.0,0.0,0.0,0.0,0.0,0.0,0.0,0.0,0.0,0.0,0.0,0.0,0.0,0.0,0.0,2.1841,2.1746,2.1431,2.1382,0.0,0.0,0.0,0.0,0.0,0.0,0.0,0.0,0.0,0.0,0.0,0.0,0.0,0.0,0.0,0.0,0.0,0.0,0.0,0.0,0.0,0.0,0.0,0.0,0.0,0.0,0.0,0.0,0.0,0.0,2.2278,2.2085,2.2265,2.2525,2.2958,2.2269,1.8643,1.2182,1.648,1.5906,1.1157,1.5171,1.7057,1.7216,1.697,1.3773,0.9228,1.4392,1.3672,0.9715,1.4555,1.7695,1.9513,1.9119,1.9883,2.1689,0.0,0.0,0.0,0.0,0.0,0.0,0.0,0.0,0.0,0.0,0.0,0.0,0.0,0.0,0.0,0.0,0.0,0.0,0.0,0.0,0.0,0.0,0.0,0.0,0.0,0.0,0.0,0.0,0.0,0.0,0.0,0.0,0.0,0.0,0.0,0.0,0.0,0.0,0.0,0.0,0.0,0.0,0.0,0.0,0.0,0.0,0.0,0.0,0.0,0.0,0.0,0.0,0.0,0.0,0.0,0.0,0.0,2.2509,2.2509,2.2463,0.0,0.0,0.0,0.0,0.0,0.0,0.0,0.0,0.0,0.0,0.0,0.0,0.0,0.0,0.0,0.0,0.0,0.0,0.0,0.0,0.0,0.0,0.0,0.0,0.0,0.0,0.0,0.0,0.0,0.0,0.0,2.5621,2.8023,2.9407,2.9683,3.1864,2.8374,1.9346,1.8238,1.7837,1.8126,1.7269,1.7294,1.7894,1.7277,1.6943,1.6888,1.6931,1.6526,1.5924,1.5872,1.9621,2.4991,2.4716,2.8476,3.3667,0.0,0.0,0.0,0.0,0.0,0.0,0.0,0.0,0.0,0.0,0.0,0.0,0.0,0.0,0.0,0.0,0.0,0.0,0.0,0.0,0.0,0.0,0.0,0.0,0.0,0.0,0.0,0.0,0.0,0.0,0.0,0.0,0.0,0.0,0.0,0.0,0.0,0.0,0.0,0.0,0.0,0.0,0.0,0.0,0.0,0.0,0.0,0.0,0.0,0.0,0.0,0.0,0.0,0.0,0.0,0.0,0.0,2.2797,2.2797,2.3038,0.0,0.0,0.0,0.0,0.0,0.0,0.0,0.0,0.0,0.0,0.0,0.0,0.0,0.0,0.0,0.0,0.0,0.0,0.0,0.0,0.0,0.0,0.0,0.0,0.0,0.0,0.0,0.0,0.0,0.0,0.0,2.8353,3.0222,3.1393,3.1838,3.3295,3.2485,2.9349,2.8892,2.672,2.3243,2.6923,2.8746,2.9005,2.8723,2.6445,2.3179,2.7117,2.624,2.2754,2.6487,2.9336,3.1363,3.1172,3.2359,3.4027,0.0,0.0,0.0,0.0,0.0,0.0,0.0,0.0,0.0,0.0,0.0,0.0,0.0,0.0,0.0,0.0,0.0,0.0,0.0,0.0,0.0,0.0,0.0,0.0,0.0,0.0,0.0,0.0,0.0,0.0,0.0,0.0,0.0,0.0,0.0,0.0,0.0,0.0,0.0,0.0,0.0,0.0,0.0,0.0,0.0,0.0,0.0,0.0,0.0,0.0,0.0,0.0,0.0,0.0,0.0,0.0,0.0,0.0,2.3495,2.3859,0.0,0.0,0.0,0.0,0.0,0.0,0.0,0.0,0.0,0.0,0.0,0.0,0.0,0.0,0.0,0.0,0.0,0.0,0.0,0.0,0.0,0.0,0.0,0.0,0.0,0.0,0.0,0.0,0.0,0.0,0.0,0.0,3.1708,3.2639,3.3332,3.3881,3.4488,3.5097,3.5384,3.3159,2.8972,3.3639,3.5768,3.5791,3.5758,3.3223,2.9466,3.3958,3.3047,2.923,3.3549,3.5028,3.4694,3.4523,3.398,3.3288,0.0,0.0,0.0,0.0,0.0,0.0,0.0,0.0,0.0,0.0,0.0,0.0,0.0,0.0,0.0,0.0,0.0,0.0,0.0,0.0,0.0,0.0,0.0,0.0,0.0,0.0,0.0,0.0,0.0,0.0,0.0,0.0,0.0,0.0,0.0,0.0,0.0,0.0,0.0,0.0,0.0,0.0,0.0,0.0,0.0,0.0,0.0,0.0,0.0,0.0,0.0,0.0,0.0,0.0,0.0,0.0,2.5481,2.5215,2.4714,0.0,0.0,0.0,0.0,0.0,0.0,0.0,0.0,0.0,0.0,0.0,0.0,0.0,0.0,0.0,0.0,0.0,0.0,0.0,0.0,0.0,0.0,0.0,0.0,0.0,0.0,0.0,0.0,0.0,0.0,0.0,0.0,0.0,3.2947,3.3607,3.4694,3.4642,3.4833,3.5302,3.5628,3.5729,3.5604,3.5813,3.5931,3.5992,3.5852,3.5845,3.588,3.5688,3.5399,3.5086,3.5081,3.4756,3.4246,3.3981,3.3515,3.287,0.0,0.0,0.0,0.0,0.0,0.0,0.0,0.0,0.0,0.0,0.0,0.0,0.0,0.0,0.0,0.0,0.0,0.0,0.0,0.0,0.0,0.0,0.0,0.0,0.0,0.0,0.0,0.0,0.0,0.0,0.0,0.0,0.0,0.0,0.0,0.0,0.0,0.0,0.0,0.0,0.0,0.0,0.0,0.0,0.0,0.0,0.0,0.0,0.0,0.0,0.0,0.0,0.0,0.0,0.0,0.0,2.6283,2.6034,2.4895,0.0,0.0,0.0,0.0,0.0,0.0,0.0,0.0,0.0,0.0,0.0,0.0,0.0,0.0,0.0,0.0,0.0,0.0,0.0,0.0,0.0,0.0,0.0,0.0,0.0,0.0,0.0,0.0,0.0,0.0,0.0,0.0,0.0,3.3889,3.4285,3.4696,3.4902,3.5196,3.5504,3.571,3.5755,3.5684,3.5822,3.5908,3.5914,3.5747,3.5747,3.5864,3.5521,3.5147,3.4718,3.4492,3.4176,3.3828,3.3288,3.2867,3.2415,0.0,0.0,0.0,0.0,0.0,0.0,0.0,0.0,0.0,0.0,0.0,0.0,0.0,0.0,0.0,0.0,0.0,0.0,0.0,0.0,0.0,0.0,0.0,0.0,0.0,0.0,0.0,0.0,0.0,0.0,0.0,0.0,0.0,0.0,0.0,0.0,0.0,0.0,0.0,0.0,0.0,0.0,0.0,0.0,0.0,0.0,0.0,0.0,0.0,0.0,0.0,0.0,0.0,0.0,0.0,2.7384,2.7518,2.7093,2.6366,0.0,0.0,0.0,0.0,0.0,0.0,0.0,0.0,0.0,0.0,0.0,0.0,0.0,0.0,0.0,0.0,0.0,0.0,0.0,0.0,0.0,0.0,0.0,0.0,0.0,0.0,0.0,0.0,0.0,0.0,0.0,0.0,0.0,3.4452,3.4882,3.5047,3.5303,3.5524,3.5727,3.5791,3.5812,3.5784,3.584,3.5856,3.5856,3.5641,3.5593,3.5631,3.5301,3.4901,3.4501,3.4024,3.3625,3.3277,3.2727,3.2161,3.1588,0.0,0.0,0.0,0.0,0.0,0.0,0.0,0.0,0.0,0.0,0.0,0.0,0.0,0.0,0.0,0.0,0.0,0.0,0.0,0.0,0.0,0.0,0.0,0.0,0.0,0.0,0.0,0.0,0.0,0.0,0.0,0.0,0.0,0.0,0.0,0.0,0.0,0.0,0.0,0.0,0.0,0.0,0.0,0.0,0.0,0.0,0.0,0.0,0.0,0.0,0.0,0.0,0.0,0.0,0.0,2.8718,2.89,0.0,0.0,0.0,0.0,0.0,0.0,0.0,0.0,0.0,0.0,0.0,0.0,0.0,0.0,0.0,0.0,0.0,0.0,0.0,0.0,0.0,0.0,0.0,0.0,0.0,0.0,0.0,0.0,0.0,0.0,0.0,0.0,0.0,0.0,0.0,3.475,3.5427,3.5611,3.5736,3.5834,0.0,3.5898,3.589,3.5899,3.5821,3.5778,3.5738,3.5553,3.5372,3.5229,3.4962,3.4676,3.4315,3.3647,3.3081,3.2666,3.2213,3.1422,3.0575,0.0,0.0,0.0,0.0,0.0,0.0,0.0,0.0,0.0,0.0,0.0,0.0,0.0,0.0,0.0,0.0,0.0,0.0,0.0,0.0,0.0,0.0,0.0,0.0,0.0,0.0,0.0,0.0,0.0,0.0,0.0,0.0,0.0,0.0,0.0,0.0,0.0,0.0,0.0,0.0,0.0,0.0,0.0,0.0,0.0,0.0,0.0,0.0,0.0,0.0,0.0,0.0,2.9055,2.9006,2.8685,2.9228,2.9772,0.0,0.0,0.0,0.0,0.0,0.0,0.0,0.0,0.0,0.0,0.0,0.0,0.0,0.0,0.0,0.0,0.0,0.0,0.0,0.0,0.0,0.0,0.0,0.0,0.0,0.0,0.0,0.0,0.0,0.0,0.0,0.0,0.0,0.0,3.4993,3.5357,3.5582,3.5685,3.5748,3.5806,0.0,3.5819,3.5812,3.5827,3.582,3.5655,3.5411,3.5295,3.5078,3.4751,3.4572,3.4024,3.3328,3.3135,3.2723,3.2127,3.1768,3.1244,3.0657,0.0,0.0,0.0,0.0,0.0,0.0,0.0,0.0,0.0,0.0,0.0,0.0,0.0,0.0,0.0,0.0,0.0,0.0,0.0,0.0,0.0,0.0,0.0,0.0,0.0,0.0,0.0,0.0,0.0,0.0,0.0,0.0,0.0,0.0,0.0,0.0,0.0,0.0,0.0,0.0,0.0,0.0,0.0,0.0,0.0,0.0,0.0,0.0,0.0,0.0,0.0,0.0,0.0,0.0,2.9052,2.9748,0.0,0.0,0.0,0.0,0.0,0.0,0.0,0.0,0.0,0.0,0.0,0.0,0.0,0.0,0.0,0.0,0.0,0.0,0.0,0.0,0.0,0.0,0.0,0.0,0.0,0.0,0.0,0.0,0.0,0.0,0.0,0.0,0.0,3.4703,3.493,3.427,3.5163,3.5691,3.5786,3.5825,3.584,3.5796,3.5798,3.5697,3.5532,3.5611,3.5454,3.5111,3.5059,3.4756,3.4265,3.4018,3.3515,3.288,3.2482,3.2109,3.1714,3.11,3.0601,3.0133,0.0,0.0,0.0,0.0,0.0,0.0,0.0,0.0,0.0,0.0,0.0,0.0,0.0,0.0,0.0,0.0,0.0,0.0,0.0,0.0,0.0,0.0,0.0,0.0,0.0,0.0,0.0,0.0,0.0,0.0,0.0,0.0,0.0,0.0,0.0,0.0,0.0,0.0,0.0,0.0,0.0,0.0,0.0,0.0,0.0,0.0,0.0,0.0,0.0,3.0369,0.0,0.0,0.0,0.0,2.9165,0.0,0.0,0.0,0.0,0.0,0.0,0.0,0.0,0.0,0.0,0.0,0.0,0.0,0.0,0.0,0.0,0.0,0.0,0.0,0.0,0.0,0.0,0.0,0.0,0.0,0.0,0.0,0.0,0.0,0.0,0.0,0.0,0.0,3.3168,3.461,3.4861,3.3533,3.4934,3.5784,3.5898,3.588,3.5825,3.5768,3.5713,3.5488,3.5162,3.5262,3.5117,3.4756,3.4717,3.4349,3.3762,3.3432,3.3057,3.261,3.1933,3.1565,3.1338,3.0535,2.9941,2.9438,0.0,0.0,0.0,0.0,0.0,0.0,0.0,0.0,0.0,0.0,0.0,0.0,0.0,0.0,0.0,0.0,0.0,0.0,0.0,0.0,0.0,0.0,0.0,0.0,0.0,0.0,0.0,0.0,0.0,0.0,0.0,0.0,0.0,0.0,0.0,0.0,0.0,0.0,0.0,0.0,0.0,0.0,0.0,0.0,0.0,0.0,0.0,0.0,0.0,0.0,0.0,0.0,0.0,0.0,0.0,0.0,0.0,0.0,0.0,0.0,0.0,0.0,0.0,0.0,0.0,0.0,0.0,0.0,0.0,0.0,0.0,0.0,0.0,0.0,0.0,0.0,0.0,0.0,0.0,0.0,0.0,0.0,0.0,0.0,0.0,0.0,0.0,0.0,3.5111,3.5519,3.5675,3.5513,3.5699,3.5816,3.5901,3.5783,3.5702,3.5611,3.5334,3.51,3.4944,3.4737,3.448,3.4195,3.4018,3.3713,3.3281,3.2991,3.2616,3.2266,3.2039,3.1473,3.0707,3.0518,2.9908,2.912,0.0,0.0,0.0,0.0,0.0,0.0,0.0,0.0,0.0,0.0,0.0,0.0,0.0,0.0,0.0,0.0,0.0,0.0,0.0,0.0,0.0,0.0,0.0,0.0,0.0,0.0,0.0,0.0,0.0,0.0,0.0,2.6245,2.6068,0.0,0.0,0.0,0.0,0.0,0.0,0.0,0.0,0.0,0.0,0.0,0.0,0.0,0.0,0.0,0.0,0.0,0.0,0.0,0.0,0.0,0.0,0.0,0.0,0.0,0.0,0.0,0.0,0.0,0.0,0.0,0.0,0.0,0.0,0.0,0.0,0.0,0.0,0.0,0.0,0.0,0.0,0.0,0.0,0.0,0.0,0.0,0.0,0.0,0.0,0.0,0.0,0.0,0.0,3.5427,3.5021,3.5541,3.5654,3.5185,3.554,3.5732,3.5722,3.56,3.5465,3.532,3.5165,3.4982,3.473,3.4467,3.419,3.3914,3.3721,3.3281,3.2663,3.2553,3.2127,3.1617,3.1487,3.1083,3.0477,3.0038,2.9629,2.9196,0.0,0.0,0.0,0.0,0.0,0.0,0.0,0.0,0.0,0.0,0.0,0.0,0.0,0.0,0.0,0.0,0.0,0.0,0.0,0.0,0.0,0.0,0.0,0.0,0.0,0.0,0.0,0.0,0.0,0.0,2.6842,2.6842,2.6691,0.0,2.628,0.0,0.0,0.0,0.0,0.0,0.0,0.0,0.0,0.0,0.0,0.0,0.0,0.0,0.0,0.0,0.0,0.0,0.0,0.0,0.0,0.0,0.0,0.0,0.0,0.0,0.0,0.0,0.0,0.0,0.0,0.0,0.0,0.0,0.0,0.0,0.0,0.0,0.0,0.0,0.0,0.0,0.0,0.0,0.0,0.0,0.0,0.0,0.0,0.0,0.0,0.0,0.0,3.5509,3.4967,3.5549,3.5586,3.4901,3.5396,3.5631,3.5543,3.54,3.5216,3.5018,3.4982,3.4812,3.4473,3.4184,3.3862,3.3588,3.3451,3.2911,3.2127,3.2073,3.1674,3.1095,3.0975,3.0692,3.0284,2.9733,2.9316,2.9042,0.0,0.0,0.0,0.0,0.0,0.0,0.0,0.0,0.0,0.0,0.0,0.0,0.0,0.0,0.0,0.0,0.0,0.0,0.0,0.0,0.0,0.0,0.0,0.0,0.0,0.0,0.0,0.0,0.0,0.0,2.7267,2.7267,2.725,2.7218,2.6842,2.694,2.7448,0.0,0.0,0.0,0.0,0.0,0.0,0.0,0.0,0.0,0.0,0.0,0.0,0.0,0.0,0.0,0.0,0.0,0.0,0.0,0.0,0.0,0.0,0.0,0.0,0.0,0.0,0.0,0.0,0.0,0.0,0.0,0.0,0.0,0.0,0.0,0.0,0.0,0.0,0.0,0.0,0.0,0.0,0.0,0.0,0.0,0.0,0.0,0.0,0.0,0.0,3.5869,3.5822,3.5876,3.5815,3.5639,3.5616,3.5542,3.5412,3.5212,3.5,3.4809,3.4687,3.4431,3.4124,3.3762,3.3426,3.3037,3.3037,3.2519,3.1657,3.162,3.13,3.0804,3.0716,3.0426,3.0027,2.9837,2.9196,2.8288,0.0,0.0,0.0,0.0,0.0,0.0,0.0,0.0,0.0,0.0,0.0,0.0,0.0,0.0,0.0,0.0,0.0,0.0,0.0,0.0,0.0,0.0,0.0,0.0,0.0,0.0,0.0,0.0,0.0,2.8006,2.7989,2.7523,2.7299,2.7282,2.7137,2.7186,2.7382,2.8368,0.0,0.0,0.0,0.0,0.0,0.0,0.0,0.0,0.0,0.0,0.0,0.0,0.0,0.0,0.0,0.0,0.0,0.0,0.0,0.0,0.0,0.0,0.0,0.0,0.0,0.0,0.0,0.0,0.0,0.0,0.0,0.0,0.0,0.0,0.0,0.0,0.0,0.0,0.0,0.0,0.0,0.0,0.0,0.0,0.0,0.0,0.0,0.0,0.0,0.0,3.5955,3.5888,3.5802,3.5768,3.5524,3.5328,3.5152,3.5035,3.4812,3.4473,3.4427,3.4197,3.378,3.3484,3.325,3.3099,3.2719,3.2197,3.162,3.162,3.1145,3.046,3.0435,3.0258,2.9886,2.9303,2.8873,2.8448,0.0,0.0,0.0,0.0,0.0,0.0,0.0,0.0,0.0,0.0,0.0,0.0,0.0,0.0,0.0,0.0,0.0,0.0,0.0,0.0,0.0,0.0,0.0,0.0,0.0,0.0,0.0,0.0,0.0,0.0,0.0,0.0,2.754,2.7299,2.7558,0.0,0.0,0.0,0.0,2.923,0.0,0.0,3.1725,0.0,0.0,0.0,0.0,0.0,0.0,0.0,0.0,0.0,0.0,0.0,0.0,0.0,0.0,0.0,0.0,0.0,0.0,0.0,0.0,0.0,0.0,0.0,0.0,0.0,0.0,0.0,0.0,0.0,0.0,0.0,0.0,0.0,0.0,0.0,0.0,0.0,0.0,0.0,0.0,0.0,0.0,0.0,0.0,0.0,3.5927,3.5841,3.5755,3.565,3.5374,3.5098,3.487,3.4831,3.4628,3.4269,3.4221,3.3998,3.3541,3.3232,3.3019,3.2862,3.2317,3.186,3.1528,3.1376,3.0868,3.0156,3.0156,3.006,2.9814,2.9074,2.8732,2.8448,0.0,0.0,0.0,0.0,0.0,0.0,0.0,0.0,0.0,0.0,0.0,0.0,0.0,0.0,0.0,0.0,0.0,0.0,0.0,0.0,0.0,0.0,0.0,0.0,0.0,0.0,0.0,0.0,0.0,0.0,0.0,0.0,2.804,0.0,2.8109,2.8023,2.7402,0.0,2.842,2.8537,0.0,3.0539,3.0904,0.0,0.0,0.0,3.1992,3.2307,0.0,0.0,0.0,0.0,0.0,0.0,0.0,0.0,0.0,0.0,0.0,0.0,0.0,0.0,0.0,0.0,0.0,0.0,0.0,0.0,0.0,0.0,0.0,0.0,0.0,0.0,0.0,0.0,0.0,0.0,0.0,0.0,0.0,0.0,0.0,0.0,0.0,0.0,0.0,3.5946,3.5788,3.5781,3.5629,3.5311,3.5174,3.4927,3.4583,3.4602,3.445,3.4173,3.4049,3.3778,3.3458,3.2983,3.2586,3.2283,3.1877,3.1565,3.1359,3.0948,3.0452,2.9918,2.9874,2.9874,2.9814,2.9273,2.8732,2.8207,0.0,0.0,0.0,0.0,0.0,0.0,0.0,0.0,0.0,0.0,0.0,0.0,0.0,0.0,0.0,0.0,0.0,0.0,0.0,0.0,0.0,0.0,0.0,0.0,0.0,0.0,0.0,0.0,0.0,0.0,0.0,0.0,0.0,0.0,2.911,2.9075,2.8903,2.911,0.0,0.0,3.0103,3.0964,0.0,0.0,0.0,0.0,0.0,3.3257,3.34,0.0,3.376,3.3661,0.0,0.0,0.0,0.0,0.0,0.0,3.3998,0.0,0.0,0.0,0.0,0.0,0.0,0.0,0.0,0.0,0.0,0.0,0.0,0.0,0.0,0.0,0.0,0.0,0.0,0.0,0.0,0.0,0.0,0.0,0.0,0.0,0.0,0.0,3.5927,3.5864,3.5724,3.56,3.5334,3.4962,3.4851,3.4653,3.4307,3.4298,3.4148,3.3815,3.3496,3.316,3.283,3.2351,3.2091,3.1966,3.149,3.1201,3.1123,3.1004,3.0576,2.993,2.9576,2.9396,2.9227,2.8288,2.7849,2.7665,0.0,0.0,0.0,0.0,0.0,0.0,0.0,0.0,0.0,0.0,0.0,0.0,0.0,0.0,0.0,0.0,0.0,0.0,0.0,0.0,0.0,0.0,3.0089,0.0,0.0,0.0,0.0,0.0,0.0,0.0,0.0,0.0,0.0,0.0,0.0,0.0,0.0,0.0,0.0,0.0,3.0934,0.0,0.0,3.2549,3.3063,0.0,0.0,0.0,3.3805,3.413,3.413,0.0,3.4179,0.0,0.0,0.0,0.0,0.0,0.0,0.0,0.0,0.0,0.0,0.0,0.0,3.4655,0.0,0.0,0.0,0.0,0.0,0.0,0.0,0.0,0.0,0.0,0.0,0.0,0.0,0.0,0.0,0.0,0.0,0.0,0.0,3.5904,3.5852,3.5757,3.5609,3.5345,3.5049,3.4773,3.4593,3.4357,3.4043,3.403,3.3868,3.3577,3.3321,3.297,3.2588,3.2091,3.175,3.1545,3.1044,3.0989,3.1232,3.0914,3.051,3.0017,2.9576,2.9289,2.9044,2.7963,2.7565,2.7458,0.0,0.0,0.0,0.0,0.0,0.0,0.0,0.0,0.0,0.0,0.0,0.0,0.0,0.0,0.0,0.0,0.0,0.0,0.0,0.0,0.0,3.0516,3.0518,3.0279,0.0,0.0,0.0,0.0,0.0,0.0,0.0,0.0,0.0,0.0,0.0,0.0,0.0,0.0,0.0,3.0516,3.1974,3.2411,0.0,0.0,3.3162,0.0,3.3204,3.3566,3.4197,3.4517,3.4495,3.4386,3.4583,3.4583,0.0,0.0,3.4588,0.0,0.0,0.0,0.0,0.0,0.0,0.0,3.4889,3.4944,3.4959,0.0,0.0,0.0,0.0,0.0,0.0,0.0,0.0,0.0,0.0,0.0,0.0,0.0,0.0,0.0,0.0,3.5899,3.588,3.5872,3.5737,3.5591,3.5438,3.5083,3.4831,3.4632,3.4379,3.4117,3.378,3.3753,3.3633,3.3393,3.3262,3.2979,3.2555,3.1986,3.1473,3.1044,3.0658,3.0891,3.1411,3.079,3.0474,3.0303,2.9681,2.9335,2.9106,2.8042,2.753,2.7467,0.0,0.0,0.0,0.0,0.0,0.0,0.0,0.0,0.0,0.0,0.0,0.0,0.0,0.0,0.0,0.0,0.0,0.0,0.0,0.0,3.0563,3.0482,3.0607,3.0886,3.1334,0.0,0.0,0.0,0.0,0.0,0.0,0.0,0.0,0.0,0.0,0.0,0.0,0.0,0.0,3.2101,3.2837,0.0,3.2672,3.3506,3.4024,3.4302,3.4285,3.4386,3.4517,0.0,3.4728,3.4708,0.0,0.0,0.0,0.0,0.0,0.0,0.0,0.0,0.0,0.0,0.0,0.0,3.5193,3.5262,3.532,0.0,0.0,0.0,0.0,0.0,0.0,0.0,0.0,0.0,0.0,0.0,0.0,0.0,0.0,0.0,0.0,3.5896,3.5839,3.567,3.5476,3.5273,3.5028,3.4944,3.4693,3.4227,3.4105,3.3895,3.3549,3.3509,3.3452,3.3393,3.2784,3.247,3.2317,3.1507,3.1078,3.0935,3.0733,3.0692,3.0733,3.0756,3.0952,3.1095,2.9587,2.8858,2.8527,2.7524,2.7026,2.701,0.0,0.0,0.0,0.0,0.0,0.0,0.0,0.0,0.0,0.0,0.0,0.0,0.0,0.0,0.0,0.0,0.0,0.0,0.0,0.0,3.1405,3.1175,3.1721,3.1707,3.0907,3.1612,0.0,0.0,0.0,0.0,0.0,0.0,0.0,0.0,0.0,0.0,0.0,0.0,3.3319,3.2773,3.3077,0.0,3.305,3.3525,3.405,3.4539,3.4602,3.4645,3.4651,3.4338,3.4509,0.0,0.0,3.4623,3.5001,0.0,3.5073,3.5143,0.0,0.0,0.0,3.5226,0.0,0.0,0.0,3.5483,3.556,3.5581,0.0,0.0,0.0,0.0,0.0,0.0,0.0,0.0,0.0,0.0,0.0,0.0,0.0,0.0,0.0,3.5807,3.5687,3.5502,3.5277,3.5086,3.4906,3.4674,3.439,3.4074,3.3895,3.3671,3.3452,3.3208,3.3099,3.3099,3.2519,3.2162,3.1932,3.1393,3.0998,3.0773,3.0426,3.0609,3.1148,3.0601,3.0941,3.1645,2.9815,2.919,2.9092,2.7661,2.7436,2.7875,0.0,0.0,0.0,0.0,0.0,0.0,0.0,0.0,0.0,0.0,0.0,0.0,0.0,0.0,0.0,0.0,0.0,0.0,0.0,0.0,0.0,0.0,3.2354,3.2142,3.0346,3.2018,3.2312,0.0,0.0,0.0,0.0,0.0,0.0,0.0,0.0,0.0,0.0,0.0,0.0,3.259,0.0,3.2963,3.3069,3.324,3.3752,3.4376,3.4567,3.4728,3.4735,3.4169,0.0,3.4641,3.4129,3.4409,0.0,0.0,0.0,0.0,0.0,0.0,0.0,0.0,0.0,3.5469,0.0,0.0,0.0,3.5732,0.0,0.0,0.0,0.0,0.0,0.0,0.0,0.0,0.0,0.0,0.0,0.0,0.0,0.0,0.0,3.5678,3.5502,3.535,3.5119,3.4944,3.4774,3.4416,3.4124,3.3947,3.3726,3.352,3.3334,3.2988,3.2763,3.2699,3.23,3.1913,3.162,3.1372,3.1162,3.0908,3.031,3.0733,3.1804,3.0703,3.0945,3.1804,3.0114,2.972,2.9901,2.8234,2.8213,2.8946,0.0,0.0,0.0,0.0,0.0,0.0,0.0,0.0,0.0,0.0,0.0,0.0,0.0,0.0,0.0,0.0,0.0,0.0,2.8823,0.0,0.0,0.0,3.0618,3.1449,3.1435,3.2733,3.3317,0.0,0.0,0.0,0.0,0.0,0.0,0.0,3.3881,0.0,0.0,0.0,3.297,0.0,3.1806,3.2144,0.0,3.3016,3.3395,3.3644,3.4484,3.4831,3.4888,0.0,3.4571,3.4213,0.0,3.4645,0.0,0.0,0.0,0.0,0.0,0.0,0.0,0.0,3.5572,0.0,0.0,0.0,3.5801,3.5872,0.0,0.0,0.0,0.0,0.0,0.0,0.0,0.0,0.0,0.0,0.0,0.0,0.0,0.0,0.0,0.0,3.5379,3.5069,3.5034,3.4774,3.4298,3.4245,3.4049,3.3753,3.3661,3.3415,3.3055,3.2876,3.2634,3.2334,3.1967,3.1714,3.1694,3.1351,3.1443,3.1817,3.1221,3.1323,3.1885,3.1373,3.1228,3.1289,3.0483,3.0134,3.0007,2.937,2.9104,2.9186,0.0,0.0,0.0,0.0,0.0,0.0,0.0,0.0,0.0,0.0,0.0,0.0,0.0,0.0,0.0,0.0,0.0,2.8817,0.0,0.0,0.0,0.0,0.0,0.0,3.12,3.2866,3.3496,3.2993,3.4057,0.0,0.0,0.0,0.0,0.0,3.3431,0.0,3.1901,0.0,0.0,0.0,0.0,0.0,0.0,3.1744,3.2557,3.3598,3.4641,3.5051,3.5024,0.0,3.4712,0.0,0.0,0.0,0.0,0.0,0.0,0.0,0.0,0.0,0.0,0.0,0.0,0.0,3.5794,0.0,3.5927,0.0,0.0,0.0,0.0,0.0,0.0,0.0,0.0,0.0,0.0,0.0,0.0,0.0,0.0,0.0,0.0,0.0,0.0,0.0,0.0,3.4486,3.4203,3.4023,3.3734,3.335,3.328,3.3019,3.2586,3.2299,3.2336,3.2645,3.2252,3.2258,3.2684,3.2493,3.2311,3.205,3.1475,3.1358,3.1522,3.1029,3.1066,3.1399,3.1127,3.0951,3.0805,2.9779,2.9822,3.0216,0.0,0.0,0.0,0.0,0.0,0.0,0.0,0.0,0.0,0.0,0.0,0.0,2.7601,2.7757,0.0,0.0,2.953,2.9647,0.0,0.0,3.0755,0.0,0.0,0.0,0.0,3.3293,3.402,3.343,3.4574,0.0,0.0,0.0,0.0,0.0,0.0,3.2542,3.161,0.0,0.0,3.1706,3.1291,3.094,3.0658,3.0847,3.1996,3.3658,3.4547,3.4883,3.4899,3.4706,3.4853,0.0,3.4473,0.0,0.0,0.0,0.0,0.0,3.5669,0.0,0.0,0.0,0.0,0.0,0.0,0.0,0.0,0.0,0.0,0.0,0.0,0.0,0.0,0.0,0.0,0.0,0.0,0.0,0.0,0.0,0.0,0.0,0.0,0.0,0.0,0.0,3.4489,3.4237,3.4099,3.3762,3.3408,3.3111,3.2925,3.2603,3.2144,3.186,3.2035,3.275,3.2434,3.2621,3.3177,3.3125,3.2796,3.2252,3.1677,3.1502,3.1551,3.1001,3.1076,3.1482,3.1482,3.1482,3.1362,3.035,3.0532,3.1086,0.0,2.9341,0.0,0.0,0.0,0.0,0.0,0.0,0.0,0.0,0.0,0.0,0.0,0.0,0.0,0.0,0.0,3.0497,3.102,0.0,2.9886,0.0,0.0,3.1528,0.0,3.4386,3.5269,3.5303,3.6976,0.0,0.0,0.0,0.0,0.0,0.0,3.2288,3.0847,3.254,3.2426,3.1199,3.1939,3.1433,3.0275,0.0,3.2089,3.3636,3.3929,0.0,0.0,3.5179,3.5005,0.0,0.0,0.0,0.0,0.0,0.0,0.0,0.0,0.0,0.0,3.5965,0.0,0.0,0.0,0.0,3.5918,0.0,0.0,0.0,0.0,0.0,0.0,0.0,0.0,0.0,0.0,0.0,0.0,0.0,0.0,0.0,0.0,0.0,0.0,3.4282,3.4246,3.4093,3.3815,3.3419,3.3184,3.3111,3.2651,3.2196,3.1714,3.1714,3.1922,3.2313,3.233,3.2396,3.2618,3.2618,3.2569,3.2476,3.1898,3.1935,3.2312,3.1709,3.1452,3.1482,3.1482,3.1482,3.1467,3.1422,3.1437,3.1409,0.0,0.0,0.0,0.0,0.0,0.0,0.0,2.708,0.0,0.0,0.0,0.0,0.0,2.9932,3.0939,0.0,0.0,3.1379,3.2162,3.095,0.0,0.0,0.0,3.1268,0.0,0.0,3.4259,3.5421,3.601,0.0,0.0,0.0,0.0,0.0,0.0,3.1894,0.0,0.0,0.0,0.0,0.0,3.1756,3.1875,0.0,0.0,3.2387,3.3133,3.3437,0.0,3.3906,3.4205,3.4417,3.4481,3.4894,3.5364,3.5405,3.5644,0.0,0.0,0.0,3.5916,3.5974,0.0,0.0,0.0,0.0,0.0,0.0,0.0,0.0,0.0,0.0,0.0,0.0,0.0,0.0,0.0,0.0,0.0,0.0,0.0,0.0,0.0,0.0,0.0,3.4292,3.4117,3.3831,0.0,3.3262,3.2908,3.2401,3.2092,3.175,3.1351,3.1351,3.1941,3.3034,3.3034,3.3575,3.4578,3.4243,3.3825,3.3331,3.2798,3.2331,3.1996,3.1769,3.1597,3.1482,3.1482,3.1482,3.1467,3.1029,3.0837,3.0658,3.0871,0.0,0.0,0.0,0.0,0.0,0.0,0.0,0.0,0.0,2.8375,0.0,2.953,0.0,3.1773,0.0,3.2219,3.2066,3.2379,3.1441,0.0,3.1654,3.1122,0.0,0.0,0.0,3.4179,3.5873,3.6203,3.6663,0.0,0.0,0.0,0.0,0.0,0.0,3.1864,0.0,3.1705,0.0,0.0,3.2184,0.0,0.0,3.2586,3.2143,0.0,3.2696,3.277,3.3177,3.3612,3.4027,3.4146,3.4742,3.5424,3.5461,3.5685,3.5942,3.5946,3.5942,0.0,3.6342,3.6425,0.0,3.6424,0.0,0.0,0.0,0.0,0.0,0.0,0.0,0.0,0.0,0.0,0.0,0.0,0.0,0.0,0.0,0.0,0.0,0.0,0.0,3.4293,3.4165,3.4115,3.3889,0.0,0.0,3.2502,3.2039,3.1694,3.1428,3.119,3.1444,3.2188,3.3406,3.3489,3.4052,3.5021,3.4464,3.3853,3.3198,3.2788,3.2342,3.1799,3.1727,3.1597,3.1482,3.1482,3.1482,3.1467,3.1029,3.0703,3.0329,0.0,0.0,0.0,0.0,3.075,0.0,0.0,0.0,2.776,0.0,2.8656,2.9638,2.9773,3.1506,3.2684,3.276,3.2902,3.2636,3.1858,3.1784,0.0,0.0,3.1728,3.2432,3.416,0.0,0.0,0.0,0.0,0.0,0.0,0.0,0.0,0.0,3.4154,0.0,3.3469,3.2822,3.2707,3.2987,3.3142,3.274,3.2105,3.2893,3.3141,3.2965,3.2184,3.1937,3.2135,3.296,3.3304,3.3381,3.3434,3.4055,3.4765,3.482,3.5428,3.6077,3.611,3.6112,3.6309,3.7066,0.0,0.0,0.0,0.0,3.6856,0.0,0.0,0.0,0.0,0.0,0.0,0.0,0.0,0.0,0.0,0.0,0.0,0.0,0.0,0.0,0.0,3.4247,3.402,3.3923,3.4233,3.4099,0.0,0.0,3.2003,3.1967,3.15,3.1241,3.1241,3.1968,3.2713,3.3432,3.3589,3.3822,3.3986,3.3443,3.2841,3.2247,3.2094,3.194,3.1799,3.1597,3.1524,3.1482,3.1467,3.1409,3.1409,3.1409,3.097,3.0269,3.1932,3.1655,3.1487,0.0,3.0972,3.0021,0.0,0.0,0.0,0.0,2.9735,3.0929,3.1047,3.258,3.3659,3.3734,3.3759,0.0,0.0,0.0,0.0,3.3547,3.2409,3.2544,3.4232,3.3692,0.0,3.5962,0.0,0.0,3.8096,0.0,0.0,0.0,0.0,0.0,3.376,3.4263,3.4326,3.4032,3.3438,3.3444,0.0,0.0,3.3619,3.3932,3.2485,3.1999,3.2039,3.226,3.3229,3.4335,3.4367,3.4963,3.5793,3.6443,3.6786,3.7106,3.7694,3.7825,3.7831,3.804,3.8054,3.8026,0.0,0.0,0.0,0.0,0.0,0.0,0.0,0.0,0.0,0.0,0.0,0.0,0.0,0.0,0.0,0.0,0.0,0.0,3.5107,3.4966,3.4715,3.4436,3.3916,3.3278,0.0,0.0,0.0,3.1507,3.1817,3.2002,3.2002,3.2747,3.3304,3.3639,3.3686,3.3822,3.3986,3.3443,3.3093,3.2949,3.2492,3.2135,3.194,3.1883,3.1697,3.1467,3.097,3.045,3.0011,3.0011,2.9268,2.8274,3.2404,0.0,0.0,3.1696,0.0,0.0,2.9905,0.0,0.0,2.8979,3.0385,0.0,3.201,3.3266,3.4222,3.4668,3.4371,0.0,3.3696,0.0,0.0,3.3706,3.285,3.2985,3.4321,3.3649,0.0,3.5693,0.0,0.0,3.8153,0.0,0.0,0.0,0.0,3.595,0.0,3.4908,3.4743,3.4464,3.3968,0.0,0.0,3.442,3.4447,3.4469,3.3906,3.3219,3.2641,3.3039,3.3867,3.4823,3.5591,3.6172,3.6729,3.7589,3.7811,3.7928,3.8331,3.844,3.8472,3.8837,3.8879,3.884,3.8916,3.886,3.872,0.0,0.0,0.0,0.0,0.0,0.0,0.0,0.0,0.0,0.0,0.0,0.0,0.0,0.0,0.0,3.5287,3.5192,3.5015,3.4844,3.4065,3.3473,0.0,0.0,0.0,3.1805,3.2133,3.2442,3.2763,3.3846,3.4442,3.4543,3.436,3.417,3.3986,3.3198,3.2841,3.2841,3.2437,3.2247,3.2094,3.2038,3.1826,3.1597,3.1087,3.0329,2.9504,2.9504,2.9016,2.8338,0.0,0.0,0.0,0.0,0.0,0.0,0.0,3.0956,0.0,3.0096,0.0,3.2109,3.273,3.3574,3.4445,3.5256,0.0,3.39,3.3194,3.3807,3.3929,3.3287,3.3268,3.3631,3.4454,3.3934,0.0,0.0,0.0,0.0,3.8126,0.0,0.0,0.0,0.0,0.0,0.0,3.509,3.4563,0.0,3.4664,3.4672,3.475,3.5516,3.5441,3.5029,3.5801,3.4964,3.3646,3.4671,3.5038,3.5314,3.695,3.7454,3.7616,3.8437,3.8669,3.8671,3.8727,3.8739,3.8884,3.9576,3.9703,3.9691,3.973,3.9716,3.9456,3.8646,3.7892,3.7475,0.0,0.0,0.0,0.0,0.0,0.0,0.0,0.0,0.0,0.0,0.0,0.0,0.0,3.5133,3.4975,3.5046,3.4335,3.4004,0.0,0.0,0.0,3.2332,3.2381,0.0,3.3406,0.0,3.5621,3.553,3.5135,3.4594,3.3912,3.285,3.2398,3.2398,3.2302,3.2191,3.2135,3.2053,3.1826,3.1467,3.1278,3.0404,2.9268,2.9268,2.9268,2.9142,0.0,0.0,0.0,0.0,0.0,3.4064,3.4293,3.4302,3.3839,3.2502,3.3155,3.35,3.295,3.3666,3.4253,3.4401,3.429,0.0,0.0,0.0,0.0,3.4088,3.4134,3.4349,3.4713,3.4621,3.4775,0.0,3.6595,3.7366,0.0,0.0,0.0,0.0,0.0,0.0,3.7585,3.5427,0.0,3.5577,3.5557,3.5566,3.5585,3.5799,3.6209,3.669,3.6899,3.588,3.4694,3.6243,3.6801,3.7009,3.7982,3.8298,3.8457,3.9314,3.9527,3.9638,4.0354,4.0451,4.0403,4.0557,4.0579,4.0583,4.0602,4.0571,4.0462,4.0096,3.9896,3.9525,3.8689,0.0,0.0,0.0,0.0,0.0,0.0,0.0,0.0,0.0,0.0,0.0,0.0,0.0,0.0,0.0,0.0,0.0,0.0,0.0,0.0,0.0,0.0,0.0,0.0,0.0,3.5597,3.5114,3.459,3.4069,3.3463,3.2755,3.2398,3.2398,3.2398,3.2247,3.2038,3.1996,3.119,2.9889,2.9889,2.9016,2.7829,2.7829,2.7829,2.7842,0.0,0.0,0.0,0.0,0.0,0.0,0.0,3.6278,0.0,3.3783,3.3519,3.3525,3.3562,3.395,3.4383,3.4829,3.4457,3.4221,3.4245,3.4269,3.4316,3.4386,3.4092,0.0,3.4851,3.4177,3.4238,3.5114,3.632,3.7126,0.0,0.0,0.0,0.0,0.0,3.8059,0.0,0.0,0.0,3.5838,3.6284,3.6476,3.6479,3.6514,3.7073,3.7887,3.8361,3.7753,3.6902,3.8131,3.8573,3.8742,3.9587,3.9823,3.9884,4.0301,4.0368,4.0412,4.0785,4.0859,4.0796,4.0812,4.0796,4.079,4.079,4.0713,4.0607,4.0466,4.0008,3.9296,3.8213,3.7721,0.0,0.0,0.0,0.0,0.0,0.0,0.0,0.0,0.0,0.0,0.0,0.0,0.0,0.0,0.0,0.0,0.0,0.0,0.0,0.0,0.0,0.0,0.0,0.0,0.0,3.6152,3.5609,3.4989,3.4363,3.3785,3.3275,3.2921,3.2921,3.2665,3.2191,3.215,3.1652,3.0911,3.0763,2.9889,2.8712,2.8583,2.8078,2.7523,0.0,3.5073,0.0,0.0,3.5928,0.0,3.6358,3.7087,3.692,3.4925,3.3951,3.3642,3.4142,3.4191,3.4476,3.5169,3.4612,3.4245,3.4316,3.434,3.4409,3.4561,3.4053,3.4187,3.4999,3.3973,3.4019,0.0,3.6157,3.6891,0.0,0.0,0.0,0.0,0.0,0.0,0.0,0.0,3.6645,3.6398,3.6903,3.7218,3.7397,3.7404,3.796,3.8877,3.9544,3.9501,3.9222,3.9867,3.9953,3.994,4.0801,4.1035,4.0998,4.098,4.0929,4.0859,4.0798,4.0796,4.0792,4.0803,4.079,4.079,4.079,4.0621,4.0446,4.038,3.9603,3.8702,3.791,3.7997,0.0,0.0,0.0,0.0,0.0,0.0,0.0,0.0,0.0,0.0,0.0,0.0,0.0,0.0,0.0,3.471,3.4668,3.3612,0.0,0.0,0.0,3.4001,3.4544,0.0,3.7037,0.0,3.6489,3.5917,3.5326,3.4756,3.4168,3.3629,3.3475,3.3013,3.2342,3.2191,3.2099,3.1992,3.1661,3.0814,2.9785,2.9531,2.8781,2.7902,0.0,0.0,0.0,0.0,0.0,0.0,3.5618,3.6252,3.6723,3.65,3.5757,3.4996,3.429,3.4197,3.4258,3.4405,3.4349,3.4316,3.4404,3.445,3.4564,3.4753,3.4775,3.4958,3.5331,3.5226,3.5321,0.0,3.6356,3.6729,3.6832,0.0,0.0,0.0,0.0,0.0,0.0,3.6587,3.6795,3.8097,3.7396,3.7611,3.8369,3.8371,3.8911,3.9696,3.9774,4.026,4.0876,4.0953,4.0447,3.9941,4.0746,4.1008,4.0986,4.0932,4.0869,4.0818,4.0807,4.0812,4.0803,4.079,4.079,4.079,4.079,4.0598,4.0317,4.0024,3.9477,3.9043,3.896,3.8961,3.8952,0.0,0.0,0.0,0.0,0.0,0.0,0.0,0.0,0.0,0.0,0.0,0.0,0.0,0.0,3.4777,3.3967,3.4185,3.3472,3.1646,0.0,3.4235,3.3953,3.5577,0.0,3.6358,3.5864,3.5566,3.5488,3.4812,3.4429,3.4337,3.369,3.2972,3.2191,3.2094,3.1722,3.1242,3.0854,3.0373,2.9736,2.9442,2.9245,2.9118,0.0,0.0,0.0,0.0,0.0,0.0,0.0,3.6533,3.6596,3.6162,3.5336,3.466,3.4306,3.4293,3.4316,3.434,3.4363,3.4386,3.4473,3.4607,3.4732,3.4851,3.5086,3.5258,3.5412,3.5017,3.5095,0.0,0.0,3.6361,3.6903,3.7583,0.0,0.0,0.0,3.7111,3.7605,3.743,3.7758,3.8416,3.8595,3.8903,3.9291,3.9277,3.9821,4.0574,4.0581,4.0808,4.1092,4.1094,4.0875,4.0628,4.092,4.0968,4.0921,4.0869,4.0826,4.0788,4.0788,4.0796,4.079,4.079,4.079,4.0765,4.0598,4.0367,4.0138,3.9823,3.9476,3.921,3.9129,3.9101,3.9101,0.0,0.0,0.0,0.0,0.0,0.0,0.0,0.0,0.0,0.0,0.0,0.0,0.0,0.0,3.5001,3.3717,3.4172,3.3614,3.1756,0.0,3.4596,3.4043,3.5603,3.6426,3.6426,3.6199,3.6091,3.6076,3.5814,3.546,3.5045,3.4337,3.3891,3.3602,3.3545,3.3391,3.3171,3.2792,3.1974,3.1026,3.065,3.0006,2.9274,3.772,0.0,3.6533,0.0,3.679,3.6935,3.6218,3.6311,3.6298,3.5768,3.4923,3.434,3.4316,3.4363,3.4431,3.452,3.452,3.4545,3.4672,3.4813,3.4925,3.5032,3.5273,0.0,3.55,3.5029,3.5098,3.5737,3.5727,0.0,3.6658,0.0,0.0,0.0,3.6187,3.6673,3.7508,3.7875,3.8455,3.921,3.9578,3.9914,4.0184,4.018,4.0567,4.1105,4.1105,4.1092,4.1092,4.1082,4.1078,4.1061,4.0994,4.0929,4.0859,4.0815,4.0788,4.079,4.079,4.079,4.079,4.079,4.0733,4.0626,4.0438,4.0138,3.9844,3.9571,3.9364,3.9219,3.9129,3.9101,3.9073,3.9017,0.0,0.0,0.0,0.0,0.0,0.0,3.9359,3.9571,3.8981,0.0,0.0,0.0,0.0,0.0,3.4011,3.4543,0.0,0.0,0.0,0.0,0.0,3.5887,3.6492,3.6492,3.6492,3.6492,3.6492,3.6492,3.6122,3.546,3.4983,3.466,3.4475,3.4475,3.4465,3.4319,3.3938,3.3138,3.2108,3.1732,3.1005,3.013,3.8141,3.7348,3.6572,3.5843,3.5712,3.5432,3.4554,3.5152,3.5712,3.5693,3.4992,3.4473,3.4404,3.4386,3.4498,3.4773,3.4812,3.487,3.5081,3.5098,3.5174,0.0,0.0,3.5481,3.5679,3.5747,3.5784,3.5803,0.0,0.0,3.5829,0.0,3.7081,3.7081,3.7081,3.7566,3.8333,3.7479,3.8604,4.0896,4.0111,4.0327,4.1072,4.1072,4.1094,4.1107,4.1107,4.1097,4.109,4.1028,4.1007,4.0988,4.0926,4.0859,4.0796,4.0796,4.079,4.079,4.079,4.079,4.079,4.079,4.0598,4.0406,4.0406,3.9944,3.9427,3.9165,3.9101,3.9101,3.9101,3.9101,3.9017,3.8851,0.0,0.0,0.0,0.0,0.0,0.0,3.8748,3.8362,3.8938,0.0,0.0,0.0,0.0,0.0,0.0,0.0,0.0,3.5069,3.5944,0.0,3.5892,3.6306,3.6492,3.6492,3.6492,3.6492,3.6492,3.6492,3.6122,3.5476,3.5476,3.5091,3.4475,3.4475,3.4288,3.3839,3.3485,3.3075,3.2676,3.2245,3.2101,3.2042,3.8226,3.8338,3.8301,3.7468,3.7337,3.7057,3.6283,3.6419,3.64,3.5904,3.5608,3.5462,3.5421,3.5007,3.4772,0.0,3.4944,3.5047,0.0,3.5234,3.5334,3.5406,3.5535,3.563,3.5708,3.5766,3.5812,3.5801,0.0,0.0,0.0,3.609,3.6207,3.6246,3.6828,3.7583,3.8412,3.8731,3.9694,4.098,4.0762,4.0843,4.1105,4.1094,4.109,4.1087,4.1041,4.1023,4.1028,4.0955,4.091,4.0859,4.0839,4.0818,4.0796,4.0796,4.079,4.079,4.079,4.079,4.0778,4.0621,4.05,4.0319,4.0003,3.9548,3.92,3.9129,3.9101,3.9101,3.9101,3.8989,3.8862,3.8822,3.8415,0.0,0.0,0.0,0.0,0.0,4.0366,4.0412,0.0,3.9502,0.0,0.0,0.0,0.0,0.0,0.0,0.0,0.0,3.6489,0.0,3.5923,3.652,3.6754,3.6492,3.6492,3.6492,3.6492,3.6492,3.6368,3.6168,3.6168,3.5845,3.5321,3.5321,3.5048,3.4566,3.4288,3.3801,3.3241,3.2974,3.2561,3.2128,3.8733,3.8808,3.8789,3.8272,3.7935,3.7561,3.7103,3.7028,3.6977,3.6836,3.6535,3.6506,3.6877,3.6349,0.0,3.5038,3.5133,3.5273,3.5378,3.547,3.5512,3.5554,3.5679,3.5747,3.5736,0.0,0.0,3.5799,3.5799,3.5799,3.5799,3.5834,3.5998,3.6309,3.6888,3.7805,3.8961,3.952,4.0246,4.1037,4.1074,4.109,4.1094,4.1105,4.1088,4.1055,4.1018,4.0992,4.0948,4.0882,4.082,4.0807,4.0804,4.0792,4.0812,4.0803,4.079,4.079,4.079,4.0733,4.0612,4.0481,4.0264,3.9964,3.9548,3.9279,3.9101,3.9101,3.9101,3.9101,3.9101,3.895,3.8762,3.8652,3.8558,3.8688,3.9354,0.0,0.0,0.0,0.0,0.0,0.0,3.9779,0.0,0.0,0.0,0.0,0.0,0.0,0.0,3.6534,3.7076,0.0,3.6491,3.6705,3.6693,3.6492,3.6492,3.6492,3.6492,3.6492,3.6492,3.6492,3.6492,3.6289,3.6022,3.6022,3.5688,3.5154,3.4876,3.4327,3.3728,3.3423,3.3002,3.2574,3.9514,3.884,0.0,0.0,3.7718,0.0,3.7174,3.7197,3.7479,3.8206,3.7671,3.7555,3.8509,3.8078,3.707,3.5452,0.0,0.0,0.0,3.5737,3.5737,3.5803,3.5803,3.5793,3.5791,3.5791,3.5799,3.5799,3.5799,3.5818,3.5799,3.5864,3.6333,3.7111,3.7241,3.8213,3.9797,3.9862,4.0359,4.1101,4.1091,4.111,4.1094,4.109,4.105,4.0996,4.0988,4.0943,4.0878,4.0818,4.0807,4.0796,4.0796,4.079,4.079,4.079,4.079,4.079,4.079,4.0598,4.0406,4.0353,3.9905,3.9402,3.9165,3.9101,3.9101,3.9101,3.9101,3.9101,3.9101,3.895,3.8732,3.8519,3.8878,3.9391,3.9917,0.0,0.0,0.0,0.0,0.0,0.0,3.923,3.9319,0.0,0.0,0.0,0.0,0.0,3.6999,3.8359,3.7833,3.7539,3.748,3.6955,3.6692,3.663,3.663,3.663,3.663,3.6584,3.6569,3.6553,3.6507,3.6492,3.6414,3.6414,3.6085,3.5544,3.5008,3.4572,3.4005,3.3536,3.3354,3.3382,0.0,0.0,3.9276,3.9276,3.8582,3.8019,3.8019,3.8112,3.8233,3.8422,3.8433,3.8479,3.8728,3.8262,3.7756,3.7352,3.6887,3.6667,3.6755,3.6154,3.5785,3.5803,3.5801,3.5801,3.5812,3.581,3.5799,3.5799,3.585,3.5884,3.5891,3.5885,3.6364,3.7202,3.789,3.8789,3.9848,4.0516,4.0906,4.1091,4.1105,4.1104,4.109,4.11,4.1059,4.0988,4.0935,4.0869,4.0818,4.082,4.0796,4.0796,4.0803,4.079,4.079,4.079,4.079,4.0778,4.0607,4.0485,4.0336,4.0082,3.9683,3.9305,3.9156,3.9101,3.9101,3.9101,3.9101,3.9101,3.9101,3.895,3.8885,3.9167,3.9206,3.9589,4.0667,4.0449,0.0,0.0,4.0415,3.9878,3.9242,3.9887,3.9997,0.0,0.0,0.0,0.0,3.766,3.7485,3.8375,3.8811,3.8718,3.8146,3.8559,3.8512,3.8031,3.8031,3.8031,3.8015,3.7507,3.7261,3.723,3.6722,3.6289,3.5894,3.5894,3.535,3.4476,3.4341,3.4249,3.4086,3.3494,3.3621,3.3958,3.9695,3.9602,3.9602,3.9656,3.926,3.894,3.9029,3.9097,3.9164,3.9231,3.8974,3.8993,3.9531,3.8989,3.88,3.9286,3.7898,3.7027,3.7104,3.6289,3.5803,3.5793,3.581,3.581,3.5801,3.581,3.5826,3.585,3.5885,3.5905,3.5905,3.5894,3.6572,3.78,3.8296,3.9211,4.043,4.0895,4.1094,4.1107,4.1108,4.1105,4.1106,4.1097,4.1038,4.0943,4.0917,4.0858,4.08,4.0803,4.079,4.079,4.079,4.079,4.079,4.079,4.0726,4.0621,4.0481,4.0264,3.9984,3.9637,3.9364,3.9192,3.9129,3.9101,3.9101,3.9101,3.9101,3.9101,3.9101,3.8844,3.8816,3.9389,3.9499,3.9908,4.0931,4.0717,0.0,4.1392,4.0828,4.0324,4.0167,4.0915,4.082,3.9412,0.0,0.0,3.9201,3.8926,3.8812,3.8893,3.915,3.9134,3.8934,3.8999,3.8883,3.8508,3.8508,3.8508,3.8492,3.8123,3.7969,3.7923,3.7246,3.6812,3.6542,3.6542,3.6205,3.5695,3.5725,3.5569,3.5296,3.474,3.4568,3.4604,3.9645,3.9626,3.9656,3.9739,3.9743,3.9788,3.9916,3.9958,4.002,4.012,3.9546,3.9478,4.0433,3.994,3.9917,4.0819,3.8763,3.7444,3.7501,3.655,3.6006,3.6012,3.5877,3.5799,3.5799,3.5799,3.585,3.5911,3.5903,3.5894,3.5914,3.6177,3.7102,3.853,3.8781,3.9705,4.1092,4.109,4.1094,4.1094,4.1109,4.1081,4.1085,4.1085,4.0996,4.0878,4.0878,4.0856,4.079,4.079,4.079,4.079,4.079,4.079,4.079,4.079,4.0654,4.0481,4.0438,4.0062,3.9595,3.9219,3.9101,3.9101,3.9101,3.9101,3.9101,3.9101,3.9101,3.9101,3.9073,3.8725,3.8725,3.9486,3.9734,4.0131,4.1127,0.0,4.1217,4.2002,4.1089,4.0613,4.12,4.1586,4.1363,4.0235,4.115,4.131,0.0,4.0564,4.0491,3.9962,3.9597,3.9569,3.9866,3.9259,3.8882,3.8882,3.8816,3.8816,3.8816,3.8708,3.8662,3.8616,3.7938,3.7646,3.7646,3.7646,3.7582,3.7563,3.7652,3.7366,3.6869,3.6343,3.5899,3.556,3.9797,3.967,3.9762,4.0001,4.0041,4.0043,4.0136,4.0243,4.0329,4.0345,4.0439,4.0565,4.0738,4.069,4.0733,4.0898,3.9908,3.9286,3.9305,3.7791,3.6906,3.6906,3.6187,3.5799,3.5799,3.5857,3.5892,3.5903,3.589,3.5903,3.5923,3.7468,3.8333,3.8648,4.0052,4.0858,4.1093,4.1099,4.1097,4.109,4.1095,4.1078,4.1023,4.1023,4.0935,4.0818,4.0818,4.0812,4.079,4.079,4.079,4.079,4.079,4.079,4.079,4.0733,4.0612,4.0504,4.0489,4.0101,3.9604,3.9192,3.9101,3.9101,3.9101,3.9101,3.9101,3.9101,3.9101,3.9045,3.8862,3.8773,3.9067,4.0022,3.9698,3.9965,4.1846,0.0,4.0396,4.1199,4.0753,4.0192,3.9726,4.0492,4.0573,3.937,4.0646,4.1278,4.0967,4.165,4.2037,4.2132,4.1504,4.1335,4.171,4.1009,4.0691,4.0676,4.0353,4.0216,4.0201,3.9616,3.9354,3.9323,3.8646,3.8354,3.8354,3.8354,3.8076,3.7661,3.7684,3.7649,3.7559,3.7013,3.7019,3.7258,4.0713,4.0629,4.0578,4.0306,4.0264,4.0298,4.0392,4.0477,4.0521,4.0615,4.0307,4.03,4.0809,4.05,4.0422,4.0869,4.0558,4.0353,4.0399,3.8769,3.7797,3.7802,3.7413,3.7226,3.7247,3.7286,3.7303,3.7298,3.6871,3.6879,3.737,3.7728,3.8383,3.927,4.0058,4.0662,4.1103,4.1105,4.1075,4.1058,4.1052,4.1015,4.0963,4.0963,4.0898,4.0807,4.0807,4.0812,4.079,4.079,4.079,4.079,4.079,4.0778,4.0746,4.07,4.0454,4.0157,4.0081,3.9724,3.9324,3.9156,3.9101,3.9101,3.9101,3.9101,3.9101,3.9101,3.9101,3.9045,3.8851,3.9001,3.929,3.9643,4.0002,0.0,0.0,4.1002,4.0802,4.1464,4.1216,4.0832,4.0394,4.1799,4.2068,4.0441,4.175,4.253,4.2268,4.2647,4.3113,4.3751,4.2896,4.2559,4.2685,4.2588,4.2333,4.1956,4.1548,4.1527,4.1852,4.0608,4.0278,4.0586,3.9508,3.9046,3.9046,3.9046,3.8898,3.8727,3.9093,3.9067,3.8799,3.8501,3.8204,3.7754,4.176,4.1761,4.1671,4.1166,4.0911,4.0824,4.0945,4.0804,4.0713,4.0804,4.0234,4.01,4.082,4.0344,4.0228,4.0849,4.0907,4.0926,4.098,3.9738,3.893,3.8734,3.8526,3.8442,3.8497,3.8493,3.8506,3.851,3.79,3.7946,3.8593,3.8517,3.8957,3.9823,4.0425,4.0837,4.109,4.1089,4.1071,4.103,4.1015,4.0971,4.0907,4.0878,4.0839,4.0804,4.0804,4.08,4.079,4.079,4.079,4.079,4.079,4.0746,4.0687,4.0626,4.023,3.9772,3.9675,3.9427,3.9183,3.9129,3.9101,3.9101,3.9101,3.9101,3.9101,3.9101,3.9073,3.896,3.8743,3.894,3.9148,3.9121,0.0,0.0,0.0,4.1217,4.1385,4.2179,4.2027,4.1788,4.1562,4.31,4.3459,4.1954,4.3112,4.3867,4.3701,4.3943,4.4423,4.5241,4.4152,4.3554,4.3554,4.3747,4.3543,4.2952,4.2526,4.2544,4.2956,4.1619,4.1232,4.154,4.0462,3.9908,3.9754,3.9754,3.9754,3.9801,4.0324,4.0246,3.9895,3.9753,3.909,3.8263,4.268,4.2789,4.2934,4.3047,4.2414,4.1928,4.2062,4.1393,4.0869,4.0898,4.084,4.082,4.0888,4.0849,4.0849,4.0888,4.0907,4.0907,4.0917,4.0855,4.0485,3.9727,3.8909,3.8497,3.8502,3.8502,3.8534,3.859,3.8531,3.8534,3.8651,4.0952,4.1229,3.9901,4.2271,4.2483,4.109,4.1089,4.1104,4.1085,4.103,4.0971,4.0878,4.0839,4.0792,4.0803,4.0803,4.0803,4.079,4.079,4.079,4.079,4.079,4.0746,4.064,4.0403,3.9963,3.9532,3.9526,3.9483,3.9427,3.9165,3.9101,3.9101,3.9101,3.9101,3.9101,3.9101,3.8931,3.8743,3.8478,3.8256,3.8257,3.8758,0.0,0.0,4.1895,4.1573,4.168,4.3191,4.3162,4.2882,4.2594,4.3196,4.3444,4.3078,4.4055,4.4699,4.4883,4.5785,4.6438,4.6714,4.5419,4.4706,4.4706,4.4423,4.407,4.3595,4.3247,4.2869,4.2602,4.2494,4.214,4.1586,4.1494,4.1063,4.0462,4.0462,4.0462,4.0462,4.0509,4.0455,4.0385,3.9895,3.961,3.9379,4.3987,4.4026,4.3962,4.3516,4.3158,4.2781,4.2267,4.1917,4.151,4.0966,4.0907,4.0907,4.0907,4.0907,4.0907,4.0907,4.0935,4.096,4.0964,4.1026,4.0933,4.0613,4.0301,4.0118,4.0102,4.0102,4.0125,4.0151,3.9605,3.9613,4.017,4.0583,4.0429,3.9891,4.1944,4.2183,4.1104,4.2147,4.2555,4.2481,4.1898,4.1653,4.1521,4.0994,4.0796,4.079,4.079,4.079,4.079,4.079,4.079,4.079,4.079,4.0706,4.0504,4.0062,3.9724,3.9458,3.9298,3.9245,3.9219,3.9129,3.951,3.99,3.99,4.029,4.0614,4.0418,4.0345,4.0139,3.9656,3.9878,4.0021,3.956,0.0,4.1109,4.1502,4.1716,4.2014,4.2452,4.2714,4.2773,4.2533,4.3392,4.382,4.3476,4.4201,4.4693,4.4605,4.5537,4.6334,4.686,4.6358,4.5872,4.5419,4.5721,4.5584,4.4998,4.4671,4.4614,4.4851,4.3519,4.3009,4.3164,4.2546,4.1832,4.1186,4.1186,4.0924,4.0524,4.0524,4.0524,4.0455,4.0246,3.9965,3.961,4.5105,4.5107,4.4986,4.4384,4.4074,4.3704,4.3102,4.2772,4.2384,4.1781,4.15,4.1343,4.1343,4.1099,4.0932,4.0932,4.0976,4.1006,4.1007,4.1061,4.1096,4.1105,4.1101,4.1108,4.1108,4.1108,4.1094,4.1099,4.0494,4.0365,4.0683,4.0351,3.9912,3.9474,4.1481,4.187,4.1104,4.2799,4.3471,4.3338,4.2455,4.2238,4.2325,4.1228,4.0965,4.1177,4.1177,4.1003,4.0829,4.1081,4.1003,4.079,4.0733,4.05,4.0176,3.9766,3.9714,3.9735,3.9565,3.9695,3.9825,3.9565,4.0141,4.0773,4.0773,4.12,4.156,4.136,4.1204,4.0958,4.0527,4.0744,4.0771,4.0042,4.1038,4.1805,4.152,4.2162,4.2709,4.2754,4.32,4.3465,4.3249,4.4399,4.4923,4.4317,4.4812,4.4993,4.4552,4.5342,4.5937,4.6212,4.6423,4.6196,4.5484,4.6423,4.6565,4.5927,4.5736,4.5697,4.5897,4.4243,4.351,4.3656,4.2716,4.1894,4.1263,4.1263,4.097,4.0555,4.077,4.0863,4.0793,4.0637,4.0355,3.9968,4.5906,4.596,4.5997,4.5997,4.5336,4.4812,4.4792,4.4074,4.351,4.351,4.2799,4.2299,4.2299,4.1519,4.0994,4.0994,4.0994,4.0994,4.0994,4.1061,4.1105,4.1108,4.1108,4.1108,4.1108,4.1108,4.1099,4.1092,4.1092,4.0644,3.9819,4.0698,4.0157,3.8615,4.1169,4.1805,4.1116,4.2801,4.35,4.3412,4.2477,4.2617,4.3218,4.1473,4.1313,4.2009,4.2009,4.1506,4.0945,4.1738,4.1467,4.0778,4.0559,4.0138,3.9683,3.9575,3.996,4.0401,4.0401,4.0996,4.1423,4.0606,4.0996,4.1609,4.1609,4.1609,4.1609,4.1609,4.1204,4.0842,4.0808,4.0347,3.995,3.995,4.061,4.1413,4.2198,4.3019,4.3786,4.4517,4.508,4.5311,4.5027,4.6199,4.6688,4.583,4.6026,4.5794,4.4853,4.5435,4.55,4.4836,4.5451,4.5484,4.4804,4.618,4.6652,4.6269,4.6269,4.5929,4.5216,4.4528,4.3656,4.2586,4.1909,4.1217,4.0555,4.0539,4.0539,4.0616,4.1324,4.1601,4.153,4.0895,4.0676,4.0497,4.5964,4.5986,4.5997,4.5997,4.5802,4.5444,4.488,4.4578,4.4217,4.3646,4.2824,4.2305,4.2305,4.1513,4.0994,4.0994,4.1031,4.1072,4.107,4.1097,4.1104,4.1108,4.1108,4.1108,4.1108,4.1103,4.1108,4.1092,4.1094,4.0658,3.98,4.0067,3.9579,3.8575,4.0512,4.1224,4.1033,4.2712,4.3404,4.3337,4.3053,4.3099,4.3273,4.2757,4.2705,4.2918,4.2918,4.2763,4.2492,4.2125,4.1835,4.1583,4.1253,4.0879,4.0679,4.1027,4.1157,4.1237,4.1237,4.1832,4.224,4.1441,4.185,4.2445,4.2445,4.2872,4.3219,4.3042,4.3133,4.3196,4.2991,4.3109,4.3215,4.3215,4.3411,4.3643,4.3893,4.4125,4.4375,4.4589,4.508,4.5311,4.5027,4.5693,4.5857,4.5103,4.4798,4.4853,4.5242,4.5488,4.5767,4.6228,4.5969,4.5694,4.55,4.5435,4.5352,4.5269,4.5269,4.5391,4.5635,4.5164,4.4946,4.4752,4.3847,4.3138,4.2633,4.2171,4.1986,4.1955,4.1694,4.1601,4.154,4.0806,4.0552,4.0521,4.5997,4.5997,4.5997,4.5997,4.6017,4.5891,4.5393,4.5332,4.518,4.4695,4.3871,4.3195,4.285,4.2056,4.1418,4.1067,4.1081,4.1097,4.1108,4.1108,4.1108,4.1108,4.1097,4.1101,4.1101,4.144,4.1445,4.1091,4.1103,4.048,3.9301,3.9253,3.8784,3.8027,3.9668,4.0762,4.1459,4.2811,4.3712,4.4233,4.3576,4.3692,4.4214,4.3556,4.3518,4.3808,4.3808,4.3595,4.3227,4.2686,4.2179,4.17,4.136,4.1287,4.1367,4.1651,4.1901,4.2073,4.2073,4.2649,4.3243,4.3095,4.3429,4.3689,4.3355,4.4153,4.4814,4.4183,4.4473,4.4724,4.4411,4.4498,4.4624,4.4624,4.4624,4.4624,4.4624,4.4874,4.5088,4.5088,4.5541,4.577,4.5484,4.6217,4.6496,4.6056,4.5286,4.5047,4.5464,4.581,4.5979,4.6034,4.5629,4.5257,4.4982,4.4285,4.4221,4.4787,4.4787,4.5077,4.5604,4.492,4.4827,4.5101,4.405,4.3406,4.3156,4.2771,4.2602,4.2571,4.2155,4.2001,4.1909,4.1217,4.0955,4.0909,4.5997,4.5997,4.5997,4.6007,4.6066,4.6102,4.6111,4.6162,4.6203,4.6209,4.5448,4.4587,4.3695,4.2951,4.2162,4.1283,4.1283,4.1303,4.1225,4.1225,4.1186,4.1108,4.1166,4.119,4.1093,4.1874,4.1892,4.1094,4.109,4.0233,3.8611,3.8546,3.8097,3.7381,3.885,4.0427,4.2044,4.2847,4.4059,4.5336,4.3962,4.4272,4.5413,4.3962,4.3866,4.4485,4.4485,4.402,4.3421,4.3374,4.2527,4.1453,4.1249,4.1499,4.1904,4.1835,4.2333,4.2909,4.2909,4.3503,4.4302,4.5101,4.5398,4.5287,4.4413,4.5398,4.6205,4.5142,4.5334,4.5617,4.526,4.5054,4.491,4.4839,4.4874,4.491,4.4839,4.5463,4.5909,4.5909,4.6358,4.6583,4.634,4.7352,4.8069,4.808,4.6903,4.6018,4.559,4.6253,4.6143,4.4998,4.4982,4.469,4.4107,4.3249,4.346,4.469,4.469,4.4962,4.533,4.4331,4.4078,4.4351,4.32,4.2808,4.2844,4.2736,4.2633,4.2694,4.2633,4.2571,4.2432,4.1755,4.1509,4.1417,4.5997,4.5997,4.6017,4.6075,4.6093,4.6119,4.6157,4.6195,4.6226,4.6264,4.5527,4.4653,4.3775,4.3525,4.3079,4.2181,4.2747,4.2845,4.2162,4.2123,4.181,4.1127,4.1751,4.1797,4.1111,4.1297,4.1283,4.1094,4.11,4.052,3.9447,3.942,3.9288,3.9071,3.9374,4.0089,4.1125,4.1938,4.2492,4.2918,4.3904,4.4136,4.3885,4.4194,4.402,4.3576,4.3576,4.3904,4.4283,4.4036,4.3081,4.2096,4.2586,4.2733,4.2855,4.3311,4.3596,4.3745,4.3745,4.4376,4.5064,4.5249,4.6252,4.6977,4.6141,4.6234,4.6372,4.5842,4.6121,4.6379,4.6109,4.6793,4.7194,4.6569,4.6998,4.7194,4.6569,4.6623,4.673,4.673,4.7157,4.7378,4.7064,4.7508,4.7769,4.7812,4.7013,4.6374,4.6068,4.6662,4.6878,4.6491,4.6423,4.6649,4.707,4.5241,4.4188,4.3945,4.3945,4.4527,4.5672,4.5443,4.5544,4.5785,4.4506,4.4165,4.4584,4.3438,4.3169,4.331,4.2802,4.2279,4.174,4.1032,4.0755,4.0739,4.5997,4.6017,4.6066,4.6093,4.6135,4.617,4.6181,4.6236,4.6269,4.63,4.5909,4.5285,4.4426,4.4328,4.3977,4.3099,4.343,4.3509,4.304,4.2619,4.2197,4.1748,4.1758,4.1746,4.1667,4.1671,4.1668,4.1668,4.1662,4.1198,4.0274,4.0237,4.0209,4.0179,4.0533,4.142,4.262,4.2621,4.3073,4.3827,4.3924,4.3962,4.3924,4.3962,4.3711,4.3343,4.3769,4.4119,4.4306,4.4077,4.3406,4.273,4.3023,4.3287,4.3465,4.3441,4.3708,4.4005,4.4005,4.4636,4.5472,4.6252,4.707,4.7497,4.668,4.7088,4.7414,4.6526,4.6848,4.7175,4.6726,4.7187,4.7604,4.7568,4.7907,4.8157,4.8104,4.8104,4.8104,4.8104,4.8205,4.8249,4.819,4.7885,4.8027,4.8752,4.8096,4.7546,4.729,4.7901,4.805,4.748,4.741,4.7443,4.7475,4.5694,4.4771,4.469,4.4026,4.4269,4.5322,4.5105,4.5162,4.5309,4.5123,4.4962,4.4934,4.4542,4.4257,4.4081,4.341,4.2724,4.1953,4.1252,4.1055,4.1055,4.6212,4.6173,4.6111,4.6119,4.6151,4.6211,4.6211,4.6249,4.63,4.63,4.63,4.5968,4.5109,4.4992,4.4777,4.4192,4.4133,4.4078,4.3925,4.3255,4.2772,4.2617,4.1914,4.1832,4.2481,4.2646,4.2652,4.2507,4.2516,4.2023,4.1121,4.1197,4.1164,4.1036,4.186,4.3015,4.4349,4.3769,4.4311,4.5471,4.4078,4.3866,4.4311,4.3576,4.3131,4.2976,4.3819,4.3978,4.379,4.3649,4.3502,4.3342,4.3052,4.3334,4.3726,4.3336,4.3503,4.3893,4.4302,4.4952,4.5862,4.733,4.7794,4.7738,4.7051,4.7909,4.8456,4.7197,4.7569,4.7946,4.7312,4.7408,4.7765,4.8282,4.8478,4.8746,4.9246,4.9317,4.9317,4.9317,4.915,4.9134,4.9333,4.8571,4.8631,4.9907,4.9269,4.8658,4.8262,4.8935,4.8895,4.801,4.8123,4.7945,4.7443,4.605,4.5629,4.6164,4.4739,4.4447,4.5144,4.4664,4.4529,4.4705,4.5483,4.5461,4.4994,4.554,4.531,4.4654,4.4069,4.3421,4.2726,4.2031,4.1762,4.1762,4.7057,4.6664,4.6183,4.6189,4.6181,4.6216,4.6273,4.63,4.63,4.63,4.63,4.5968,4.5109,4.4992,4.5265,4.589,4.5948,4.5626,4.4879,4.4704,4.4297,4.3476,4.3324,4.328,4.3335,4.4015,4.4025,4.3335,4.3335,4.2858,4.1962,4.2707,4.2613,4.1886,4.2744,4.3266,4.3518,4.4156,4.4562,4.4736,4.4523,4.404,4.346,4.3343,4.2396,4.1223,4.1919,4.2371,4.2601,4.2469,4.3201,4.4015,4.3111,4.2902,4.3225,4.4562,4.4005,4.3429,4.5584,4.6252,4.655,4.746,4.8221,4.8723,4.8612,4.8512,4.8365,4.7907,4.8218,4.8496,4.8107,4.9121,4.9834,4.9264,4.9745,4.9995,4.9388,4.9317,4.9317,4.9317,4.9495,4.9658,4.9884,4.9752,4.9786,4.9993,4.9269,4.8436,4.7558,4.8199,4.8382,4.7977,4.8576,4.9143,4.9661,4.8269,4.7621,4.7686,4.6228,4.5905,4.6585,4.5885,4.5934,4.65,4.5995,4.5902,4.6055,4.5559,4.5078,4.4701,4.4575,4.4117,4.3453,4.2825,4.2572,4.2572,4.7315,4.6748,4.6189,4.6206,4.624,4.6269,4.63,4.63,4.63,4.63,4.63,4.6144,4.5773,4.5734,4.587,4.6261,4.6293,4.6129,4.5703,4.5186,4.4692,4.4292,4.379,4.3733,4.416,4.4517,4.4715,4.4776,4.4366,4.3947,4.3499,4.3886,4.3853,4.3498,4.4311,4.4697,4.4717,4.5104,4.5278,4.5239,4.4775,4.4078,4.3247,4.2763,4.1757,4.0723,4.1349,4.1894,4.2271,4.2127,4.2396,4.2776,4.2809,4.3113,4.3615,4.4358,4.4711,4.5101,4.6197,4.6828,4.7367,4.8166,4.8983,4.9542,4.9344,4.9432,4.934,4.8762,4.8647,4.8695,4.8775,4.9371,4.987,4.9959,5.0281,5.053,5.0637,5.0637,5.0539,5.0167,5.0259,5.0253,5.0034,5.0011,5.0011,5.0011,4.9683,4.9169,4.846,4.9063,4.9284,4.881,4.9259,4.9393,4.9295,4.8021,4.7378,4.7362,4.5921,4.5403,4.571,4.5775,4.5548,4.516,4.6034,4.6273,4.6003,4.6168,4.5837,4.5314,4.5298,4.4898,4.4273,4.3952,4.384,4.384]}]]